[[{"header":{"parameterUnit":"m.s-1","parameterCategory":1,"la1":31.0,"la2":29.5877,"lo1":-88.7671,"lo2":-86.6584,"dy":0.0162,"dx":0.0185,"nx":115,"ny":88,"refTime":"2026-04-19T00:00:00:Z","depth":0,"parameterNumber":2,"parameterNumberName":"U-component_of_WINDS"},"data":[0.0,0.0,0.0,0.0,0.0,0.0,0.0,0.0,0.0,0.0,0.0,0.0,0.0,0.0,0.0,0.0,0.0,0.0,0.0,0.0,0.0,0.0,0.0,0.0,0.0,0.0,0.0,0.0,0.0,0.0,0.0,0.0,0.0,0.0,0.0,0.0,0.0,0.0,0.0,0.0,0.0,0.0,0.0,0.0,0.0,0.0,0.0,0.0,0.0,0.0,0.0,0.0,0.0,0.0,0.0,0.0,0.0,0.0,0.0,0.0,0.0,0.0,0.0,0.0,0.0,0.0,0.0,0.0,0.0,0.0,0.0,0.0,0.0,0.0,0.0,0.0,0.0,0.0,0.0,0.0,0.0,0.0,0.0,0.0,0.0,0.0,0.0,0.0,0.0,0.0,0.0,0.0,0.0,0.0,0.0,0.0,0.0,0.0,0.0,0.0,0.0,0.0,0.0,0.0,0.0,0.0,0.0,0.0,0.0,0.0,0.0,0.0,0.0,0.0,0.0,0.0,0.0,0.0,0.0,0.0,0.0,0.0,0.0,0.0,0.0,0.0,0.0,0.0,0.0,0.0,0.0,0.0,0.0,0.0,0.0,0.0,0.0,0.0,0.0,0.0,0.0,0.0,0.0,0.0,0.0,0.0,0.0,0.0,0.0,0.0,0.0,0.0,0.0,0.0,0.0,0.0,0.0,0.0,0.0,0.0,0.0,0.0,0.0,0.0,0.0,0.0,0.0,0.0,0.0,0.0,0.0,0.0,0.0,0.0,0.0,0.0,0.0,0.0,0.0,0.0,0.0,0.0,0.0,0.0,0.0,0.0,0.0,0.0,0.0,0.0,0.0,0.0,0.0,0.0,0.0,0.0,0.0,0.0,0.0,0.0,0.0,0.0,0.0,0.0,0.0,0.0,0.0,0.0,0.0,0.0,0.0,0.0,0.0,0.0,0.0,0.0,0.0,0.0,0.0,0.0,0.0,0.0,0.0,0.0,0.0,0.0,0.0,0.0,0.0,0.0,0.0,0.0,0.0,0.0,0.0,0.0,0.0,0.0,0.0,0.0,0.0,0.0,0.0,0.0,0.0,0.0,0.0,0.0,0.0,0.0,0.0,0.0,0.0,0.0,0.0,0.0,0.0,0.0,0.0,0.0,0.0,0.0,0.0,0.0,0.0,0.0,0.0,0.0,0.0,0.0,0.0,0.0,0.0,0.0,0.0,0.0,0.0,0.0,0.0,0.0,0.0,0.0,0.0,0.0,0.0,0.0,0.0,0.0,0.0,0.0,0.0,0.0,0.0,0.0,0.0,0.0,0.0,0.0,0.0,0.0,0.0,0.0,0.0,0.0,0.0,0.0,0.0,0.0,0.0,0.0,0.0,0.0,0.0,0.0,0.0,0.0,0.0,0.0,0.0,0.0,0.0,0.0,0.0,0.0,0.0,0.0,0.0,0.0,0.0,0.0,0.0,0.0,0.0,0.0,0.0,0.0,0.0,0.0,0.0,0.0,0.0,0.0,0.0,0.0,0.0,0.0,0.0,0.0,0.0,0.0,0.0,0.0,0.0,0.0,0.0,0.0,0.0,0.0,0.0,0.0,0.0,0.0,0.0,0.0,0.0,0.0,0.0,0.0,0.0,0.0,0.0,0.0,0.0,0.0,0.0,0.0,0.0,0.0,0.0,0.0,0.0,0.0,0.0,0.0,0.0,0.0,0.0,0.0,0.0,0.0,0.0,0.0,0.0,0.0,0.0,0.0,0.0,0.0,0.0,0.0,0.0,0.0,0.0,0.0,0.0,0.0,0.0,0.0,0.0,0.0,0.0,0.0,0.0,0.0,0.0,0.0,0.0,0.0,0.0,0.0,0.0,0.0,0.0,0.0,0.0,0.0,0.0,0.0,0.0,0.0,0.0,0.0,0.0,0.0,0.0,0.0,0.0,0.0,0.0,0.0,0.0,0.0,0.0,0.0,0.0,0.0,0.0,0.0,0.0,0.0,0.0,0.0,0.0,0.0,0.0,0.0,0.0,0.0,0.0,0.0,0.0,0.0,0.0,0.0,0.0,0.0,0.0,0.0,0.0,0.0,0.0,0.0,0.0,0.0,0.0,0.0,0.0,0.0,0.0,0.0,0.0,0.0,0.0,0.0,0.0,0.0,0.0,0.0,0.0,0.0,0.0,0.0,0.0,0.0,0.0,0.0,0.0,0.0,0.0,0.0,0.0,0.0,0.0,0.0,0.0,0.0,0.0,0.0,0.0,0.0,0.0,0.0,0.0,0.0,0.0,0.0,0.0,0.0,0.0,0.0,0.0,0.0,0.0,0.0,0.0,0.0,0.0,0.0,0.0,0.0,0.0,0.0,0.0,0.0,0.0,0.0,0.0,0.0,0.0,0.0,0.0,0.0,0.0,0.0,0.0,0.0,0.0,0.0,0.0,0.0,0.0,0.0,0.0,0.0,0.0,0.0,0.0,0.0,0.0,0.0,0.0,0.0,0.0,0.0,0.0,0.0,0.0,0.0,0.0,0.0,0.0,0.0,0.0,0.0,0.0,0.0,0.0,0.0,0.0,0.0,0.0,0.0,0.0,0.0,0.0,0.0,0.0,0.0,0.0,0.0,0.0,0.0,0.0,0.0,0.0,0.0,0.0,0.0,0.0,0.0,0.0,0.0,0.0,0.0,0.0,0.0,0.0,0.0,0.0,0.0,0.0,0.0,0.0,0.0,0.0,0.0,0.0,0.0,0.0,0.0,0.0,0.0,0.0,0.0,0.0,0.0,0.0,0.0,0.0,0.0,0.0,0.0,0.0,0.0,0.0,0.0,0.0,0.0,0.0,0.0,0.0,0.0,0.0,0.0,0.0,0.0,0.0,0.0,0.0,0.0,0.0,0.0,0.0,0.0,0.0,0.0,0.0,0.0,0.0,0.0,0.0,0.0,0.0,0.0,0.0,0.0,0.0,0.0,0.0,0.0,0.0,0.0,0.0,0.0,0.0,0.0,0.0,0.0,0.0,0.0,0.0,0.0,0.0,0.0,0.0,0.0,0.0,0.0,0.0,0.0,0.0,0.0,0.0,0.0,0.0,0.0,0.0,0.0,0.0,0.0,0.0,0.0,0.0,0.0,0.0,0.0,0.0,0.0,0.0,0.0,0.0,0.0,0.0,0.0,0.0,0.0,0.0,0.0,0.0,0.0,0.0,0.0,0.0,0.0,0.0,0.0,0.0,0.0,0.0,0.0,0.0,0.0,0.0,0.0,0.0,0.0,0.0,0.0,0.0,0.0,0.0,0.0,0.0,0.0,0.0,0.0,0.0,0.0,0.0,0.0,0.0,0.0,0.0,0.0,0.0,0.0,0.0,0.0,0.0,0.0,0.0,0.0,0.0,0.0,0.0,0.0,0.0,0.0,0.0,0.0,0.0,0.0,0.0,0.0,0.0,0.0,0.0,0.0,0.0,0.0,0.0,0.0,0.0,0.0,0.0,0.0,0.0,0.0,0.0,0.0,0.0,0.0,0.0,0.0,0.0,0.0,0.0,0.0,0.0,0.0,0.0,0.0,0.0,0.0,0.0,0.0,0.0,0.0,0.0,0.0,0.0,0.0,0.0,0.0,0.0,0.0,0.0,0.0,0.0,0.0,0.0,0.0,0.0,0.0,0.0,0.0,0.0,0.0,0.0,0.0,0.0,0.0,0.0,0.0,0.0,0.0,0.0,0.0,0.0,0.0,0.0,0.0,0.0,0.0,0.0,0.0,0.0,0.0,0.0,0.0,0.0,0.0,0.0,0.0,0.0,0.0,0.0,0.0,0.0,0.0,0.0,0.0,0.0,0.0,0.0,0.0,0.0,0.0,0.0,0.0,0.0,0.0,0.0,0.0,0.0,0.0,0.0,0.0,0.0,0.0,0.0,0.0,0.0,0.0,0.0,0.0,0.0,0.0,0.0,0.0,0.0,0.0,0.0,0.0,0.0,0.0,0.0,0.0,0.0,0.0,0.0,0.0,0.0,0.0,0.0,0.0,0.0,0.0,0.0,0.0,0.0,0.0,0.0,0.0,0.0,0.0,0.0,0.0,0.0,0.0,0.0,0.0,0.0,0.0,0.0,0.0,0.0,0.0,0.0,0.0,0.0,0.0,0.0,0.0,0.0,0.0,0.0,0.0,0.0,0.0,0.0,0.0,0.0,0.0,0.0,0.0,0.0,0.0,0.0,0.0,0.0,0.0,0.0,0.0,0.0,0.0,0.0,0.0,0.0,0.0,0.0,0.0,0.0,0.0,0.0,0.0,0.6578,0.0,0.0,0.0,0.0,0.0,0.0,0.0,0.0,0.0,0.0,0.0,0.0,0.0,0.0,0.0,0.0,0.0,0.0,0.0,0.0,0.0,0.0,0.0,0.0,0.0,0.0,0.0,0.0,0.0,0.0,0.0,0.0,0.0,0.0,0.0,0.0,0.0,0.0,0.0,0.0,0.0,0.0,0.0,0.0,0.0,0.0,0.0,0.0,0.0,0.0,0.0,0.0,0.0,0.0,0.0,0.0,0.0,0.0,0.0,0.0,0.0,0.0,0.0,0.0,0.0,0.0,0.0,0.0,0.0,0.0,0.0,0.0,0.0,0.0,0.0,0.0,0.0,0.0,0.0,0.0,0.0,0.0,0.0,0.0,0.0,0.0,0.0,0.0,0.0,0.0,0.0,0.0,0.0,0.0,0.0,0.0,0.0,0.0,0.0,0.0,0.0,0.0,0.0,0.0,0.0,0.0,0.0,0.0,0.0,0.0,0.6578,0.6578,0.6578,0.6578,0.6607,0.0,0.0,0.0,0.0,0.0,0.0,0.0,0.0,0.0,0.0,0.0,0.0,0.0,0.0,0.0,0.0,0.0,0.0,0.0,0.0,0.0,0.0,0.0,0.0,0.0,0.0,0.0,0.0,0.0,0.0,0.0,0.0,0.0,0.0,0.0,0.0,0.0,0.0,0.0,0.0,0.0,0.0,0.0,0.0,0.0,0.0,0.0,0.0,0.0,0.0,0.0,0.0,0.0,0.0,0.0,0.0,0.0,0.0,0.0,0.0,0.0,0.0,0.0,0.0,0.0,0.0,0.0,0.0,0.0,0.0,0.0,0.0,0.0,0.0,0.0,0.0,0.0,0.0,0.0,0.0,0.0,0.0,0.0,0.0,0.0,0.0,0.0,0.0,0.0,0.0,0.0,0.0,0.0,0.0,0.0,0.0,0.0,0.0,0.0,0.0,0.0,0.0,0.0,0.0,0.0,0.0,0.0,0.0,0.0,0.0,0.0,0.0,0.6992,0.6987,0.7012,0.0,0.0,0.0,0.0,0.0,0.0,0.0,0.0,0.0,0.0,0.0,0.0,0.0,0.0,0.0,0.0,0.0,0.0,0.0,0.0,0.0,0.0,0.0,0.0,0.0,0.0,0.0,0.0,0.0,0.0,0.0,0.0,0.0,0.0,0.0,0.0,0.0,0.0,0.0,0.0,0.0,0.0,0.0,0.0,0.0,0.0,0.0,0.0,0.0,0.0,0.0,0.0,0.0,0.0,0.0,0.0,0.0,0.0,0.0,0.0,0.0,0.0,0.0,0.0,0.0,0.0,0.0,0.0,0.0,0.0,0.0,0.0,0.0,0.0,0.0,0.0,0.0,0.0,0.0,0.0,0.0,0.0,0.0,0.0,0.0,0.0,0.0,0.0,0.0,0.0,0.0,0.0,0.0,0.0,0.0,0.0,0.0,0.0,0.0,0.0,0.0,0.0,0.0,0.0,0.0,0.0,0.0,0.0,0.0,0.0,0.7092,0.8105,0.813,0.0,0.8185,0.0,0.0,0.0,0.0,0.0,0.0,0.0,0.0,0.0,0.0,0.0,0.0,0.0,0.0,0.0,0.0,0.0,0.0,0.0,0.0,0.0,0.0,0.0,0.0,0.0,0.0,0.0,0.0,0.0,0.0,0.0,0.0,0.0,0.0,0.0,0.0,0.0,0.0,0.0,0.0,0.0,0.0,0.0,0.0,0.0,0.0,0.0,0.0,0.0,0.0,0.0,0.0,0.0,0.0,0.0,0.0,0.0,0.0,0.0,0.0,0.0,0.0,0.0,0.0,0.0,0.0,0.0,0.0,0.0,0.0,0.0,0.0,0.0,0.0,0.0,0.0,0.0,0.0,0.0,0.0,0.0,0.0,0.0,0.0,0.0,0.0,0.0,0.0,0.0,0.0,0.0,0.0,0.0,0.0,0.0,0.0,0.0,0.0,0.0,0.0,0.0,0.0,0.0,0.0,0.0,0.0,0.0,0.0,0.0,0.0,0.0,0.8286,0.8311,0.8311,0.0,0.0,0.0,0.0,0.0,0.0,0.0,0.0,0.0,0.0,0.0,0.0,0.0,0.0,0.0,0.0,0.0,0.0,0.0,0.0,0.0,0.0,0.0,0.0,0.0,0.0,0.0,0.0,0.0,0.0,0.0,0.0,0.0,0.0,0.0,0.0,0.0,0.0,0.0,0.0,0.0,0.0,0.0,0.0,0.0,0.0,0.0,0.0,0.0,0.0,0.0,0.0,0.0,0.0,0.0,0.0,0.0,0.0,0.0,0.0,0.0,0.0,0.0,0.0,0.0,0.0,0.0,0.0,0.0,0.0,0.0,0.0,0.0,0.0,0.0,0.0,0.0,0.0,0.0,0.0,0.0,0.0,0.0,0.0,0.0,0.0,0.0,0.0,0.0,0.0,0.0,0.0,0.0,0.0,0.0,0.0,0.0,0.0,0.0,0.0,0.0,0.0,0.0,0.0,0.0,0.0,0.0,0.0,0.0,0.0,0.8024,0.0,0.8707,0.8732,0.8601,0.8311,0.0,0.0,0.0,0.0,0.0,0.0,0.0,0.0,0.0,0.0,0.0,0.0,0.0,0.0,0.0,0.0,0.0,0.0,0.0,0.0,0.0,0.0,0.0,0.0,0.0,0.0,0.0,0.0,0.0,0.0,0.0,0.0,0.0,0.0,0.0,0.0,0.0,0.0,0.0,0.0,0.0,0.0,0.0,0.0,0.0,0.0,0.0,0.0,0.0,0.0,0.0,0.0,0.0,0.0,0.0,0.0,0.0,0.0,0.0,0.0,0.0,0.0,0.0,0.0,0.0,0.0,0.0,0.0,0.0,0.0,0.0,0.0,0.0,0.0,0.0,0.0,0.0,0.0,0.0,0.0,0.0,0.0,0.0,0.0,0.0,0.0,0.0,0.0,0.0,0.0,0.0,0.0,0.0,0.0,0.0,0.0,0.0,0.0,0.0,0.0,0.0,0.0,0.0,0.0,0.0,0.0,0.0,0.0,0.0,0.8782,0.8794,0.9786,0.9836,0.9347,0.0,0.0,0.0,0.0,0.0,0.0,0.0,0.0,0.0,0.0,0.0,0.0,0.0,0.0,0.0,0.0,0.0,0.0,0.0,0.0,0.0,0.0,0.0,0.0,0.0,0.0,0.0,0.0,0.0,0.0,0.0,0.0,0.0,0.0,0.0,0.0,0.0,0.0,0.0,0.0,0.0,0.0,0.0,0.0,0.0,0.0,0.0,0.0,0.0,0.0,0.0,0.0,0.0,0.0,0.0,0.0,0.0,0.0,0.0,0.0,0.0,0.0,0.0,0.0,0.0,0.0,0.0,0.0,0.0,0.0,0.0,0.0,0.0,0.0,0.0,0.0,0.0,0.0,0.0,0.0,0.0,0.0,0.0,0.0,0.0,0.0,0.0,0.0,0.0,0.0,0.0,0.0,0.0,0.0,0.0,0.0,0.0,0.0,0.0,0.0,0.0,0.0,0.0,0.0,0.0,0.0,0.0,0.0,0.0,0.7754,0.813,0.9159,1.0854,0.9623,0.9008,0.0,0.0,0.0,0.0,0.0,0.0,0.0,0.0,0.0,0.0,0.0,0.0,0.0,0.0,0.0,0.0,0.0,0.0,0.0,0.0,0.0,0.0,0.0,0.0,0.0,0.0,0.0,0.0,0.0,0.0,0.0,0.0,0.0,0.0,0.0,0.0,0.0,0.0,0.0,0.0,0.0,0.0,0.0,0.0,0.0,0.0,0.0,0.0,0.0,0.0,0.0,0.0,0.0,0.0,0.0,0.0,0.0,0.0,0.0,0.0,0.0,0.0,0.0,0.0,0.0,0.0,0.0,0.0,0.0,0.0,0.0,0.0,0.0,0.0,0.0,0.0,0.0,0.0,0.0,0.0,0.0,0.0,0.0,0.0,0.0,0.0,0.0,0.0,0.0,0.0,0.0,0.0,0.0,0.0,0.0,0.0,0.0,0.0,0.0,0.0,0.0,0.0,0.0,0.0,0.0,0.0,0.0,0.0,0.0,0.7673,0.0,0.9924,0.0,0.9592,0.8833,0.0,0.0,0.0,0.0,0.0,0.0,0.0,0.0,0.0,0.0,0.0,0.0,0.0,0.0,0.0,0.0,0.0,0.0,0.0,0.0,0.0,0.0,0.0,0.0,0.0,0.0,0.0,0.0,0.0,0.0,0.0,0.0,0.0,0.0,0.0,0.0,0.0,0.0,0.0,0.0,0.0,0.0,0.0,0.0,0.0,0.0,0.0,0.0,0.0,0.0,0.0,0.0,0.0,0.0,0.0,0.0,0.0,0.0,0.0,0.0,0.0,0.0,0.0,0.0,0.0,0.0,0.0,0.0,0.0,0.0,0.0,0.0,0.0,0.0,0.0,0.0,0.0,0.0,0.0,0.0,0.0,0.0,0.0,0.0,0.0,0.0,0.0,0.0,0.0,0.0,0.0,0.0,0.0,0.0,0.0,0.0,0.0,0.0,0.0,0.0,0.0,0.0,0.0,0.0,0.0,0.0,0.0,0.0,0.7703,0.9755,1.0911,1.1005,1.0,0.9893,0.8858,0.0,0.0,0.0,0.0,0.0,0.0,0.0,0.0,0.0,0.0,0.0,0.0,0.0,0.0,0.0,0.0,0.0,0.0,0.0,0.0,0.0,0.0,0.0,0.0,0.0,0.0,0.0,0.0,0.0,0.0,0.0,0.0,0.0,0.0,0.0,0.0,0.0,0.0,0.0,0.0,0.0,0.0,0.0,0.0,0.0,0.0,0.0,0.0,0.0,0.0,0.0,0.0,0.0,0.0,0.0,0.0,0.0,0.0,0.0,0.0,0.0,0.0,0.0,0.0,0.0,0.0,0.0,0.0,0.0,0.0,0.0,0.0,0.0,0.0,0.0,0.0,0.0,0.0,0.0,0.0,0.0,0.0,0.0,0.0,0.0,0.0,0.0,0.0,0.0,0.0,0.0,0.0,0.0,0.0,0.0,0.0,0.0,0.0,0.0,0.0,0.0,0.0,0.0,0.0,0.0,0.0,0.0,0.0,0.0,0.8807,1.0238,1.1191,1.1543,1.0151,0.9366,0.0,0.0,0.0,0.0,0.0,0.0,0.0,0.0,0.0,0.0,0.0,0.0,0.0,0.0,0.0,0.0,0.0,0.0,0.0,0.0,0.0,0.0,0.0,0.0,0.0,0.0,0.0,0.0,0.0,0.0,0.0,0.0,0.0,0.0,0.0,0.0,0.0,0.0,0.0,0.0,0.0,0.0,0.0,0.0,0.0,0.0,0.0,0.0,0.0,0.0,0.0,0.0,0.0,0.0,0.0,0.0,0.0,0.0,0.0,0.0,0.0,0.0,0.0,0.0,0.0,0.0,0.0,0.0,0.0,0.0,0.0,0.0,0.0,0.0,0.0,0.0,0.0,0.0,0.0,0.0,0.0,0.0,0.0,0.0,0.0,0.0,0.0,0.0,0.0,0.0,0.0,0.0,0.0,0.0,0.0,0.0,0.0,0.0,0.0,0.0,0.0,0.0,0.0,0.0,0.0,0.0,0.0,0.0,0.0,1.0213,1.151,1.2396,1.2689,1.1141,1.0244,1.0094,0.0,0.0,0.0,0.0,0.0,0.0,0.0,0.0,0.0,0.0,0.0,0.0,0.0,0.0,0.0,0.0,0.0,0.0,0.0,0.0,0.0,0.0,0.0,0.0,0.0,0.0,0.0,0.0,0.0,0.0,0.0,0.0,0.0,0.0,0.0,0.0,0.0,0.0,0.0,0.0,0.0,0.0,0.0,0.0,0.0,0.0,0.0,0.0,0.0,0.0,0.0,0.0,0.0,0.0,0.0,0.0,0.0,0.0,0.0,0.0,0.0,0.0,0.0,0.0,0.0,0.0,0.0,0.0,0.0,0.0,0.0,0.0,0.0,0.0,0.0,0.0,0.0,0.0,0.0,0.0,0.0,0.0,0.0,0.0,0.0,0.0,0.0,0.0,0.0,0.0,0.0,0.0,0.0,0.0,0.0,0.0,0.0,0.0,0.0,0.0,0.0,0.0,0.0,0.0,0.0,0.0,0.0,0.0,1.3323,1.4472,1.4563,1.3482,1.2847,1.1507,0.0,0.0,0.0,0.0,0.0,0.0,0.0,0.0,0.0,0.0,0.0,0.0,0.0,0.0,0.0,0.0,0.0,0.0,0.0,0.0,0.0,0.0,0.0,0.0,0.0,0.0,0.0,0.0,0.0,0.0,0.0,0.0,0.0,0.0,0.0,0.0,0.0,0.0,0.0,0.0,0.0,0.0,0.0,0.0,0.0,0.0,0.0,0.0,0.0,0.0,0.0,0.0,0.0,0.0,0.0,0.0,0.0,0.0,0.0,0.0,0.0,0.0,0.0,0.0,0.0,0.0,0.0,0.0,0.0,0.0,0.0,0.0,0.0,0.0,0.0,0.0,0.0,0.0,0.0,0.0,0.0,0.0,0.0,0.0,0.0,0.0,0.0,0.0,0.0,0.0,0.0,0.0,0.0,0.0,0.0,0.0,0.0,0.0,0.0,0.0,0.0,0.0,0.0,0.0,0.0,0.0,0.0,0.0,0.0,1.5015,1.6547,1.701,1.6306,1.4582,1.3166,0.0,0.0,0.0,0.0,0.0,0.0,0.0,0.0,0.0,0.0,0.0,0.0,0.0,0.0,0.0,0.0,0.0,0.0,0.0,0.0,0.0,0.0,0.0,0.0,0.0,0.0,0.0,0.0,0.0,0.0,0.0,0.0,0.0,0.0,0.0,0.0,0.0,0.0,0.0,0.0,0.0,0.0,0.0,0.0,0.0,0.0,0.0,0.0,0.0,0.0,0.0,0.0,0.0,0.0,0.0,0.0,0.0,0.0,0.0,0.0,0.0,0.0,0.0,0.0,0.0,0.0,0.0,0.0,0.0,0.0,0.0,0.0,0.0,0.0,0.0,0.0,0.0,0.0,0.0,0.0,0.0,0.0,0.0,0.0,0.0,0.0,0.0,0.0,0.0,0.0,0.0,0.0,0.0,0.0,0.0,0.0,0.0,0.0,0.0,0.0,0.0,0.0,0.0,0.0,0.0,0.0,0.0,0.0,1.4638,1.6382,1.804,1.8719,1.8405,1.6267,1.4488,0.0,0.0,0.0,0.0,0.0,0.0,0.0,0.0,0.0,0.0,0.0,0.0,0.0,0.0,0.0,0.0,0.0,0.0,0.0,0.0,0.0,0.0,0.0,0.0,0.0,0.0,0.0,0.0,0.0,0.0,0.0,0.0,0.0,0.0,0.0,0.0,0.0,0.0,0.0,0.0,0.0,0.0,0.0,0.0,0.0,0.0,0.0,0.0,0.0,0.0,0.0,0.0,0.0,0.0,0.0,0.0,0.0,0.0,0.0,0.0,0.0,0.0,0.0,0.0,0.0,0.0,0.0,0.0,0.0,0.0,0.0,0.0,0.0,0.0,0.0,0.0,0.0,0.0,0.0,0.0,0.0,0.0,0.0,0.0,0.0,0.0,0.0,0.0,0.0,0.0,0.0,0.0,0.0,0.0,0.0,0.0,0.0,0.0,0.0,0.0,0.0,0.0,0.0,0.0,0.0,0.0,0.0,0.0,1.6306,1.7549,1.9095,1.9886,1.9836,1.7752,1.5597,0.0,0.0,0.0,0.0,0.0,0.0,0.0,0.0,0.0,0.0,0.0,0.0,0.0,0.0,0.0,0.0,0.0,0.0,0.0,0.0,0.0,0.0,0.0,0.0,0.0,0.0,0.0,0.0,0.0,0.0,0.0,0.0,0.0,0.0,0.0,0.0,0.0,0.0,0.0,0.0,0.0,0.0,0.0,0.0,0.0,0.0,0.0,0.0,0.0,0.0,0.0,0.0,0.0,0.0,0.0,0.0,0.0,0.0,0.0,0.0,0.0,0.0,0.0,0.0,0.0,0.0,0.0,0.0,0.0,0.0,0.0,0.0,0.0,0.0,0.0,0.0,0.0,0.0,0.0,0.0,0.0,0.0,0.0,0.0,0.0,0.0,0.0,0.0,0.0,0.0,0.0,0.0,0.0,0.0,0.0,0.0,0.0,0.0,0.0,0.0,0.0,0.0,0.0,0.0,0.0,0.0,0.0,0.0,1.6661,1.8619,1.9874,2.0529,2.0515,1.8366,1.6583,0.0,0.0,0.0,0.0,0.0,0.0,0.0,0.0,0.0,0.0,0.0,0.0,0.0,0.0,0.0,0.0,0.0,0.0,0.0,0.0,0.0,0.0,0.0,0.0,0.0,0.0,0.0,0.0,0.0,0.0,0.0,0.0,0.0,0.0,0.0,0.0,0.0,0.0,0.0,0.0,0.0,0.0,0.0,0.0,0.0,0.0,0.0,0.0,1.3951,0.0,0.0,0.0,0.0,0.0,0.0,0.0,0.0,0.0,0.0,0.0,0.0,0.0,0.0,0.0,0.0,0.0,0.0,0.0,0.0,0.0,0.0,0.0,0.0,0.0,0.0,0.0,0.0,0.0,0.0,0.0,0.0,0.0,0.0,0.0,0.0,0.0,0.0,0.0,0.0,0.0,0.0,0.0,0.0,0.0,0.0,0.0,0.0,0.0,0.0,0.0,0.0,0.0,0.0,0.0,0.0,0.0,0.0,0.0,1.7702,1.9346,2.0502,2.0929,2.0641,1.9296,1.7638,0.0,0.0,0.0,0.0,0.0,0.0,0.0,0.0,0.0,0.0,0.0,0.0,0.0,0.0,0.0,0.0,0.0,0.0,0.0,0.0,0.0,0.0,0.0,0.0,0.0,0.0,0.0,0.0,0.0,0.0,0.0,0.0,0.0,0.0,0.0,0.0,0.0,0.0,0.0,0.0,0.0,0.0,0.0,0.0,0.0,0.0,0.0,0.0,0.0,0.0,0.0,0.0,0.0,0.0,0.0,0.0,0.0,0.0,0.0,0.0,0.0,0.0,0.0,0.0,0.0,0.0,0.0,0.0,0.0,0.0,0.0,0.0,0.0,0.0,0.0,0.0,0.0,0.0,0.0,0.0,0.0,0.0,0.0,0.0,0.0,0.0,0.0,0.0,0.0,0.0,0.0,0.0,0.0,0.0,0.0,0.0,0.0,0.0,0.0,0.0,0.0,0.0,0.0,0.0,0.0,0.0,0.0,1.6561,1.8681,2.0124,2.1117,2.1382,2.0831,2.0251,1.8656,1.5944,0.0,0.0,0.0,0.0,0.0,0.0,0.0,0.0,0.0,0.0,0.0,0.0,0.0,0.0,0.0,0.0,0.0,0.0,0.0,0.0,0.0,0.0,0.0,0.0,0.0,0.0,0.0,0.0,0.0,0.0,0.0,0.0,0.0,0.0,0.0,0.0,0.0,0.0,1.2598,1.4683,0.0,0.0,0.0,0.0,0.0,0.0,0.0,0.0,1.5522,0.0,0.0,0.0,0.0,0.0,0.0,0.0,0.0,0.0,0.0,0.0,0.0,0.0,0.0,0.0,0.0,0.0,0.0,0.0,0.0,0.0,0.0,0.0,0.0,0.0,0.0,0.0,0.0,0.0,0.0,0.0,0.0,0.0,0.0,0.0,0.0,0.0,0.0,0.0,0.0,0.0,0.0,0.0,0.0,0.0,0.0,0.0,0.0,0.0,0.0,0.0,0.0,0.0,0.0,0.0,0.0,1.6633,1.6762,1.8431,2.178,2.2071,2.192,2.1382,2.0842,1.9246,1.6511,0.0,0.0,0.0,0.0,0.0,0.0,0.0,0.0,0.0,0.0,0.0,0.0,0.0,0.0,0.0,0.0,0.0,0.0,0.0,0.0,0.0,0.0,0.0,0.0,0.0,0.0,0.0,0.0,0.0,0.0,0.0,0.0,0.0,0.0,0.0,0.0,0.0,0.0,0.0,1.7093,1.7886,0.0,0.0,0.0,0.0,0.0,0.0,0.0,0.0,1.6241,0.0,0.0,0.0,0.0,0.0,0.0,0.0,0.0,0.0,0.0,0.0,0.0,0.0,0.0,0.0,0.0,0.0,0.0,0.0,0.0,0.0,0.0,0.0,0.0,0.0,0.0,0.0,0.0,0.0,0.0,0.0,0.0,0.0,0.0,0.0,0.0,0.0,0.0,0.0,0.0,0.0,0.0,0.0,0.0,0.0,0.0,0.0,0.0,0.0,0.0,0.0,0.0,0.0,0.0,0.0,1.6367,1.7928,1.9836,2.2207,2.2583,2.2332,2.1507,2.0678,1.907,0.0,0.0,0.0,0.0,0.0,0.0,0.0,0.0,0.0,0.0,0.0,0.0,0.0,0.0,0.0,0.0,0.0,0.0,0.0,0.0,0.0,0.0,0.0,0.0,0.0,0.0,0.0,0.0,0.0,0.0,0.0,0.0,0.0,0.0,0.0,0.0,0.0,0.0,0.0,0.0,1.8805,1.9492,2.0139,0.0,0.0,0.0,0.0,0.0,0.0,1.7873,1.7116,0.0,0.0,0.0,0.0,0.0,0.0,0.0,0.0,0.0,0.0,0.0,0.0,0.0,0.0,0.0,0.0,0.0,0.0,0.0,0.0,0.0,0.0,0.0,0.0,0.0,0.0,0.0,0.0,0.0,0.0,0.0,0.0,0.0,0.0,0.0,0.0,0.0,0.0,0.0,0.0,0.0,0.0,0.0,0.0,0.0,0.0,0.0,0.0,0.0,0.0,0.0,0.0,0.0,0.0,0.0,1.5844,1.8819,2.1041,2.2408,2.2895,2.2583,2.1518,2.0388,1.8756,0.0,0.0,0.0,0.0,0.0,0.0,0.0,0.0,0.0,0.0,0.0,0.0,0.0,0.0,0.0,0.0,0.0,0.0,0.0,0.0,0.0,0.0,0.0,0.0,0.0,0.0,0.0,0.0,0.0,0.0,0.0,0.0,0.0,0.0,0.0,0.0,0.0,0.0,0.0,0.0,0.0,2.1236,2.1116,2.0518,0.0,0.0,0.0,0.0,2.0157,1.9711,0.0,0.0,0.0,0.0,0.0,0.0,0.0,0.0,0.0,0.0,0.0,0.0,0.0,0.0,0.0,0.0,0.0,0.0,0.0,0.0,0.0,0.0,0.0,0.0,0.0,0.0,0.0,0.0,0.0,0.0,0.0,0.0,0.0,0.0,0.0,0.0,0.0,0.0,0.0,0.0,0.0,0.0,0.0,0.0,0.0,0.0,0.0,0.0,0.0,0.0,0.0,0.0,0.0,0.0,0.0,0.0,1.63,1.8242,2.045,2.2869,2.307,2.2608,2.1532,2.0388,1.8744,0.0,0.0,0.0,0.0,0.0,0.0,0.0,0.0,0.0,0.0,0.0,0.0,0.0,0.0,0.0,0.0,0.0,0.0,0.0,0.0,0.0,0.0,0.0,0.0,0.0,0.0,0.0,0.0,0.0,0.0,0.0,0.0,0.0,0.0,0.0,0.0,0.0,0.0,0.0,0.0,0.0,2.3071,2.2543,2.1914,2.1435,0.0,0.0,0.0,2.2354,2.365,0.0,0.0,0.0,0.0,0.0,0.0,0.0,0.0,0.0,0.0,0.0,0.0,0.0,0.0,0.0,0.0,0.0,0.0,0.0,0.0,0.0,0.0,0.0,0.0,0.0,0.0,0.0,0.0,0.0,0.0,0.0,0.0,0.0,0.0,0.0,0.0,0.0,0.0,0.0,0.0,0.0,0.0,0.0,0.0,0.0,0.0,0.0,0.0,0.0,0.0,0.0,0.0,0.0,0.0,0.0,1.3557,1.645,1.907,2.1292,2.302,2.3095,2.2569,2.1532,2.0112,1.8318,0.0,0.0,0.0,0.0,0.0,0.0,0.0,0.0,0.0,0.0,0.0,0.0,0.0,0.0,0.0,0.0,0.0,0.0,0.0,0.0,0.0,0.0,0.0,0.0,0.0,0.0,0.0,0.0,0.0,0.0,0.0,0.0,0.0,0.0,0.0,0.0,0.0,0.0,0.0,0.0,0.0,0.0,2.3281,2.361,0.0,0.0,0.0,2.3392,2.2393,0.0,0.0,0.0,0.0,0.0,0.0,0.0,0.0,0.0,0.0,0.0,0.0,0.0,0.0,0.0,0.0,0.0,0.0,0.0,0.0,0.0,0.0,0.0,0.0,0.0,0.0,0.0,0.0,0.0,0.0,0.0,0.0,0.0,0.0,0.0,0.0,0.0,0.0,0.0,0.0,0.0,0.0,0.0,0.0,0.0,0.0,0.0,0.0,0.0,0.0,0.0,0.0,0.0,0.0,0.0,0.0,0.0,1.6701,1.9874,2.202,2.307,2.3095,2.2608,2.1532,2.0149,0.0,0.0,0.0,0.0,0.0,0.0,0.0,0.0,0.0,0.0,0.0,0.0,0.0,0.0,0.0,0.0,0.0,0.0,0.0,0.0,0.0,0.0,0.0,0.0,0.0,0.0,0.0,0.8453,0.0,0.0,0.0,0.0,0.0,0.0,0.0,0.0,0.0,0.0,0.0,0.0,0.0,0.0,2.4568,2.3787,2.467,2.5026,0.0,0.0,2.4292,2.3248,2.4632,2.4785,0.0,0.0,0.0,0.0,0.0,0.0,0.0,0.0,0.0,0.0,0.0,0.0,0.0,0.0,0.0,0.0,0.0,0.0,0.0,0.0,0.0,0.0,0.0,0.0,0.0,0.0,0.0,0.0,0.0,0.0,0.0,0.0,0.0,0.0,0.0,0.0,0.0,0.0,0.0,0.0,0.0,0.0,0.0,0.0,0.0,0.0,0.0,0.0,0.0,0.0,0.0,0.0,0.0,0.0,0.0,1.7311,2.01,2.202,2.3045,2.3095,2.2583,2.1532,2.0879,1.9032,0.0,0.0,0.0,0.0,0.0,0.0,0.0,0.0,0.0,0.0,0.0,0.0,0.0,0.0,0.0,0.0,0.0,0.0,0.0,0.0,0.0,0.0,0.0,0.0,0.0,0.0,0.0,0.0,0.0,0.0,0.0,0.0,0.0,0.0,0.0,0.0,0.0,0.0,0.0,0.0,0.0,2.5124,2.4032,2.4498,2.5273,0.0,0.0,2.5203,2.6134,2.786,2.7654,2.3193,0.0,0.0,0.0,0.0,0.0,0.0,0.0,0.0,0.0,0.0,0.0,0.0,0.0,0.0,0.0,0.0,0.0,0.0,0.0,0.0,0.0,0.0,0.0,0.0,0.0,0.0,0.0,0.0,0.0,0.0,0.0,0.0,0.0,0.0,0.0,0.0,0.0,0.0,0.0,0.0,0.0,0.0,0.0,0.0,0.0,0.0,0.0,0.0,0.0,0.0,0.0,0.0,0.0,1.4585,1.7373,2.0125,2.202,2.3045,2.3095,2.2759,2.2006,2.1169,1.9284,0.0,0.0,0.0,0.0,0.0,0.0,0.0,0.0,0.0,0.0,0.0,0.0,0.0,0.0,0.0,0.0,0.0,0.0,0.0,0.0,0.0,0.0,0.0,0.0,0.0,0.0,0.0,0.0,1.2089,1.2437,1.2522,0.0,0.0,0.0,0.0,0.0,0.0,0.0,0.0,0.0,0.0,2.5394,2.5966,2.6651,0.0,0.0,2.6895,2.6575,2.5267,2.6279,2.6008,2.2379,2.094,0.0,0.0,0.0,0.0,0.0,0.0,0.0,0.0,0.0,0.0,0.0,0.0,0.0,0.0,0.0,0.0,0.0,0.0,0.0,0.0,0.0,0.0,0.0,0.0,0.0,0.0,0.0,0.0,0.0,0.0,0.0,0.0,0.0,0.0,0.0,0.0,0.0,0.0,0.0,0.0,0.0,0.0,0.0,0.0,0.0,0.0,0.0,0.0,0.0,0.0,0.0,0.0,1.4743,1.751,2.0109,2.1949,2.302,2.3065,2.2844,2.2307,2.1407,1.9698,0.0,0.0,0.0,0.0,0.0,0.0,0.0,0.0,0.0,0.0,0.0,0.0,0.0,0.0,0.0,0.0,0.0,0.0,0.0,0.0,0.0,0.0,0.0,0.0,0.0,0.0,0.0,0.0,1.3064,1.3184,1.2836,0.0,0.0,0.0,0.0,0.0,0.0,0.0,0.0,0.0,0.0,2.566,2.6573,2.7215,2.7339,2.6547,2.6662,2.6254,2.4624,2.5062,2.471,2.2217,0.0,0.0,0.0,0.0,0.0,0.0,0.0,0.0,0.0,0.0,0.0,0.0,0.0,0.0,0.0,0.0,0.0,0.0,0.0,0.0,0.0,0.0,0.0,0.0,0.0,0.0,0.0,0.0,0.0,0.0,0.0,0.0,0.0,0.0,0.0,0.0,0.0,0.0,0.0,0.0,0.0,0.0,0.0,0.0,0.0,0.0,0.0,0.0,0.0,0.0,0.0,0.0,0.0,0.0,1.7773,2.0135,2.183,2.2859,2.302,2.2844,2.2332,2.1769,2.0452,1.8192,0.0,0.0,0.0,0.0,0.0,0.0,0.0,0.0,0.0,0.0,0.0,0.0,0.0,0.0,0.0,0.0,0.0,0.0,0.0,0.0,0.0,0.0,0.0,0.0,0.0,0.0,1.2726,1.2587,1.2243,0.0,0.0,0.0,0.0,0.0,0.0,0.0,0.0,0.0,0.0,2.3836,2.6047,2.5218,2.5546,2.5965,2.5892,2.4495,2.3776,2.4835,2.497,2.454,0.0,0.0,0.0,0.0,0.0,0.0,0.0,0.0,0.0,0.0,0.0,0.0,0.0,0.0,0.0,0.0,0.0,0.0,0.0,0.0,0.0,0.0,0.0,0.0,0.0,0.0,0.0,0.0,1.014,0.0,0.0,0.0,0.0,0.0,0.0,0.0,0.0,0.0,0.0,0.0,1.618,1.6496,0.0,0.0,0.0,0.0,0.0,0.0,0.0,0.0,0.0,0.0,0.0,0.0,1.5438,1.7798,2.0346,2.1987,2.2757,2.2894,2.2885,2.2695,2.2264,2.084,1.8279,0.0,0.0,0.0,0.0,0.0,0.0,0.0,0.0,0.0,0.0,0.0,0.0,0.0,0.0,0.0,0.0,0.0,0.0,0.0,0.0,0.0,0.0,0.0,0.0,0.0,1.2727,0.0,0.0,0.0,0.0,0.0,0.0,0.0,0.0,0.0,0.0,0.0,2.0003,2.2371,2.3614,2.4575,2.5395,2.6049,2.6661,0.0,0.0,0.0,0.0,0.0,0.0,0.0,0.0,0.0,0.0,0.0,0.0,0.0,0.0,2.1965,1.9009,1.8524,1.8873,1.9736,0.0,0.0,0.0,0.0,0.0,0.0,0.0,0.0,0.0,0.0,0.0,0.0,0.0,0.0,0.0,0.0,1.1728,0.0,0.0,0.0,0.0,0.0,0.0,0.0,0.0,1.711,1.8109,1.8609,1.9076,1.8796,0.0,1.758,1.5978,0.0,0.0,0.0,0.0,0.0,0.0,0.0,0.0,1.596,1.7946,2.0451,2.202,2.2564,2.2787,2.2894,2.2869,2.251,2.1178,1.8832,1.6669,1.4984,0.0,0.0,0.0,0.0,0.0,0.0,0.0,0.0,0.0,0.0,0.0,0.0,0.0,0.0,0.0,0.0,0.0,0.0,0.0,0.0,0.0,0.0,0.0,1.3652,0.0,0.0,0.0,0.0,0.0,0.0,0.0,0.0,0.0,1.8845,1.9871,2.1449,2.3962,2.471,2.5145,2.5484,0.0,0.0,0.0,0.0,0.0,0.0,0.0,2.4178,2.3434,2.321,2.3414,2.4397,2.5488,2.6191,2.6009,0.0,0.0,2.2076,2.1666,2.212,2.2975,2.4024,2.5121,2.6087,2.7102,2.7934,0.0,0.0,0.0,0.0,0.0,0.0,0.0,0.0,1.4315,1.4571,0.0,1.4138,0.0,0.0,0.0,0.0,0.0,0.0,0.0,0.0,2.0337,2.1362,2.0893,2.1242,2.1446,0.0,2.0865,1.9844,1.8218,1.5279,0.0,0.0,0.0,0.0,0.0,0.0,1.6737,1.8314,2.056,2.1943,2.2469,2.2776,2.2918,2.2909,2.2535,2.1543,1.9936,1.8807,1.725,1.5155,1.3442,0.0,0.0,0.0,0.0,0.0,0.0,0.0,0.0,0.0,0.0,0.0,0.0,0.0,0.0,0.0,0.0,0.0,0.0,0.0,0.0,1.3966,0.0,0.0,0.0,0.0,0.0,0.0,0.0,0.0,0.0,0.0,2.0505,2.2497,2.4282,2.4861,0.0,0.0,0.0,0.0,2.6932,2.5463,2.4674,2.4529,2.516,2.6091,2.6729,2.6745,0.0,0.0,2.7794,2.7637,2.7575,2.7033,2.7897,2.8011,2.6321,2.5784,2.5697,2.5769,2.6324,2.6839,2.7434,2.8936,2.9836,1.7312,0.0,0.0,0.0,0.0,1.5814,1.6482,1.7506,1.7825,1.7606,1.6942,1.6219,0.0,0.0,0.0,0.0,0.0,0.0,1.8521,1.9489,2.0657,2.1509,2.2095,2.2496,2.2675,2.2667,2.2424,2.2069,2.1587,2.0336,1.7388,1.2929,0.0,0.0,0.0,0.0,1.8338,1.9923,2.2051,2.3305,2.3563,2.3405,2.3229,2.3045,2.2554,2.2096,2.1594,2.0137,1.8882,1.7841,1.5869,0.0,0.0,0.0,0.0,0.0,0.0,0.0,0.0,0.0,0.0,0.0,0.0,0.0,0.0,0.0,0.0,0.0,0.0,0.0,1.3966,1.4803,1.5238,0.0,0.0,0.0,0.0,0.0,0.0,0.0,0.0,0.0,2.4587,2.37,2.3249,0.0,0.0,2.5077,2.4439,2.6148,2.7637,2.8011,0.0,0.0,0.0,2.8508,2.8054,2.8499,2.9658,3.0391,3.0059,3.066,3.1156,3.0992,3.1254,3.1209,3.0432,2.9153,2.839,2.8599,2.9597,3.0815,3.1861,3.2792,3.3353,2.084,1.9065,1.8077,1.7914,1.8344,1.8543,1.9291,2.0432,2.0619,2.0537,2.0189,1.9124,1.8049,1.698,1.6037,0.0,0.0,0.0,2.0037,2.1541,2.1885,2.2558,2.3541,2.3784,2.3883,2.3851,2.3551,2.3401,2.337,2.2783,2.037,0.0,0.0,0.0,1.6544,1.8446,2.0043,2.126,2.2911,2.3827,2.3943,2.3659,2.3455,2.3339,2.2865,2.2533,2.2307,2.1343,2.0325,1.9346,1.7841,1.6019,0.0,0.0,0.0,0.0,0.0,0.0,0.0,0.0,0.0,0.0,0.0,1.0208,0.0,0.0,0.0,0.0,1.2957,1.4358,1.584,1.632,0.0,0.0,0.0,0.0,0.0,0.0,0.0,2.1172,2.3431,2.5401,2.6791,2.5944,2.5563,2.6687,2.6844,2.6671,2.6216,0.0,2.9048,2.9562,2.9614,2.9954,3.0835,3.0495,3.0364,3.1201,3.1862,3.2333,3.2359,3.2934,3.3352,3.3378,3.3352,3.33,3.3044,3.2071,3.1235,3.1209,3.177,3.2659,3.3631,3.4382,3.4867,2.3328,2.308,2.0573,1.9761,2.0069,2.0212,2.1123,2.249,2.2679,2.3124,2.3536,2.2328,2.1494,2.096,1.926,0.0,0.0,2.0369,2.1584,2.359,2.3631,2.4141,2.4949,2.4929,2.4877,2.4808,2.431,2.4035,2.3968,2.3394,2.2167,2.0454,2.0634,2.037,1.9726,2.0792,2.1653,2.2183,2.3256,2.3818,2.3875,2.3676,2.3621,2.3672,2.3304,2.2844,2.2332,2.2257,2.1504,1.9962,1.9321,1.8042,1.5929,0.0,0.0,0.0,0.0,0.0,0.0,0.0,0.0,0.0,0.0,0.0,0.0,0.0,0.0,0.0,1.564,0.0,1.827,1.8375,0.0,0.0,0.0,1.9879,2.1668,2.2857,2.3968,2.507,0.0,0.0,0.0,0.0,2.9946,3.1123,3.1071,3.0547,2.9501,3.0312,3.094,3.044,3.0414,3.0667,3.1418,3.2123,3.2986,3.3901,3.4397,3.4267,3.4267,3.4293,3.4371,3.4319,3.4397,3.4371,3.4371,3.4214,3.4188,3.343,3.3084,3.3026,3.3624,3.4273,3.4687,2.4198,2.4136,2.3495,2.2894,2.2416,2.2591,2.2897,2.325,2.3448,2.3437,2.3219,2.305,2.2809,2.2495,2.2371,2.2517,2.2809,2.3238,2.3738,2.4232,2.4273,2.4403,2.4623,2.4854,2.4709,2.4246,2.4542,2.4428,2.3933,2.3905,2.3401,2.2377,2.2043,2.0644,1.8377,2.0314,2.1646,2.2126,2.3227,2.4037,2.4534,2.4362,2.4087,2.3738,2.3304,2.2844,2.2322,2.192,2.1331,2.0515,1.956,1.8381,1.7035,1.4478,0.0,0.0,0.0,0.0,0.0,0.0,0.0,0.0,0.0,1.3427,1.054,0.0,1.5588,0.0,1.7863,1.9967,2.061,2.0689,0.0,0.0,2.21,2.2414,2.4529,2.5782,2.6576,2.688,2.8421,2.9813,3.0675,3.1014,3.179,3.3326,3.1686,3.0223,2.9988,3.1287,3.2254,3.2176,3.2751,3.343,3.3483,3.3796,3.4058,3.4345,3.4397,3.4397,3.4397,3.4397,3.4397,3.4397,3.4397,3.4397,3.4424,3.4397,3.4345,3.4162,3.4058,3.4031,3.4209,3.4374,3.4509,2.4998,2.5108,2.5108,2.4612,2.3805,2.3909,2.4012,2.4136,2.426,2.4194,2.4019,2.4048,2.3898,2.3659,2.3589,2.3561,2.3561,2.3879,2.3954,2.3882,2.4187,2.4273,2.4198,2.4156,2.3969,2.3617,2.39,2.3875,2.3524,2.3884,2.3645,2.288,2.3064,2.165,1.8862,2.0175,2.1213,2.1753,2.3074,2.4189,2.4974,2.4531,2.405,2.3562,2.2964,2.2324,2.1619,2.1306,2.0778,1.9974,1.9334,1.8518,1.7437,1.5467,1.3977,0.0,0.0,0.0,0.0,0.0,0.0,0.0,0.0,0.0,0.0,0.0,1.7235,0.0,0.0,0.0,2.2256,2.2961,2.3902,2.5118,2.5134,2.5866,2.7889,2.8891,2.9526,2.9779,3.0921,3.1895,3.2522,3.2809,3.3279,3.4293,3.3038,3.2026,3.2078,3.2881,3.3477,3.3503,3.4005,3.4397,3.4397,3.4397,3.4397,3.4397,3.4397,3.4397,3.4397,3.4397,3.4397,3.4397,3.4397,3.4528,3.4816,3.4868,3.492,3.5312,3.5286,3.5077,3.4842,3.502,3.5155,2.524,2.5424,2.5469,2.5019,2.4262,2.4262,2.4377,2.4513,2.4407,2.4554,2.4872,2.4745,2.4633,2.4535,2.3904,2.3597,2.3597,2.3597,2.3494,2.3316,2.3865,2.4009,2.3759,2.3387,2.3124,2.3046,2.3026,2.2994,2.29,2.3471,2.3368,2.2615,2.3381,2.2494,2.0035,2.0145,2.0624,2.1389,2.288,2.4126,2.5059,2.4209,2.3546,2.3168,2.2362,2.1492,2.0628,2.0591,2.01,1.9083,1.907,1.8669,1.775,1.6644,1.5613,0.0,1.3604,0.0,0.0,0.0,0.0,0.0,0.0,0.0,0.0,1.8349,1.9304,2.0361,2.2949,2.4346,2.3902,2.5364,2.6618,2.7304,2.822,2.9475,3.1018,3.1686,3.2235,3.2751,3.3346,3.3692,3.3692,3.411,3.4397,3.4397,3.4293,3.4136,3.4319,3.4293,3.4319,3.4397,3.4397,3.4397,3.4397,3.4397,3.4397,3.4397,3.4397,3.4424,3.4554,3.4528,3.4554,3.4633,3.4685,3.4894,3.5569,3.5495,3.5678,3.631,3.6305,3.5992,3.5574,3.5704,3.607,2.2939,2.3009,2.3196,2.3215,2.3042,2.3042,2.2831,2.2403,2.1718,2.2123,2.3276,2.384,2.4391,2.4891,2.4759,2.4692,2.4692,2.4692,2.4507,2.4135,2.4289,2.4149,2.382,2.3714,2.3391,2.2875,2.3006,2.2795,2.2301,2.2761,2.256,2.1751,2.1747,2.1135,0.0,0.0,0.0,0.0,2.2474,2.3246,2.4001,2.2849,2.2172,2.208,2.1386,0.0,2.0012,1.9974,1.9685,1.9058,1.9422,0.0,0.0,0.0,0.0,0.0,0.0,0.0,0.0,0.0,0.0,0.0,2.0767,2.0454,1.9487,2.1551,2.3263,2.3997,2.573,2.7027,2.7383,2.8551,2.9709,3.0701,3.1014,3.1477,3.2306,3.2881,3.33,3.3404,3.3921,3.4241,3.4241,3.4345,3.4397,3.4397,3.4397,3.4397,3.4424,3.4424,3.4397,3.4397,3.4476,3.4424,3.4397,3.445,3.4502,3.4397,3.4397,3.4607,3.5025,3.5103,3.5312,3.5626,3.5804,3.5783,3.5992,3.5966,3.6018,3.6201,3.6567,3.6671,3.6096,3.6044,3.6096,2.2869,0.0,2.3281,2.3116,0.0,0.0,2.1705,2.1025,2.1471,2.2102,2.296,2.3353,2.3913,2.4562,2.3855,2.3657,2.3904,2.3494,2.324,2.3079,2.3435,2.353,2.3345,2.3345,2.3069,2.2565,2.2655,2.243,2.195,2.2264,2.2277,2.1945,2.1969,2.1731,2.1191,2.0801,2.1013,2.1848,2.2798,2.3594,2.4249,2.3873,2.3448,2.2987,0.0,0.0,0.0,0.0,0.0,0.0,0.0,0.0,0.0,0.0,0.0,1.9422,1.917,1.9497,2.0579,2.1222,2.2026,2.3144,2.4021,2.389,2.2492,2.4465,2.6018,2.6651,2.8246,2.9353,2.9684,3.0712,3.1608,3.2182,3.2522,3.2914,3.3456,3.3817,3.3979,3.4026,3.4214,3.4397,3.4397,3.4397,3.4397,3.4424,3.4685,3.4842,3.4842,3.4842,3.492,3.5182,3.5234,3.5234,3.5234,3.5234,3.5234,3.5234,3.5234,3.5365,3.5626,3.5704,3.5809,3.6044,3.6096,3.6175,3.6488,3.6541,3.6645,3.6933,3.7246,3.7377,3.7037,3.6985,3.6985,2.286,2.3085,2.3384,2.3102,2.2327,2.1648,2.0948,2.0338,0.0,0.0,0.0,2.2797,2.3278,2.3945,2.2773,2.2516,2.2996,2.2372,2.2042,2.2043,2.2648,2.2922,2.2895,2.2889,2.273,2.24,2.2405,2.2181,2.1837,2.2065,2.2273,2.2419,2.2662,2.273,2.2596,2.2285,2.2086,2.2098,2.3185,2.4059,2.4631,2.5117,2.4978,2.4091,2.3337,2.254,2.1669,2.1206,2.0753,2.0275,2.0325,2.0388,2.04,2.0954,2.1306,2.1446,2.182,2.2503,2.3416,2.431,2.5107,2.5777,2.6634,2.6798,2.5944,2.7167,2.8238,2.8935,3.0417,3.1287,3.1332,3.2247,3.2901,3.3006,3.343,3.3901,3.4319,3.4397,3.4371,3.4397,3.4397,3.4397,3.4397,3.4528,3.4554,3.4633,3.5077,3.5495,3.5547,3.5521,3.5574,3.5913,3.594,3.6044,3.607,3.6044,3.6096,3.6018,3.6044,3.6123,3.6227,3.6253,3.6305,3.6515,3.6436,3.6671,3.7063,3.7168,3.7351,3.7821,3.79,3.79,3.79,3.79,3.7848,2.0611,2.0637,2.1139,2.1278,2.1147,2.102,2.0921,2.0767,2.0451,2.0563,2.1071,2.1644,2.2464,2.3415,2.3227,2.3437,2.3974,2.3888,2.3649,0.0,2.3362,2.3209,2.2889,2.2889,2.2876,2.2821,2.2821,2.2602,2.2282,2.2473,2.2531,2.2457,2.2662,2.2884,2.3003,2.2967,2.2912,2.2906,2.2954,2.335,2.4096,2.4338,2.4222,2.364,2.3297,2.2804,2.2207,2.2132,2.2031,2.197,2.2408,2.2644,2.2669,2.3185,2.3753,2.4189,2.429,2.4872,2.6045,2.6032,2.6881,2.8878,2.9003,2.9057,2.9361,2.9578,3.0179,3.1197,3.1993,3.2463,3.2509,3.3084,3.3639,3.4052,3.4214,3.4319,3.4397,3.4397,3.4397,3.4397,3.4397,3.4397,3.4476,3.4842,3.5129,3.5234,3.5652,3.6149,3.6515,3.6305,3.6044,3.607,3.6096,3.6096,3.6227,3.6123,3.6201,3.6096,3.6149,3.631,3.6802,3.6828,3.6959,3.7508,3.7456,3.756,3.7691,3.7769,3.7769,3.7874,3.79,3.79,3.79,3.79,3.79,2.0112,2.0163,2.0678,2.0899,2.0899,2.0899,2.0899,2.0867,2.0591,2.0582,2.083,2.1137,2.1878,2.2785,2.241,2.2675,2.3468,2.3052,2.2955,2.3169,2.3169,2.334,2.3584,2.3602,2.3468,2.3242,2.3224,2.3023,2.2662,2.276,2.2903,2.3104,2.3255,2.3268,2.3101,2.3101,2.3101,2.3103,2.3515,2.3982,2.4523,2.5229,2.5559,2.5491,2.5317,2.4954,2.4389,2.4192,2.3979,2.3647,2.3873,2.4164,2.444,2.4716,2.5109,2.5678,2.5988,2.645,2.7127,2.7701,2.8664,3.0136,3.0125,3.0451,3.1425,3.1197,3.138,3.2228,3.2829,3.33,3.3561,3.3895,3.4157,3.4392,3.4397,3.4397,3.4397,3.4397,3.4397,3.4397,3.4397,3.4528,3.4842,3.5129,3.5443,3.5704,3.6227,3.6802,3.7377,3.7246,3.7063,3.7063,3.709,3.709,3.7063,3.7063,3.7063,3.709,3.6802,3.6881,3.7325,3.7273,3.7142,3.7351,3.7429,3.7403,3.7429,3.7403,3.7534,3.7874,3.79,3.79,3.79,3.79,3.7795,2.0112,2.0163,2.0652,2.0899,2.0899,2.0899,2.0899,2.0899,2.0899,2.0899,2.0899,2.0899,2.142,2.219,2.1656,2.1976,2.2816,2.2366,2.2491,2.3156,2.3193,2.3565,2.4165,2.4202,2.4012,2.3688,2.3651,2.3449,2.3078,2.3017,2.3269,2.3677,2.3851,2.3711,2.3259,2.3259,2.3198,2.3144,2.382,2.4407,2.4905,2.5981,2.6769,2.7117,2.7078,2.691,2.6561,2.6286,2.5988,2.5594,2.5544,2.5737,2.6113,2.6163,2.6432,2.6984,2.7311,2.7634,2.7989,2.8973,2.9991,3.0836,3.0984,3.1546,3.2696,3.2613,3.2574,3.3064,3.3509,3.3927,3.4267,3.4371,3.4397,3.4397,3.4397,3.4397,3.4397,3.4397,3.4397,3.4397,3.4502,3.4789,3.5208,3.5521,3.594,3.6488,3.6933,3.7377,3.7795,3.79,3.79,3.79,3.79,3.7848,3.79,3.7848,3.7821,3.79,3.7508,3.7456,3.7691,3.7482,3.7246,3.7299,3.7273,3.7325,3.7246,3.7246,3.7456,3.7821,3.79,3.79,3.79,3.8057,3.7743,2.0112,2.0189,2.0678,2.0899,2.0899,2.0899,2.0899,2.0899,2.0899,2.0899,2.0899,2.0899,2.1216,2.1725,2.1719,2.2248,2.3203,2.3168,2.3446,2.4005,2.4067,2.4128,2.4202,2.4202,2.4183,2.4103,2.4103,2.3859,2.3462,2.3468,2.3547,2.3733,2.4121,2.416,2.3769,2.373,2.3513,2.3101,2.3169,2.3671,2.4553,2.5586,2.6454,2.6984,2.7165,2.7475,2.7819,2.7878,2.7846,2.7795,2.7745,2.7795,2.7828,2.7846,2.8079,2.858,2.8254,2.8321,2.901,2.9606,3.0468,3.1498,3.2006,3.2584,3.3518,3.3908,3.4162,3.4188,3.4267,3.4319,3.4397,3.4397,3.4397,3.4397,3.4397,3.4397,3.445,3.4397,3.4397,3.4397,3.492,3.5234,3.5469,3.6201,3.7011,3.7456,3.7612,3.7743,3.7874,3.79,3.79,3.79,3.79,3.79,3.79,3.79,3.79,3.79,3.7848,3.7795,3.7795,3.7821,3.7795,3.7482,3.7665,3.7639,3.7691,3.7821,3.7769,3.7848,3.7926,3.7926,3.7978,3.8318,3.8057,2.0189,2.0359,2.0745,2.0899,2.0899,2.0899,2.0899,2.0899,2.0899,2.0899,2.0899,2.0899,2.119,2.17,2.17,2.2283,2.327,2.3288,2.3612,2.4152,2.4202,2.4202,2.4202,2.4202,2.4202,2.4202,2.4202,2.411,2.4006,2.4189,2.4323,2.4321,2.464,2.459,2.4199,2.416,2.4062,2.3884,2.3861,2.3949,2.4157,2.4784,2.5794,2.6987,2.7322,2.7678,2.8162,2.8313,2.8294,2.8129,2.8122,2.8247,2.8555,2.8279,2.8348,2.8856,2.9051,2.9516,3.045,3.1004,3.1569,3.2193,3.2714,3.3264,3.3864,3.4105,3.4251,3.4377,3.4397,3.4397,3.4397,3.4397,3.4397,3.4397,3.4397,3.4528,3.4894,3.492,3.5025,3.5338,3.5626,3.594,3.6305,3.7011,3.7586,3.7874,3.79,3.79,3.79,3.79,3.79,3.79,3.79,3.79,3.79,3.79,3.79,3.7848,3.7586,3.7429,3.7795,3.7537,3.7377,3.7403,3.7456,3.7456,3.7325,3.7403,3.7429,3.7743,3.824,3.837,3.8373,3.8817,3.8634,2.0241,2.0514,2.0796,2.0899,2.0899,2.0899,2.0899,2.0899,2.0899,2.0899,2.0899,2.0899,2.1088,2.1445,2.1471,2.2055,2.2995,2.307,2.3488,2.4127,2.4202,2.4202,2.4202,2.4202,2.4202,2.4202,2.4202,2.4202,2.4251,2.4597,2.4771,2.4789,2.5015,2.4968,2.4625,2.459,2.4508,2.4414,2.4414,2.4258,2.4036,2.4299,2.5187,2.6584,2.7048,2.7556,2.8215,2.8444,2.8451,2.8221,2.847,2.8795,2.9142,2.9074,2.9202,2.9578,3.0131,3.0783,3.1587,3.2139,3.2525,3.2744,3.3204,3.362,3.3941,3.4131,3.423,3.4377,3.4528,3.4633,3.4424,3.4554,3.4633,3.4633,3.4763,3.5051,3.5443,3.5521,3.5652,3.6044,3.6227,3.6593,3.7142,3.7612,3.7874,3.79,3.79,3.79,3.79,3.79,3.79,3.79,3.79,3.79,3.79,3.79,3.79,3.7848,3.756,3.7508,3.7821,3.7456,3.7273,3.7586,3.7325,3.7299,3.7482,3.7403,3.7482,3.8031,3.8553,3.8945,3.8972,3.9442,3.9599,2.0241,2.0514,2.0796,2.0899,2.0899,2.0899,2.0899,2.0899,2.0899,2.0899,2.0899,2.0899,2.0925,2.0976,2.1027,2.1547,2.2485,2.2568,2.3163,2.4127,2.4202,2.4202,2.4202,2.4202,2.4202,2.4202,2.4202,2.4202,2.4251,2.4424,2.4652,2.4903,2.5153,2.5208,2.5074,2.5063,2.4848,2.4551,2.4512,2.441,2.4371,2.4401,2.4842,2.554,2.6188,2.7042,2.7999,2.8365,2.8535,2.8492,2.9415,2.9928,3.0039,3.0712,3.111,3.126,3.1738,3.2064,3.2215,3.2692,3.3036,3.3079,3.3377,3.3683,3.3725,3.4115,3.4392,3.4424,3.4925,3.5051,3.4659,3.4999,3.5234,3.5286,3.5704,3.594,3.6048,3.6096,3.607,3.6253,3.6671,3.7168,3.7743,3.7874,3.79,3.79,3.79,3.79,3.79,3.79,3.7952,3.7978,3.8004,3.7926,3.7926,3.79,3.79,3.7874,3.7821,3.7874,3.7874,3.7874,3.7848,3.79,3.7978,3.7955,3.7877,3.7978,3.8187,3.8632,3.9157,3.947,3.9547,4.0017,4.0226,2.037,2.0745,2.0848,2.0899,2.0899,2.0899,2.0899,2.0899,2.0899,2.0899,2.0899,2.0899,2.0899,2.0899,2.1267,2.1801,2.2459,2.251,2.3113,2.4102,2.4202,2.4202,2.4202,2.4202,2.4202,2.4202,2.4202,2.4276,2.4381,2.4474,2.4726,2.5113,2.5235,2.5353,2.5435,2.5488,2.5386,2.5249,2.523,2.5113,2.4883,2.5093,2.5252,2.5257,2.5916,2.684,2.7874,2.8739,2.9296,2.9444,3.0393,3.0894,3.0914,3.1202,3.1582,3.1888,3.2093,3.2365,3.2742,3.2964,3.3115,3.3136,3.3219,3.3411,3.359,3.4097,3.4564,3.4795,3.5383,3.563,3.56,3.5704,3.5809,3.5861,3.5992,3.6305,3.6567,3.6698,3.6828,3.7194,3.7459,3.7691,3.7776,3.79,3.79,3.79,3.79,3.7926,3.7978,3.8187,3.8423,3.8501,3.8736,3.8974,3.8998,3.8292,3.79,3.79,3.7926,3.8161,3.8266,3.8397,3.8423,3.8736,3.8791,3.8765,3.8762,3.8843,3.905,3.9207,3.9732,4.0071,4.0122,4.054,4.0803,2.0421,2.0745,2.0873,2.0899,2.0899,2.0899,2.0899,2.0899,2.0899,2.0899,2.0899,2.0899,2.0899,2.095,2.1267,2.1725,2.2283,2.2585,2.3288,2.4152,2.4202,2.4202,2.4202,2.4202,2.4202,2.4202,2.4202,2.4276,2.4381,2.448,2.475,2.5137,2.526,2.543,2.5669,2.5698,2.5698,2.5698,2.5698,2.5542,2.5375,2.5562,2.5581,2.5412,2.5872,2.6472,2.7225,2.821,2.8808,2.9093,2.9961,3.0819,3.1392,3.1793,3.211,3.2394,3.2169,3.2194,3.254,3.2636,3.2615,3.2658,3.3179,3.3536,3.3801,3.4459,3.4911,3.5327,3.5825,3.6274,3.6414,3.6567,3.6619,3.6488,3.6567,3.6828,3.722,3.7299,3.7482,3.7743,3.7848,3.7759,3.7531,3.7739,3.7771,3.7715,3.793,3.819,3.8475,3.8736,3.8974,3.9024,3.9285,3.9468,3.9442,3.8945,3.8661,3.8658,3.8527,3.8684,3.8789,3.8919,3.9128,3.9494,3.9651,3.9625,3.9677,3.9756,3.9834,3.9913,4.0254,4.0672,4.0803,4.0985,4.1116,2.0493,2.0653,2.0812,2.0978,2.102,2.0962,2.0915,2.0931,2.0899,2.0899,2.0899,2.0899,2.0899,2.0925,2.1053,2.1267,2.1878,2.2769,2.3513,2.4078,2.4177,2.4202,2.4202,2.4202,2.4202,2.4202,2.4202,2.4202,2.4226,2.4381,2.4627,2.4917,2.5162,2.5382,2.5674,2.5698,2.5698,2.5698,2.5698,2.5698,2.5698,2.5698,2.5674,2.5684,2.5939,2.6112,2.618,2.6798,2.728,2.7324,2.8335,2.967,3.1304,3.2203,3.2911,3.2624,3.2062,3.1623,3.1693,3.1785,3.1876,3.2286,3.3311,3.4223,3.4477,3.5021,3.5554,3.5959,3.6374,3.6715,3.7022,3.729,3.742,3.7168,3.7403,3.7717,3.7795,3.7874,3.79,3.7952,3.8004,3.7485,3.6947,3.75,3.7989,3.7899,3.8215,3.8867,3.9259,3.9494,3.9599,3.9601,3.9808,4.0043,3.986,3.9625,3.9625,3.9601,3.9442,3.939,3.9444,3.9575,3.973,4.0017,4.0148,4.0148,4.02,4.0278,4.0409,4.054,4.0958,4.1142,4.1168,4.1194,4.1221,2.0502,2.1507,2.1613,2.1666,2.1634,2.1359,2.1238,2.1232,2.101,2.0899,2.0899,2.0899,2.0899,2.1002,2.1283,2.1522,2.1801,2.2769,2.3413,2.3637,2.4003,2.4202,2.4202,2.4202,2.4202,2.4202,2.4202,2.4202,2.4226,2.4276,2.4498,2.4843,2.499,2.526,2.5693,2.5698,2.5698,2.5698,2.5698,2.5698,2.5698,2.5698,2.5698,2.5698,2.5791,2.582,2.5868,2.7125,2.7835,2.7835,2.9049,3.0034,3.0576,3.0912,3.1091,3.1092,3.0845,3.1168,3.1992,3.2176,3.2592,3.3496,3.424,3.4539,3.4749,3.5294,3.58,3.6238,3.6816,3.7312,3.7479,3.705,3.7078,3.7596,3.7795,3.7906,3.8004,3.7952,3.8083,3.8397,3.8475,3.8468,3.8541,3.8905,3.8765,3.8659,3.8953,3.9325,3.9529,3.9821,4.0148,4.0174,4.0435,4.0594,4.0514,4.0435,4.0411,4.028,4.0122,4.0043,4.0097,4.0176,4.0332,4.0437,4.0592,4.0644,4.0697,4.0775,4.0853,4.0958,4.1142,4.1247,4.1273,4.1299,4.1299,2.0112,2.131,2.1445,2.1715,2.1952,2.1565,2.1396,2.1349,2.1042,2.0899,2.0899,2.0899,2.0899,2.0976,2.1241,2.1522,2.1801,2.2619,2.3095,2.3388,2.3911,2.4177,2.4202,2.4202,2.4202,2.4202,2.4202,2.4202,2.4202,2.4276,2.4523,2.4867,2.5015,2.526,2.565,2.5698,2.5698,2.5698,2.5698,2.5698,2.5698,2.5698,2.5698,2.5698,2.5698,2.5698,2.5791,2.6959,2.7647,2.7861,2.8911,2.9601,2.9669,2.9988,3.0261,3.0399,3.0514,3.1019,3.1992,3.2109,3.2505,3.3418,3.3753,3.4082,3.4461,3.5022,3.5348,3.5999,3.6189,3.6537,3.6705,3.6871,3.7018,3.7796,3.7734,3.7945,3.8309,3.8527,3.8658,3.8972,3.905,3.9066,3.8986,3.897,3.8878,3.8759,3.8663,3.8815,3.9041,3.9597,3.99,4.0303,4.0733,4.0914,4.1196,4.1221,4.1221,4.0985,4.0698,4.0697,4.0723,4.0724,4.0829,4.0907,4.1012,4.101,4.1038,4.109,4.1168,4.1273,4.1299,4.1299,4.1299,4.1299,4.1299,1.9319,2.0199,2.0488,2.1146,2.1859,2.1485,2.1354,2.1381,2.1058,2.0899,2.0899,2.0899,2.0899,2.0899,2.0976,2.1241,2.1725,2.2291,2.2845,2.3363,2.3904,2.4257,2.4385,2.4422,2.4422,2.4385,2.4312,2.4275,2.4293,2.4369,2.4603,2.4892,2.5113,2.5425,2.5625,2.5698,2.5698,2.5698,2.5698,2.5698,2.5698,2.5698,2.5698,2.5698,2.5698,2.5698,2.5844,2.64,2.6664,2.676,2.7977,2.8631,2.8794,2.9555,3.0078,3.0302,3.0718,3.1015,3.1475,3.1637,3.1848,3.2225,3.2645,3.295,3.4079,3.4211,3.4588,3.543,3.5254,3.5095,3.5718,3.6358,3.7217,3.7691,3.7755,3.8212,3.9228,3.9303,3.9108,3.9164,3.9336,3.9146,3.819,3.8091,3.789,3.7628,3.7517,3.7764,3.8113,3.8831,3.9341,3.9777,4.0084,4.0135,4.0058,4.0058,4.0032,4.0058,4.0184,4.0712,4.0989,4.109,4.1116,4.1221,4.1299,4.1299,4.1299,4.1299,4.1299,4.1299,4.1299,4.1299,4.1299,4.1299,4.1299,1.899,2.0231,2.0345,2.0897,2.1567,2.1079,2.1225,2.1708,2.1153,2.0915,2.0899,2.0899,2.0899,2.0899,2.0925,2.119,2.1751,2.224,2.2812,2.3338,2.3929,2.4544,2.4966,2.5058,2.5021,2.4992,2.4698,2.4636,2.4617,2.438,2.4517,2.4873,2.5028,2.5279,2.5601,2.5737,2.5698,2.5698,2.5698,2.5698,2.5698,2.5698,2.5698,2.5698,2.5698,2.5815,2.6014,2.652,2.6904,2.7095,2.7407,2.7668,2.7802,2.8317,2.8764,2.8935,2.9235,2.9872,3.0857,3.1162,3.1638,3.2691,3.2657,3.3279,3.3898,3.395,3.4405,3.5156,3.5263,3.5641,3.6674,3.6748,3.6892,3.741,3.814,3.8623,3.8458,3.8334,3.8214,3.7863,3.7861,3.7881,3.7974,3.7837,3.7756,3.7613,3.7477,3.7421,3.7536,3.7902,3.835,3.835,3.856,3.8638,3.8664,3.8664,3.869,3.8742,3.929,4.0312,4.0768,4.1221,4.1247,4.1299,4.1299,4.1299,4.1299,4.1299,4.1299,4.1299,4.1299,4.1299,4.1299,4.1299,4.1299,1.849,1.9693,1.9722,2.0358,2.1279,2.0962,2.1182,2.157,2.1312,2.1026,2.0931,2.0899,2.0899,2.0899,2.0925,2.1318,2.2013,2.2358,2.2962,2.3698,2.4254,2.4617,2.4838,2.49,2.4874,2.49,2.4672,2.4654,2.4691,2.4379,2.4659,2.5321,2.5282,2.5479,2.5986,2.5991,2.5893,2.5732,2.5698,2.5698,2.5698,2.5698,2.5698,2.5698,2.5718,2.5879,2.6328,2.6778,2.7129,2.7294,2.7451,2.7552,2.7593,2.7966,2.8251,2.8462,2.9153,3.012,3.0889,3.1199,3.1608,3.2249,3.2352,3.2564,3.3005,3.3164,3.3502,3.4128,3.4618,3.5152,3.564,3.5989,3.6637,3.7451,3.8336,3.8617,3.791,3.7934,3.7775,3.7529,3.7467,3.7515,3.7851,3.7503,3.726,3.7022,3.6487,3.6379,3.6344,3.6858,3.7254,3.7325,3.7649,3.7969,3.8099,3.8099,3.8174,3.8174,3.8434,3.9486,4.0492,4.1126,4.1173,4.1173,4.1223,4.1299,4.1299,4.1299,4.1299,4.1299,4.1299,4.1299,4.1325,4.1534,4.1508,1.7977,1.8752,1.8726,1.9546,2.0664,2.084,2.0891,2.1238,2.1291,2.1153,2.0947,2.0899,2.0899,2.0899,2.1037,2.1547,2.2467,2.2611,2.3316,2.4079,2.4617,2.4801,2.4581,2.4643,2.4624,2.4551,2.4349,2.4544,2.4746,2.4489,2.5,2.5729,2.5781,2.5963,2.6345,2.6465,2.623,2.601,2.5991,2.601,2.5971,2.5913,2.5854,2.5854,2.5928,2.6222,2.6705,2.7126,2.7374,2.74,2.7755,2.7941,2.8024,2.8417,2.8814,2.9247,2.9982,3.077,3.1294,3.1278,3.1442,3.1521,3.1175,3.1209,3.2094,3.2305,3.2492,3.322,3.3655,3.401,3.4267,3.5282,3.6529,3.7355,3.7671,3.7692,3.7583,3.7663,3.769,3.7557,3.7453,3.7506,3.729,3.675,3.6064,3.6237,3.5846,3.5797,3.5837,3.6284,3.646,3.6498,3.6955,3.7574,3.7574,3.7574,3.7723,3.7824,3.7919,3.8698,4.01,4.0722,4.0924,4.0997,4.1022,4.1147,4.1299,4.1299,4.1325,4.1402,4.1455,4.1455,4.1456,4.1821,4.1952,1.7625,1.7789,1.7568,1.8087,1.9007,1.9208,1.9752,2.0472,2.0841,2.095,2.0905,2.0889,2.0905,2.0956,2.1331,2.1903,2.2578,2.3024,2.3698,2.4626,2.5076,2.5223,2.5113,2.5076,2.5095,2.5021,2.4801,2.4893,2.5076,2.4981,2.5173,2.6045,2.6205,2.6321,2.6754,2.6791,2.6855,2.6713,2.6674,2.6615,2.6562,2.6367,2.625,2.625,2.6379,2.6744,2.7237,2.7733,2.7993,2.8077,2.8272,2.8475,2.8541,2.8897,2.9208,2.9424,2.9865,3.0307,3.0407,3.0779,3.0931,3.1026,3.1216,3.1463,3.1961,3.2072,3.2385,3.2959,3.3339,3.3961,3.4907,3.631,3.6746,3.6685,3.6626,3.6327,3.5653,3.6068,3.6181,3.5676,3.5428,3.5268,3.5345,3.5435,3.5207,3.5288,3.5379,3.5312,3.5536,3.5868,3.5972,3.6088,3.6342,3.6896,3.6896,3.6952,3.7164,3.7326,3.7433,3.7664,3.9077,3.9958,3.9994,4.0338,4.0769,4.0923,4.1003,4.1482,4.1586,4.1611,4.1665,4.1873,4.2056,4.2317,4.2422,1.7479,1.7496,1.7363,1.7708,1.8396,1.8732,1.9251,1.9908,2.0342,2.0683,2.0926,2.0948,2.1137,2.1417,2.1742,2.2237,2.3117,2.3913,2.455,2.5043,2.5315,2.5388,2.5388,2.5388,2.5388,2.537,2.5205,2.5315,2.548,2.5378,2.5596,2.6473,2.6517,2.655,2.6801,2.6955,2.6713,2.644,2.6641,2.6719,2.668,2.6719,2.668,2.668,2.6806,2.7058,2.7503,2.7921,2.8272,2.8619,2.8891,2.9018,2.8991,2.9348,2.9601,2.9704,3.0056,3.0331,3.0455,3.0745,3.1063,3.1056,3.1443,3.1705,3.2036,3.2181,3.2486,3.2978,3.353,3.4357,3.5438,3.5768,3.5952,3.5931,3.5972,3.5791,3.5408,3.5357,3.5352,3.4893,3.5003,3.5128,3.5109,3.5037,3.524,3.574,3.5762,3.5699,3.5699,3.5982,3.5997,3.6039,3.6019,3.6134,3.6134,3.6272,3.6569,3.6719,3.6818,3.7039,3.7765,3.8421,3.8903,3.9533,4.0198,4.0399,4.0575,4.113,4.1646,4.1569,4.1749,4.2242,4.2631,4.2762,4.2788,1.7479,1.7479,1.7472,1.7691,1.8148,1.8615,1.9008,1.9399,1.9887,2.0486,2.099,2.1072,2.1484,2.2039,2.221,2.2838,2.3833,2.4868,2.5436,2.5472,2.5645,2.5719,2.57,2.57,2.57,2.5572,2.5407,2.559,2.5756,2.5745,2.6014,2.6811,2.6948,2.6955,2.6917,2.7033,2.707,2.6635,2.6836,2.6934,2.69,2.7051,2.7109,2.7109,2.7154,2.7376,2.7787,2.814,2.8468,2.9039,2.9422,2.9547,2.9627,2.9746,3.0056,3.0077,3.045,3.0657,3.087,3.1222,3.1485,3.1505,3.1871,3.2098,3.2222,3.2429,3.2615,3.2983,3.3508,3.4357,3.5041,3.5207,3.5163,3.53,3.5743,3.5991,3.5852,3.5212,3.5159,3.524,3.5343,3.5452,3.5677,3.5743,3.594,3.6093,3.6115,3.6136,3.6158,3.6202,3.6333,3.6421,3.653,3.6552,3.6552,3.6508,3.6692,3.6677,3.667,3.681,3.7052,3.7569,3.831,3.901,3.954,3.9804,4.0323,4.1059,4.1376,4.1414,4.2074,4.2918,4.318,4.3206,4.3284,1.7479,1.7467,1.7249,1.7215,1.7408,1.8075,1.8485,1.8689,1.9581,2.0529,2.133,2.1429,2.1926,2.27,2.3036,2.3587,2.4588,2.5565,2.5994,2.6049,2.6251,2.6371,2.6398,2.6416,2.6416,2.6215,2.5921,2.5811,2.5966,2.5984,2.6275,2.6896,2.7185,2.7328,2.7545,2.7914,2.7812,2.7422,2.7598,2.7695,2.7721,2.7643,2.7559,2.7559,2.7559,2.778,2.81,2.843,2.8754,2.9105,2.9422,2.9896,3.0252,3.0201,3.0284,3.0532,3.0739,3.0967,3.1257,3.1671,3.1871,3.2016,3.2284,3.2533,3.2595,3.2636,3.2719,3.29,3.328,3.3815,3.4037,3.4643,3.5111,3.5431,3.5809,3.6093,3.6049,3.5918,3.5787,3.5911,3.5911,3.594,3.618,3.6333,3.6421,3.653,3.6595,3.6727,3.6836,3.6923,3.7055,3.7142,3.7229,3.7251,3.7251,3.7186,3.7194,3.7106,3.7092,3.7092,3.7284,3.735,3.7843,3.843,3.8991,3.94,4.0044,4.0807,4.1237,4.1384,4.2455,4.3676,4.3781,4.3833,4.412,1.7479,1.7496,1.7375,1.7399,1.7567,1.7931,1.8269,1.8561,1.9133,2.0177,2.1222,2.1594,2.2333,2.3402,2.4016,2.4732,2.572,2.6555,2.6912,2.6986,2.7132,2.7224,2.7187,2.7206,2.7224,2.7132,2.682,2.6435,2.6325,2.6325,2.6534,2.6771,2.7198,2.7381,2.7431,2.7699,2.7825,2.7773,2.7897,2.8015,2.8054,2.7956,2.8015,2.8015,2.8015,2.8132,2.8249,2.8408,2.882,2.9327,2.9607,3.0193,3.0688,3.0884,3.0828,3.1056,3.1236,3.1443,3.1726,3.2098,3.2367,3.2388,3.2595,3.2801,3.2934,3.2913,3.2871,3.312,3.348,3.3888,3.4211,3.4728,3.5287,3.5809,3.6197,3.6505,3.6645,3.6675,3.6661,3.6595,3.6486,3.653,3.677,3.688,3.688,3.6915,3.7003,3.7156,3.7382,3.7404,3.7404,3.7404,3.7382,3.7404,3.7404,3.7404,3.7404,3.7404,3.7404,3.7404,3.7404,3.7413,3.7424,3.768,3.826,3.8946,3.9481,4.0139,4.072,4.148,4.2749,4.3768,4.4194,4.4486,4.44,1.7479,1.7479,1.7479,1.7641,1.781,1.7883,1.8143,1.8512,1.8664,1.9841,2.1471,2.1776,2.2671,2.4098,2.5021,2.5861,2.6942,2.7482,2.7683,2.7665,2.7701,2.7757,2.7775,2.7793,2.772,2.7628,2.761,2.7463,2.7004,2.6894,2.6857,2.7114,2.7423,2.7449,2.7428,2.7796,2.7506,2.7526,2.7604,2.78,2.7917,2.8105,2.8359,2.8418,2.8418,2.8484,2.866,2.8699,2.9142,2.9693,3.0058,3.0411,3.1292,3.1533,3.1574,3.1671,3.1891,3.2016,3.2222,3.2408,3.2677,3.283,3.2843,3.3099,3.3327,3.3327,3.3203,3.3542,3.3957,3.4286,3.4536,3.5032,3.5535,3.6002,3.6531,3.695,3.7106,3.7161,3.7178,3.712,3.7011,3.7011,3.7142,3.7186,3.7142,3.7142,3.7199,3.7221,3.7404,3.7404,3.7404,3.7404,3.7404,3.7404,3.7404,3.7404,3.7404,3.7404,3.7404,3.7404,3.7404,3.7404,3.7415,3.747,3.7836,3.8478,3.8971,3.9481,4.0153,4.1165,4.2838,4.3441,4.3144,4.3254,4.333,1.7479,1.7479,1.7479,1.7532,1.7575,1.781,1.7931,1.8088,1.8493,1.9817,2.1631,2.2004,2.3068,2.4817,2.585,2.6497,2.7049,2.7617,2.794,2.7958,2.7922,2.7922,2.7848,2.7793,2.794,2.7958,2.7903,2.7785,2.7628,2.761,2.7704,2.7856,2.7799,2.7988,2.8093,2.8215,2.8203,2.8164,2.8203,2.8262,2.8308,2.834,2.8555,2.875,2.8867,2.9012,2.9246,2.9285,2.968,3.0229,3.0399,3.0926,3.1739,3.1933,3.2181,3.2284,3.2305,3.2181,3.2512,3.2719,3.2934,3.3161,3.3285,3.3584,3.3791,3.3998,3.3978,3.3998,3.4433,3.4712,3.4886,3.5371,3.5764,3.6051,3.6429,3.6758,3.7002,3.7184,3.7253,3.7382,3.7186,3.7229,3.7339,3.7361,3.7382,3.7382,3.7404,3.7404,3.7404,3.7404,3.7404,3.7404,3.7404,3.7404,3.7404,3.7404,3.7483,3.7461,3.7483,3.7483,3.7527,3.7549,3.7426,3.7533,3.7826,3.7894,3.8141,3.8714,3.9539,4.0534,4.1704,4.1785,4.1444,4.1728,4.2266,1.7479,1.7479,1.7479,1.7605,1.7738,1.7859,1.8004,1.8173,1.8391,1.9586,2.1161,2.1547,2.314,2.5537,2.6673,2.7411,2.8016,2.8301,2.8472,2.8436,2.8436,2.8454,2.8509,2.8491,2.8491,2.8436,2.8462,2.8546,2.8381,2.8014,2.7879,2.7992,2.8098,2.8248,2.8639,2.8735,2.8878,2.8969,2.9051,2.9023,2.9051,2.9051,2.9109,2.9277,2.9277,2.9442,2.9579,2.9598,2.9951,3.0482,3.073,3.126,3.1981,3.2323,3.2512,3.2636,3.2809,3.2789,3.2739,3.2975,3.3232,3.3439,3.3646,3.3895,3.4164,3.4507,3.4682,3.4516,3.4879,3.5086,3.5107,3.5437,3.5684,3.5963,3.6208,3.6514,3.6758,3.6972,3.7123,3.7253,3.7374,3.7374,3.7374,3.7374,3.7374,3.7404,3.7404,3.7404,3.7404,3.7404,3.7404,3.7404,3.7404,3.7404,3.7404,3.7404,3.768,3.7745,3.7876,3.7855,3.7833,3.7789,3.7658,3.7514,3.7577,3.7555,3.7495,3.8171,3.9187,3.9803,4.0355,4.0384,4.0466,4.0817,4.1224,1.7527,1.7605,1.7532,1.7629,1.7798,1.7798,1.7907,1.807,1.8155,1.9304,2.0886,2.1796,2.3708,2.5856,2.6777,2.7458,2.8744,2.8766,2.8803,2.8792,2.8828,2.8803,2.8766,2.881,2.8938,2.8975,2.8865,2.8792,2.8638,2.8465,2.8236,2.8231,2.8519,2.87,2.8946,2.9122,2.9286,2.9453,2.95,2.952,2.954,2.954,2.9618,2.9715,2.9755,2.9794,2.9911,2.997,3.0327,3.075,3.1162,3.1617,3.2223,3.2666,3.2863,3.3037,3.3273,3.3389,3.3306,3.341,3.3605,3.3853,3.4093,3.4486,3.4527,3.5086,3.5304,3.4941,3.5148,3.5325,3.5387,3.5418,3.551,3.5716,3.5901,3.6239,3.6545,3.6758,3.688,3.6941,3.7071,3.7283,3.7314,3.7344,3.7374,3.7374,3.7404,3.7426,3.747,3.7483,3.747,3.7492,3.7636,3.7658,3.7658,3.7702,3.792,3.8095,3.8226,3.8292,3.8292,3.8117,3.7898,3.7724,3.7557,3.7305,3.7275,3.8044,3.8744,3.8885,3.9062,3.9451,3.9715,3.9954,4.0012,1.7653,1.7859,1.7617,1.7527,1.7581,1.7515,1.7581,1.7708,1.7853,1.9078,2.105,2.2881,2.4466,2.5807,2.6464,2.7233,2.8443,2.8069,2.8234,2.8417,2.8472,2.8462,2.8517,2.8682,2.8883,2.8913,2.8895,2.8718,2.8608,2.8755,2.8961,2.9319,2.9063,2.9354,2.9556,2.9658,2.9701,2.9813,2.9794,2.9755,2.9755,2.9774,2.9872,3.0098,3.0176,3.0332,3.0771,3.0713,3.0819,3.1207,3.1516,3.1914,3.2406,3.2971,3.324,3.343,3.3791,3.3957,3.3957,3.3998,3.4247,3.4661,3.4941,3.5128,3.5107,3.5252,3.5345,3.5283,3.5345,3.5366,3.5387,3.5418,3.5448,3.5541,3.5716,3.5932,3.6239,3.6575,3.6667,3.6637,3.6801,3.7123,3.7384,3.7479,3.7453,3.744,3.7614,3.7636,3.7702,3.7745,3.7645,3.7689,3.7942,3.8051,3.8086,3.8217,3.8413,3.8619,3.875,3.8772,3.8772,3.8554,3.841,3.8029,3.7824,3.7432,3.7063,3.7456,3.7676,3.7555,3.7766,3.8343,3.838,3.8328,3.8387,1.781,1.7907,1.795,1.7974,1.7986,1.7986,1.7986,1.7998,1.8113,1.924,2.1147,2.3282,2.5034,2.6124,2.7204,2.773,2.8377,2.8564,2.8344,2.8197,2.8205,2.8223,2.8252,2.8215,2.8252,2.8381,2.8509,2.859,2.848,2.8792,2.8998,2.9198,2.9351,2.9586,2.9803,3.018,3.0381,3.0419,3.0371,3.0371,3.04,3.0419,3.0497,3.0586,3.0625,3.0703,3.0859,3.0908,3.1123,3.1397,3.175,3.2193,3.2698,3.3237,3.3605,3.3815,3.4238,3.4475,3.4516,3.4537,3.4744,3.5066,3.5314,3.5387,3.5387,3.5387,3.5387,3.5387,3.5387,3.5387,3.5387,3.5387,3.5418,3.5448,3.5541,3.5695,3.5995,3.6375,3.6553,3.6607,3.6837,3.7098,3.7381,3.7634,3.7566,3.7518,3.7724,3.7898,3.8008,3.8095,3.8029,3.8073,3.8357,3.851,3.8544,3.8719,3.8937,3.9122,3.9274,3.9243,3.9211,3.9284,3.9066,3.8619,3.8111,3.7792,3.7339,3.6878,3.6801,3.7024,3.7154,3.7374,3.7223,3.7002,3.7024,1.8004,1.8161,1.8324,1.836,1.83,1.83,1.83,1.83,1.8287,1.9236,2.1043,2.3166,2.4812,2.6104,2.7315,2.8122,2.8293,2.8454,2.8326,2.8252,2.8223,2.8215,2.8105,2.816,2.8399,2.8234,2.8381,2.8572,2.8425,2.8792,2.8968,2.9124,2.935,2.9664,3.009,3.0689,3.1132,3.1269,3.1269,3.1269,3.1299,3.1269,3.1299,3.1289,3.1338,3.1309,3.1397,3.1436,3.1514,3.174,3.2067,3.2425,3.2925,3.3457,3.3899,3.4244,3.4621,3.4951,3.4972,3.5034,3.5107,3.5304,3.5366,3.5387,3.5387,3.5387,3.5387,3.5387,3.5387,3.5387,3.5387,3.5387,3.5387,3.5418,3.5418,3.5562,3.5915,3.6268,3.6456,3.6592,3.6927,3.7337,3.737,3.7686,3.7955,3.7953,3.8195,3.8348,3.8435,3.8522,3.8566,3.8685,3.8881,3.8969,3.9024,3.9318,3.9558,3.9646,3.9777,3.9648,3.9626,3.9679,3.9473,3.89,3.8446,3.8111,3.7783,3.7374,3.7022,3.674,3.6918,3.716,3.7007,3.6856,3.635,1.8209,1.8681,1.8662,1.8541,1.8391,1.83,1.8324,1.8384,1.8403,1.9129,2.0564,2.2632,2.4148,2.5273,2.6726,2.7712,2.8257,2.8179,2.8069,2.8252,2.8297,2.8352,2.8388,2.8491,2.8472,2.8895,2.884,2.8638,2.8407,2.8792,2.8957,2.9101,2.9346,2.9763,3.0155,3.1078,3.1725,3.2079,3.2081,3.2022,3.2003,3.1983,3.1964,3.1964,3.1944,3.1905,3.1905,3.1905,3.2003,3.217,3.2371,3.2682,3.3014,3.3801,3.4228,3.4441,3.5005,3.5304,3.5345,3.5366,3.5366,3.5366,3.5387,3.5387,3.5387,3.5387,3.5387,3.5387,3.5387,3.5387,3.5387,3.5428,3.5469,3.5511,3.5552,3.5749,3.6154,3.6321,3.653,3.6687,3.7234,3.7668,3.7593,3.7699,3.8198,3.845,3.8659,3.8818,3.8864,3.9068,3.9177,3.9274,3.9427,3.9471,3.9602,3.993,4.0181,4.0268,4.0192,3.9975,3.9855,3.9757,3.9486,3.9077,3.8859,3.8639,3.8291,3.7953,3.74,3.6883,3.6987,3.7125,3.6969,3.6791,3.6415,1.836,1.8729,1.8899,1.8891,1.8819,1.8838,1.8807,1.885,1.8901,1.9456,2.0695,2.2447,2.4053,2.5384,2.6843,2.7941,2.8301,2.8645,2.8638,2.8069,2.8297,2.8168,2.8215,2.8289,2.8307,2.8307,2.8417,2.8638,2.8407,2.8792,2.8957,2.9071,2.952,2.9987,3.0694,3.1502,3.2088,3.2148,3.2179,3.2179,3.2198,3.2237,3.2237,3.2257,3.2257,3.2276,3.2296,3.2316,3.2413,3.2559,3.2763,3.3015,3.347,3.4265,3.4502,3.4831,3.5366,3.5387,3.5387,3.5387,3.5387,3.5387,3.5387,3.5387,3.5387,3.5387,3.5387,3.5407,3.5449,3.5428,3.5387,3.5718,3.5862,3.5966,3.6069,3.6349,3.662,3.6672,3.6767,3.6891,3.726,3.7884,3.8084,3.7947,3.8315,3.8584,3.8766,3.9088,3.925,3.967,3.9908,3.993,3.9995,4.0017,4.0126,4.0214,4.0225,4.0192,4.016,4.0084,3.9964,3.978,3.9693,3.9369,3.926,3.9137,3.8637,3.8082,3.7487,3.7129,3.7276,3.7414,3.7403,3.7181,3.6832,1.8493,1.8862,1.9032,1.9104,1.9104,1.9104,1.9104,1.9104,1.9136,1.9711,2.0987,2.2625,2.424,2.5849,2.7426,2.8426,2.8627,2.881,2.8895,2.8271,2.8491,2.8491,2.8344,2.8197,2.8417,2.8289,2.8436,2.8638,2.8645,2.8865,2.8975,2.9163,2.973,3.0362,3.0986,3.1507,3.2176,3.2358,3.2559,3.2695,3.2676,3.2676,3.2656,3.2656,3.2656,3.2637,3.2617,3.2637,3.2715,3.293,3.3109,3.3313,3.3874,3.4235,3.4517,3.4891,3.5294,3.5325,3.5387,3.5387,3.5387,3.5387,3.5387,3.5387,3.5387,3.5387,3.5387,3.5428,3.5531,3.5614,3.5718,3.6101,3.6349,3.6453,3.6556,3.6804,3.7032,3.7064,3.7189,3.7281,3.7458,3.807,3.8399,3.8399,3.8447,3.8669,3.8856,3.918,3.9441,3.9812,4.0116,4.0062,4.004,3.9932,3.9997,4.017,4.0182,4.0116,4.0018,3.9953,3.9833,3.9616,3.9648,3.9724,3.9671,3.9422,3.8797,3.8226,3.784,3.768,3.7754,3.7811,3.7847,3.759,3.7244,1.8645,1.9068,1.9104,1.9104,1.9104,1.9104,1.9104,1.9104,1.9136,1.9858,2.1222,2.3078,2.4655,2.6203,2.8032,2.8838,2.8938,2.9005,2.895,2.8913,2.8847,2.8876,2.8865,2.8828,2.8737,2.8847,2.892,2.8876,2.8957,2.8957,2.8975,2.929,3.0151,3.0577,3.091,3.1505,3.2127,3.2513,3.2851,3.2969,3.2988,3.3191,3.3184,3.3152,3.3152,3.3172,3.3172,3.3211,3.325,3.3308,3.3379,3.3398,3.3544,3.3765,3.4079,3.4517,3.5077,3.5263,3.5387,3.5387,3.5387,3.5407,3.5469,3.5428,3.5428,3.5469,3.5573,3.5697,3.5894,3.6039,3.6204,3.6515,3.6825,3.6887,3.6929,3.7156,3.7446,3.7624,3.7736,3.786,3.7997,3.825,3.825,3.8304,3.8404,3.8461,3.8642,3.8795,3.909,3.9473,3.9691,3.9724,3.9702,3.9691,3.9789,3.9899,3.9888,3.9724,3.9691,3.9625,3.9473,3.9494,3.9593,3.9724,3.9996,3.9735,3.909,3.8723,3.8487,3.8412,3.8391,3.8369,3.8465,3.8065,3.779,1.8802,1.9092,1.9104,1.9104,1.9104,1.9104,1.9104,1.9136,1.936,2.0208,2.1555,2.3031,2.4763,2.6429,2.7702,2.8498,2.8874,2.8975,2.8975,2.8975,2.8975,2.8975,2.8975,2.8975,2.8975,2.8975,2.8975,2.8975,2.8975,2.8975,2.8975,2.9175,2.999,3.0355,3.0899,3.1608,3.2023,3.2455,3.282,3.3047,3.3164,3.3301,3.3328,3.3386,3.3386,3.3386,3.3386,3.3386,3.3386,3.3386,3.3386,3.3449,3.3765,3.389,3.411,3.4704,3.4984,3.5139,3.5325,3.5387,3.5407,3.5511,3.5707,3.5635,3.5593,3.5676,3.5862,3.6059,3.6246,3.6411,3.6535,3.6804,3.7074,3.7177,3.7301,3.755,3.7798,3.7935,3.8046,3.8067,3.8225,3.8225,3.8225,3.8225,3.8304,3.8304,3.8404,3.8536,3.8735,3.9099,3.933,3.9363,3.9363,3.9363,3.9363,3.944,3.9407,3.9363,3.9372,3.9436,3.95,3.9533,3.957,3.9754,4.0024,3.9844,3.942,3.9134,3.8935,3.9095,3.9129,3.907,3.8963,3.8615,3.8556,1.8862,1.9092,1.9104,1.9104,1.9104,1.9104,1.9104,1.9168,1.9456,2.0513,2.2233,2.3466,2.5132,2.7052,2.8032,2.8648,2.8945,2.8975,2.8975,2.8975,2.8975,2.8975,2.8975,2.8975,2.8975,2.8975,2.8975,2.8975,2.8975,2.8975,2.8975,2.9053,2.9628,3.0006,3.0521,3.1176,3.1711,3.2157,3.2572,3.2918,3.3125,3.3262,3.3328,3.3386,3.3386,3.3386,3.3386,3.3386,3.3386,3.3386,3.3386,3.3481,3.3733,3.3827,3.4079,3.461,3.4859,3.5077,3.5325,3.5387,3.549,3.5707,3.5956,3.6039,3.6111,3.6235,3.6317,3.6453,3.6639,3.6804,3.6908,3.7053,3.726,3.7467,3.7695,3.7943,3.8067,3.8183,3.8204,3.8204,3.8225,3.8225,3.8225,3.8225,3.8225,3.8258,3.8271,3.8337,3.8503,3.8769,3.8913,3.9012,3.9012,3.9012,3.9054,3.916,3.9257,3.9341,3.9372,3.9435,3.9469,3.9684,3.989,3.9976,4.0061,3.9855,3.9668,3.9487,3.9358,3.9544,3.9647,3.9578,3.9439,3.9233,3.9378,1.8886,1.9104,1.9104,1.9104,1.9104,1.9104,1.9104,1.9168,1.9488,2.0924,2.292,2.4039,2.5713,2.7581,2.8528,2.8826,2.8975,2.8975,2.8975,2.8975,2.8975,2.8975,2.8975,2.8975,2.8975,2.8975,2.8975,2.8975,2.8975,2.8993,2.9023,2.9071,2.9554,3.0013,3.0534,3.1272,3.1834,3.2185,3.2782,3.325,3.325,3.3328,3.3386,3.3386,3.3386,3.3386,3.3386,3.3386,3.3386,3.3386,3.3386,3.3418,3.3513,3.367,3.3985,3.4267,3.4548,3.4992,3.5262,3.5448,3.5769,3.5986,3.6183,3.637,3.6515,3.6577,3.6618,3.6639,3.6784,3.6804,3.6887,3.6908,3.7074,3.7281,3.7508,3.7736,3.7881,3.8059,3.8225,3.8225,3.8225,3.8225,3.8233,3.8253,3.844,3.8336,3.8473,3.8494,3.8574,3.8775,3.8812,3.8912,3.9005,3.9089,3.9068,3.9206,3.9328,3.9357,3.9395,3.9567,3.9774,3.9985,4.0217,4.0222,4.0171,4.0169,4.0034,3.9924,3.9875,3.9909,3.9992,3.9937,3.9854,3.9806,3.9986,1.9056,1.9104,1.9104,1.9104,1.9104,1.9104,1.9104,1.9168,1.9711,2.119,2.2999,2.4193,2.5818,2.7942,2.8707,2.8975,2.8975,2.8975,2.8975,2.8975,2.8975,2.8975,2.8975,2.8975,2.8975,2.8975,2.8975,2.8993,2.8993,2.9042,2.9188,2.9494,2.9951,3.0425,3.0928,3.1706,3.2253,3.2438,3.2964,3.325,3.3105,3.3269,3.3386,3.3386,3.3386,3.3386,3.3386,3.3386,3.3386,3.3386,3.3386,3.3386,3.3418,3.3481,3.3702,3.3953,3.4264,3.4801,3.535,3.5693,3.5973,3.6368,3.6618,3.668,3.6763,3.6784,3.6804,3.6804,3.6784,3.6763,3.6763,3.6763,3.6825,3.7032,3.7281,3.7467,3.7695,3.7976,3.8204,3.8225,3.8225,3.8253,3.8295,3.844,3.8592,3.882,3.9089,3.9226,3.9185,3.9246,3.9114,3.9182,3.928,3.9342,3.9273,3.9299,3.9422,3.9513,3.9591,3.9798,4.0095,4.0311,4.0471,4.0332,4.029,4.0327,4.0438,4.0512,4.0489,4.0365,4.0365,4.0386,4.0468,4.0427,4.0551,1.9104,1.9104,1.9104,1.9104,1.9104,1.9104,1.9104,1.9296,2.0284,2.165,2.3139,2.4363,2.6078,2.817,2.8826,2.8975,2.8975,2.8975,2.8975,2.8975,2.8975,2.8975,2.8975,2.8975,2.8975,2.8975,2.8975,2.8993,2.906,2.9243,2.9494,2.9714,3.0267,3.0779,3.1308,3.2043,3.2619,3.2873,3.3228,3.325,3.3047,3.325,3.3386,3.3386,3.3386,3.3386,3.3386,3.3386,3.3386,3.3386,3.3386,3.3386,3.3386,3.3418,3.3693,3.4116,3.452,3.4863,3.5579,3.6018,3.6248,3.6646,3.6784,3.6763,3.6701,3.6722,3.6639,3.6618,3.6453,3.6432,3.6308,3.6235,3.6328,3.6473,3.6908,3.726,3.7674,3.8067,3.8204,3.8225,3.8316,3.853,3.8654,3.8903,3.9068,3.913,3.9461,3.9544,3.9585,3.9751,3.9606,3.9523,3.9647,3.9544,3.9406,3.9481,3.9585,3.9661,3.9792,4.0118,4.0417,4.0578,4.0668,4.0578,4.0535,4.0618,4.0726,4.0814,4.08,4.0675,4.0717,4.08,4.0918,4.0918,4.0877,1.9104,1.9104,1.9104,1.9104,1.9104,1.9104,1.9104,1.9328,2.0639,2.2045,2.3311,2.4425,2.649,2.8122,2.8975,2.8975,2.8975,2.8975,2.8975,2.8975,2.8975,2.8975,2.8975,2.8975,2.8975,2.903,2.9085,2.9104,2.914,2.9464,2.9739,2.9813,3.0186,3.0635,3.1208,3.169,3.2163,3.2676,3.307,3.3323,3.3367,3.3386,3.3386,3.3386,3.3386,3.3386,3.3386,3.3386,3.3386,3.3445,3.3503,3.364,3.3699,3.3789,3.4034,3.4416,3.4687,3.5248,3.5949,3.6301,3.6556,3.6758,3.674,3.668,3.6597,3.6441,3.6359,3.6287,3.6121,3.6039,3.5883,3.5945,3.6018,3.6266,3.6763,3.7405,3.7922,3.8357,3.8378,3.8398,3.8626,3.8882,3.9068,3.9337,3.9502,3.9585,3.9647,3.9668,3.9792,4.0116,4.022,4.0116,4.0116,3.9937,3.9771,3.9813,3.9978,4.0137,4.0323,4.0551,4.0711,4.0784,4.0819,4.0838,4.085,4.0829,4.085,4.0877,4.0897,4.0918,4.0918,4.0918,4.0918,4.0918,4.0918,1.9104,1.9104,1.9104,1.9104,1.9104,1.9104,1.9104,1.9168,1.9763,2.1339,2.3389,2.4409,2.5956,2.8229,2.8797,2.8975,2.8975,2.8975,2.8975,2.8975,2.8975,2.8975,2.9012,2.9097,2.8993,2.914,2.9342,2.9482,2.9525,2.9874,3.0241,3.0479,3.0552,3.0927,3.1336,3.1779,3.2162,3.2613,3.2912,3.3197,3.3355,3.3386,3.3386,3.3386,3.3386,3.3386,3.3386,3.3386,3.3386,3.3484,3.3769,3.4062,3.4219,3.4297,3.4479,3.4635,3.4909,3.5283,3.5841,3.6132,3.6326,3.6594,3.6538,3.6308,3.6111,3.5862,3.58,3.5769,3.5687,3.5697,3.5697,3.6007,3.6204,3.6701,3.7198,3.8129,3.8874,3.9006,3.9089,3.913,3.9213,3.9358,3.942,3.9709,4.0019,4.0123,4.0344,4.0365,4.0365,4.0572,4.0717,4.0613,4.053,4.0655,4.0634,4.0468,4.0551,4.0675,4.0717,4.0758,4.08,4.0877,4.0918,4.0918,4.0918,4.0877,4.0897,4.0918,4.0918,4.0918,4.0918,4.0918,4.0918,4.0918,4.0918]},{"header":{"parameterUnit":"m.s-1","parameterCategory":1,"la1":31.0,"la2":29.5877,"lo1":-88.7671,"lo2":-86.6584,"dy":0.0162,"dx":0.0185,"nx":115,"ny":88,"refTime":"2026-04-19T00:00:00:Z","depth":0,"parameterNumber":3,"parameterNumberName":"V-component_of_WINDS"},"data":[0.0,0.0,0.0,0.0,0.0,0.0,0.0,0.0,0.0,0.0,0.0,0.0,0.0,0.0,0.0,0.0,0.0,0.0,0.0,0.0,0.0,0.0,0.0,0.0,0.0,0.0,0.0,0.0,0.0,0.0,0.0,0.0,0.0,0.0,0.0,0.0,0.0,0.0,0.0,0.0,0.0,0.0,0.0,0.0,0.0,0.0,0.0,0.0,0.0,0.0,0.0,0.0,0.0,0.0,0.0,0.0,0.0,0.0,0.0,0.0,0.0,0.0,0.0,0.0,0.0,0.0,0.0,0.0,0.0,0.0,0.0,0.0,0.0,0.0,0.0,0.0,0.0,0.0,0.0,0.0,0.0,0.0,0.0,0.0,0.0,0.0,0.0,0.0,0.0,0.0,0.0,0.0,0.0,0.0,0.0,0.0,0.0,0.0,0.0,0.0,0.0,0.0,0.0,0.0,0.0,0.0,0.0,0.0,0.0,0.0,0.0,0.0,0.0,0.0,0.0,0.0,0.0,0.0,0.0,0.0,0.0,0.0,0.0,0.0,0.0,0.0,0.0,0.0,0.0,0.0,0.0,0.0,0.0,0.0,0.0,0.0,0.0,0.0,0.0,0.0,0.0,0.0,0.0,0.0,0.0,0.0,0.0,0.0,0.0,0.0,0.0,0.0,0.0,0.0,0.0,0.0,0.0,0.0,0.0,0.0,0.0,0.0,0.0,0.0,0.0,0.0,0.0,0.0,0.0,0.0,0.0,0.0,0.0,0.0,0.0,0.0,0.0,0.0,0.0,0.0,0.0,0.0,0.0,0.0,0.0,0.0,0.0,0.0,0.0,0.0,0.0,0.0,0.0,0.0,0.0,0.0,0.0,0.0,0.0,0.0,0.0,0.0,0.0,0.0,0.0,0.0,0.0,0.0,0.0,0.0,0.0,0.0,0.0,0.0,0.0,0.0,0.0,0.0,0.0,0.0,0.0,0.0,0.0,0.0,0.0,0.0,0.0,0.0,0.0,0.0,0.0,0.0,0.0,0.0,0.0,0.0,0.0,0.0,0.0,0.0,0.0,0.0,0.0,0.0,0.0,0.0,0.0,0.0,0.0,0.0,0.0,0.0,0.0,0.0,0.0,0.0,0.0,0.0,0.0,0.0,0.0,0.0,0.0,0.0,0.0,0.0,0.0,0.0,0.0,0.0,0.0,0.0,0.0,0.0,0.0,0.0,0.0,0.0,0.0,0.0,0.0,0.0,0.0,0.0,0.0,0.0,0.0,0.0,0.0,0.0,0.0,0.0,0.0,0.0,0.0,0.0,0.0,0.0,0.0,0.0,0.0,0.0,0.0,0.0,0.0,0.0,0.0,0.0,0.0,0.0,0.0,0.0,0.0,0.0,0.0,0.0,0.0,0.0,0.0,0.0,0.0,0.0,0.0,0.0,0.0,0.0,0.0,0.0,0.0,0.0,0.0,0.0,0.0,0.0,0.0,0.0,0.0,0.0,0.0,0.0,0.0,0.0,0.0,0.0,0.0,0.0,0.0,0.0,0.0,0.0,0.0,0.0,0.0,0.0,0.0,0.0,0.0,0.0,0.0,0.0,0.0,0.0,0.0,0.0,0.0,0.0,0.0,0.0,0.0,0.0,0.0,0.0,0.0,0.0,0.0,0.0,0.0,0.0,0.0,0.0,0.0,0.0,0.0,0.0,0.0,0.0,0.0,0.0,0.0,0.0,0.0,0.0,0.0,0.0,0.0,0.0,0.0,0.0,0.0,0.0,0.0,0.0,0.0,0.0,0.0,0.0,0.0,0.0,0.0,0.0,0.0,0.0,0.0,0.0,0.0,0.0,0.0,0.0,0.0,0.0,0.0,0.0,0.0,0.0,0.0,0.0,0.0,0.0,0.0,0.0,0.0,0.0,0.0,0.0,0.0,0.0,0.0,0.0,0.0,0.0,0.0,0.0,0.0,0.0,0.0,0.0,0.0,0.0,0.0,0.0,0.0,0.0,0.0,0.0,0.0,0.0,0.0,0.0,0.0,0.0,0.0,0.0,0.0,0.0,0.0,0.0,0.0,0.0,0.0,0.0,0.0,0.0,0.0,0.0,0.0,0.0,0.0,0.0,0.0,0.0,0.0,0.0,0.0,0.0,0.0,0.0,0.0,0.0,0.0,0.0,0.0,0.0,0.0,0.0,0.0,0.0,0.0,0.0,0.0,0.0,0.0,0.0,0.0,0.0,0.0,0.0,0.0,0.0,0.0,0.0,0.0,0.0,0.0,0.0,0.0,0.0,0.0,0.0,0.0,0.0,0.0,0.0,0.0,0.0,0.0,0.0,0.0,0.0,0.0,0.0,0.0,0.0,0.0,0.0,0.0,0.0,0.0,0.0,0.0,0.0,0.0,0.0,0.0,0.0,0.0,0.0,0.0,0.0,0.0,0.0,0.0,0.0,0.0,0.0,0.0,0.0,0.0,0.0,0.0,0.0,0.0,0.0,0.0,0.0,0.0,0.0,0.0,0.0,0.0,0.0,0.0,0.0,0.0,0.0,0.0,0.0,0.0,0.0,0.0,0.0,0.0,0.0,0.0,0.0,0.0,0.0,0.0,0.0,0.0,0.0,0.0,0.0,0.0,0.0,0.0,0.0,0.0,0.0,0.0,0.0,0.0,0.0,0.0,0.0,0.0,0.0,0.0,0.0,0.0,0.0,0.0,0.0,0.0,0.0,0.0,0.0,0.0,0.0,0.0,0.0,0.0,0.0,0.0,0.0,0.0,0.0,0.0,0.0,0.0,0.0,0.0,0.0,0.0,0.0,0.0,0.0,0.0,0.0,0.0,0.0,0.0,0.0,0.0,0.0,0.0,0.0,0.0,0.0,0.0,0.0,0.0,0.0,0.0,0.0,0.0,0.0,0.0,0.0,0.0,0.0,0.0,0.0,0.0,0.0,0.0,0.0,0.0,0.0,0.0,0.0,0.0,0.0,0.0,0.0,0.0,0.0,0.0,0.0,0.0,0.0,0.0,0.0,0.0,0.0,0.0,0.0,0.0,0.0,0.0,0.0,0.0,0.0,0.0,0.0,0.0,0.0,0.0,0.0,0.0,0.0,0.0,0.0,0.0,0.0,0.0,0.0,0.0,0.0,0.0,0.0,0.0,0.0,0.0,0.0,0.0,0.0,0.0,0.0,0.0,0.0,0.0,0.0,0.0,0.0,0.0,0.0,0.0,0.0,0.0,0.0,0.0,0.0,0.0,0.0,0.0,0.0,0.0,0.0,0.0,0.0,0.0,0.0,0.0,0.0,0.0,0.0,0.0,0.0,0.0,0.0,0.0,0.0,0.0,0.0,0.0,0.0,0.0,0.0,0.0,0.0,0.0,0.0,0.0,0.0,0.0,0.0,0.0,0.0,0.0,0.0,0.0,0.0,0.0,0.0,0.0,0.0,0.0,0.0,0.0,0.0,0.0,0.0,0.0,0.0,0.0,0.0,0.0,0.0,0.0,0.0,0.0,0.0,0.0,0.0,0.0,0.0,0.0,0.0,0.0,0.0,0.0,0.0,0.0,0.0,0.0,0.0,0.0,0.0,0.0,0.0,0.0,0.0,0.0,0.0,0.0,0.0,0.0,0.0,0.0,0.0,0.0,0.0,0.0,0.0,0.0,0.0,0.0,0.0,0.0,0.0,0.0,0.0,0.0,0.0,0.0,0.0,0.0,0.0,0.0,0.0,0.0,0.0,0.0,0.0,0.0,0.0,0.0,0.0,0.0,0.0,0.0,0.0,0.0,0.0,0.0,0.0,0.0,0.0,0.0,0.0,0.0,0.0,0.0,0.0,0.0,0.0,0.0,0.0,0.0,0.0,0.0,0.0,0.0,0.0,0.0,0.0,0.0,0.0,0.0,0.0,0.0,0.0,0.0,0.0,0.0,0.0,0.0,0.0,0.0,0.0,0.0,0.0,0.0,0.0,0.0,0.0,0.0,0.0,0.0,0.0,0.0,0.0,0.0,0.0,0.0,0.0,0.0,0.0,0.0,0.0,0.0,0.0,0.0,0.0,0.0,0.0,0.0,0.0,0.0,0.0,0.0,0.0,0.0,0.0,0.0,0.0,0.0,0.0,0.0,0.0,0.0,0.0,0.0,0.0,0.0,0.0,0.0,0.0,0.0,0.0,0.0,0.0,0.0,0.0,0.0,0.0,0.0,0.0,0.0,0.0,0.0,0.0,0.0,0.0,0.0,0.0,0.0,0.0,0.0,0.0,0.0,0.0,0.0,0.0,0.0,0.0,0.7891,0.0,0.0,0.0,0.0,0.0,0.0,0.0,0.0,0.0,0.0,0.0,0.0,0.0,0.0,0.0,0.0,0.0,0.0,0.0,0.0,0.0,0.0,0.0,0.0,0.0,0.0,0.0,0.0,0.0,0.0,0.0,0.0,0.0,0.0,0.0,0.0,0.0,0.0,0.0,0.0,0.0,0.0,0.0,0.0,0.0,0.0,0.0,0.0,0.0,0.0,0.0,0.0,0.0,0.0,0.0,0.0,0.0,0.0,0.0,0.0,0.0,0.0,0.0,0.0,0.0,0.0,0.0,0.0,0.0,0.0,0.0,0.0,0.0,0.0,0.0,0.0,0.0,0.0,0.0,0.0,0.0,0.0,0.0,0.0,0.0,0.0,0.0,0.0,0.0,0.0,0.0,0.0,0.0,0.0,0.0,0.0,0.0,0.0,0.0,0.0,0.0,0.0,0.0,0.0,0.0,0.0,0.0,0.0,0.0,0.0,0.7891,0.7891,0.7891,0.7891,0.7918,0.0,0.0,0.0,0.0,0.0,0.0,0.0,0.0,0.0,0.0,0.0,0.0,0.0,0.0,0.0,0.0,0.0,0.0,0.0,0.0,0.0,0.0,0.0,0.0,0.0,0.0,0.0,0.0,0.0,0.0,0.0,0.0,0.0,0.0,0.0,0.0,0.0,0.0,0.0,0.0,0.0,0.0,0.0,0.0,0.0,0.0,0.0,0.0,0.0,0.0,0.0,0.0,0.0,0.0,0.0,0.0,0.0,0.0,0.0,0.0,0.0,0.0,0.0,0.0,0.0,0.0,0.0,0.0,0.0,0.0,0.0,0.0,0.0,0.0,0.0,0.0,0.0,0.0,0.0,0.0,0.0,0.0,0.0,0.0,0.0,0.0,0.0,0.0,0.0,0.0,0.0,0.0,0.0,0.0,0.0,0.0,0.0,0.0,0.0,0.0,0.0,0.0,0.0,0.0,0.0,0.0,0.0,0.0,0.0,0.0,0.0,0.0,0.836,0.8364,0.8394,0.0,0.0,0.0,0.0,0.0,0.0,0.0,0.0,0.0,0.0,0.0,0.0,0.0,0.0,0.0,0.0,0.0,0.0,0.0,0.0,0.0,0.0,0.0,0.0,0.0,0.0,0.0,0.0,0.0,0.0,0.0,0.0,0.0,0.0,0.0,0.0,0.0,0.0,0.0,0.0,0.0,0.0,0.0,0.0,0.0,0.0,0.0,0.0,0.0,0.0,0.0,0.0,0.0,0.0,0.0,0.0,0.0,0.0,0.0,0.0,0.0,0.0,0.0,0.0,0.0,0.0,0.0,0.0,0.0,0.0,0.0,0.0,0.0,0.0,0.0,0.0,0.0,0.0,0.0,0.0,0.0,0.0,0.0,0.0,0.0,0.0,0.0,0.0,0.0,0.0,0.0,0.0,0.0,0.0,0.0,0.0,0.0,0.0,0.0,0.0,0.0,0.0,0.0,0.0,0.0,0.0,0.0,0.0,0.0,0.0,0.848,0.967,0.97,0.0,0.9755,0.0,0.0,0.0,0.0,0.0,0.0,0.0,0.0,0.0,0.0,0.0,0.0,0.0,0.0,0.0,0.0,0.0,0.0,0.0,0.0,0.0,0.0,0.0,0.0,0.0,0.0,0.0,0.0,0.0,0.0,0.0,0.0,0.0,0.0,0.0,0.0,0.0,0.0,0.0,0.0,0.0,0.0,0.0,0.0,0.0,0.0,0.0,0.0,0.0,0.0,0.0,0.0,0.0,0.0,0.0,0.0,0.0,0.0,0.0,0.0,0.0,0.0,0.0,0.0,0.0,0.0,0.0,0.0,0.0,0.0,0.0,0.0,0.0,0.0,0.0,0.0,0.0,0.0,0.0,0.0,0.0,0.0,0.0,0.0,0.0,0.0,0.0,0.0,0.0,0.0,0.0,0.0,0.0,0.0,0.0,0.0,0.0,0.0,0.0,0.0,0.0,0.0,0.0,0.0,0.0,0.0,0.0,0.0,0.0,0.0,0.0,0.9875,0.9905,0.9905,0.0,0.0,0.0,0.0,0.0,0.0,0.0,0.0,0.0,0.0,0.0,0.0,0.0,0.0,0.0,0.0,0.0,0.0,0.0,0.0,0.0,0.0,0.0,0.0,0.0,0.0,0.0,0.0,0.0,0.0,0.0,0.0,0.0,0.0,0.0,0.0,0.0,0.0,0.0,0.0,0.0,0.0,0.0,0.0,0.0,0.0,0.0,0.0,0.0,0.0,0.0,0.0,0.0,0.0,0.0,0.0,0.0,0.0,0.0,0.0,0.0,0.0,0.0,0.0,0.0,0.0,0.0,0.0,0.0,0.0,0.0,0.0,0.0,0.0,0.0,0.0,0.0,0.0,0.0,0.0,0.0,0.0,0.0,0.0,0.0,0.0,0.0,0.0,0.0,0.0,0.0,0.0,0.0,0.0,0.0,0.0,0.0,0.0,0.0,0.0,0.0,0.0,0.0,0.0,0.0,0.0,0.0,0.0,0.0,0.0,0.9584,0.0,1.0388,1.0418,1.0273,0.9905,0.0,0.0,0.0,0.0,0.0,0.0,0.0,0.0,0.0,0.0,0.0,0.0,0.0,0.0,0.0,0.0,0.0,0.0,0.0,0.0,0.0,0.0,0.0,0.0,0.0,0.0,0.0,0.0,0.0,0.0,0.0,0.0,0.0,0.0,0.0,0.0,0.0,0.0,0.0,0.0,0.0,0.0,0.0,0.0,0.0,0.0,0.0,0.0,0.0,0.0,0.0,0.0,0.0,0.0,0.0,0.0,0.0,0.0,0.0,0.0,0.0,0.0,0.0,0.0,0.0,0.0,0.0,0.0,0.0,0.0,0.0,0.0,0.0,0.0,0.0,0.0,0.0,0.0,0.0,0.0,0.0,0.0,0.0,0.0,0.0,0.0,0.0,0.0,0.0,0.0,0.0,0.0,0.0,0.0,0.0,0.0,0.0,0.0,0.0,0.0,0.0,0.0,0.0,0.0,0.0,0.0,0.0,0.0,0.0,1.0478,1.0468,1.1676,1.1735,1.1126,0.0,0.0,0.0,0.0,0.0,0.0,0.0,0.0,0.0,0.0,0.0,0.0,0.0,0.0,0.0,0.0,0.0,0.0,0.0,0.0,0.0,0.0,0.0,0.0,0.0,0.0,0.0,0.0,0.0,0.0,0.0,0.0,0.0,0.0,0.0,0.0,0.0,0.0,0.0,0.0,0.0,0.0,0.0,0.0,0.0,0.0,0.0,0.0,0.0,0.0,0.0,0.0,0.0,0.0,0.0,0.0,0.0,0.0,0.0,0.0,0.0,0.0,0.0,0.0,0.0,0.0,0.0,0.0,0.0,0.0,0.0,0.0,0.0,0.0,0.0,0.0,0.0,0.0,0.0,0.0,0.0,0.0,0.0,0.0,0.0,0.0,0.0,0.0,0.0,0.0,0.0,0.0,0.0,0.0,0.0,0.0,0.0,0.0,0.0,0.0,0.0,0.0,0.0,0.0,0.0,0.0,0.0,0.0,0.0,0.9251,0.97,1.0927,1.2921,1.1455,1.0747,0.0,0.0,0.0,0.0,0.0,0.0,0.0,0.0,0.0,0.0,0.0,0.0,0.0,0.0,0.0,0.0,0.0,0.0,0.0,0.0,0.0,0.0,0.0,0.0,0.0,0.0,0.0,0.0,0.0,0.0,0.0,0.0,0.0,0.0,0.0,0.0,0.0,0.0,0.0,0.0,0.0,0.0,0.0,0.0,0.0,0.0,0.0,0.0,0.0,0.0,0.0,0.0,0.0,0.0,0.0,0.0,0.0,0.0,0.0,0.0,0.0,0.0,0.0,0.0,0.0,0.0,0.0,0.0,0.0,0.0,0.0,0.0,0.0,0.0,0.0,0.0,0.0,0.0,0.0,0.0,0.0,0.0,0.0,0.0,0.0,0.0,0.0,0.0,0.0,0.0,0.0,0.0,0.0,0.0,0.0,0.0,0.0,0.0,0.0,0.0,0.0,0.0,0.0,0.0,0.0,0.0,0.0,0.0,0.0,0.9165,0.0,1.1814,0.0,1.1431,1.0538,0.0,0.0,0.0,0.0,0.0,0.0,0.0,0.0,0.0,0.0,0.0,0.0,0.0,0.0,0.0,0.0,0.0,0.0,0.0,0.0,0.0,0.0,0.0,0.0,0.0,0.0,0.0,0.0,0.0,0.0,0.0,0.0,0.0,0.0,0.0,0.0,0.0,0.0,0.0,0.0,0.0,0.0,0.0,0.0,0.0,0.0,0.0,0.0,0.0,0.0,0.0,0.0,0.0,0.0,0.0,0.0,0.0,0.0,0.0,0.0,0.0,0.0,0.0,0.0,0.0,0.0,0.0,0.0,0.0,0.0,0.0,0.0,0.0,0.0,0.0,0.0,0.0,0.0,0.0,0.0,0.0,0.0,0.0,0.0,0.0,0.0,0.0,0.0,0.0,0.0,0.0,0.0,0.0,0.0,0.0,0.0,0.0,0.0,0.0,0.0,0.0,0.0,0.0,0.0,0.0,0.0,0.0,0.0,0.9191,1.1651,1.2975,1.3101,1.1904,1.179,1.0568,0.0,0.0,0.0,0.0,0.0,0.0,0.0,0.0,0.0,0.0,0.0,0.0,0.0,0.0,0.0,0.0,0.0,0.0,0.0,0.0,0.0,0.0,0.0,0.0,0.0,0.0,0.0,0.0,0.0,0.0,0.0,0.0,0.0,0.0,0.0,0.0,0.0,0.0,0.0,0.0,0.0,0.0,0.0,0.0,0.0,0.0,0.0,0.0,0.0,0.0,0.0,0.0,0.0,0.0,0.0,0.0,0.0,0.0,0.0,0.0,0.0,0.0,0.0,0.0,0.0,0.0,0.0,0.0,0.0,0.0,0.0,0.0,0.0,0.0,0.0,0.0,0.0,0.0,0.0,0.0,0.0,0.0,0.0,0.0,0.0,0.0,0.0,0.0,0.0,0.0,0.0,0.0,0.0,0.0,0.0,0.0,0.0,0.0,0.0,0.0,0.0,0.0,0.0,0.0,0.0,0.0,0.0,0.0,0.0,1.0508,1.2214,1.3352,1.3771,1.2084,1.1161,0.0,0.0,0.0,0.0,0.0,0.0,0.0,0.0,0.0,0.0,0.0,0.0,0.0,0.0,0.0,0.0,0.0,0.0,0.0,0.0,0.0,0.0,0.0,0.0,0.0,0.0,0.0,0.0,0.0,0.0,0.0,0.0,0.0,0.0,0.0,0.0,0.0,0.0,0.0,0.0,0.0,0.0,0.0,0.0,0.0,0.0,0.0,0.0,0.0,0.0,0.0,0.0,0.0,0.0,0.0,0.0,0.0,0.0,0.0,0.0,0.0,0.0,0.0,0.0,0.0,0.0,0.0,0.0,0.0,0.0,0.0,0.0,0.0,0.0,0.0,0.0,0.0,0.0,0.0,0.0,0.0,0.0,0.0,0.0,0.0,0.0,0.0,0.0,0.0,0.0,0.0,0.0,0.0,0.0,0.0,0.0,0.0,0.0,0.0,0.0,0.0,0.0,0.0,0.0,0.0,0.0,0.0,0.0,0.0,1.2184,1.3747,1.4789,1.5155,1.3292,1.2209,1.2029,0.0,0.0,0.0,0.0,0.0,0.0,0.0,0.0,0.0,0.0,0.0,0.0,0.0,0.0,0.0,0.0,0.0,0.0,0.0,0.0,0.0,0.0,0.0,0.0,0.0,0.0,0.0,0.0,0.0,0.0,0.0,0.0,0.0,0.0,0.0,0.0,0.0,0.0,0.0,0.0,0.0,0.0,0.0,0.0,0.0,0.0,0.0,0.0,0.0,0.0,0.0,0.0,0.0,0.0,0.0,0.0,0.0,0.0,0.0,0.0,0.0,0.0,0.0,0.0,0.0,0.0,0.0,0.0,0.0,0.0,0.0,0.0,0.0,0.0,0.0,0.0,0.0,0.0,0.0,0.0,0.0,0.0,0.0,0.0,0.0,0.0,0.0,0.0,0.0,0.0,0.0,0.0,0.0,0.0,0.0,0.0,0.0,0.0,0.0,0.0,0.0,0.0,0.0,0.0,0.0,0.0,0.0,0.0,1.5948,1.7228,1.7356,1.6121,1.5328,1.3699,0.0,0.0,0.0,0.0,0.0,0.0,0.0,0.0,0.0,0.0,0.0,0.0,0.0,0.0,0.0,0.0,0.0,0.0,0.0,0.0,0.0,0.0,0.0,0.0,0.0,0.0,0.0,0.0,0.0,0.0,0.0,0.0,0.0,0.0,0.0,0.0,0.0,0.0,0.0,0.0,0.0,0.0,0.0,0.0,0.0,0.0,0.0,0.0,0.0,0.0,0.0,0.0,0.0,0.0,0.0,0.0,0.0,0.0,0.0,0.0,0.0,0.0,0.0,0.0,0.0,0.0,0.0,0.0,0.0,0.0,0.0,0.0,0.0,0.0,0.0,0.0,0.0,0.0,0.0,0.0,0.0,0.0,0.0,0.0,0.0,0.0,0.0,0.0,0.0,0.0,0.0,0.0,0.0,0.0,0.0,0.0,0.0,0.0,0.0,0.0,0.0,0.0,0.0,0.0,0.0,0.0,0.0,0.0,0.0,1.7894,1.972,2.0249,1.9411,1.734,1.5673,0.0,0.0,0.0,0.0,0.0,0.0,0.0,0.0,0.0,0.0,0.0,0.0,0.0,0.0,0.0,0.0,0.0,0.0,0.0,0.0,0.0,0.0,0.0,0.0,0.0,0.0,0.0,0.0,0.0,0.0,0.0,0.0,0.0,0.0,0.0,0.0,0.0,0.0,0.0,0.0,0.0,0.0,0.0,0.0,0.0,0.0,0.0,0.0,0.0,0.0,0.0,0.0,0.0,0.0,0.0,0.0,0.0,0.0,0.0,0.0,0.0,0.0,0.0,0.0,0.0,0.0,0.0,0.0,0.0,0.0,0.0,0.0,0.0,0.0,0.0,0.0,0.0,0.0,0.0,0.0,0.0,0.0,0.0,0.0,0.0,0.0,0.0,0.0,0.0,0.0,0.0,0.0,0.0,0.0,0.0,0.0,0.0,0.0,0.0,0.0,0.0,0.0,0.0,0.0,0.0,0.0,0.0,0.0,1.7445,1.9501,2.1475,2.2333,2.1934,1.9343,1.7266,0.0,0.0,0.0,0.0,0.0,0.0,0.0,0.0,0.0,0.0,0.0,0.0,0.0,0.0,0.0,0.0,0.0,0.0,0.0,0.0,0.0,0.0,0.0,0.0,0.0,0.0,0.0,0.0,0.0,0.0,0.0,0.0,0.0,0.0,0.0,0.0,0.0,0.0,0.0,0.0,0.0,0.0,0.0,0.0,0.0,0.0,0.0,0.0,0.0,0.0,0.0,0.0,0.0,0.0,0.0,0.0,0.0,0.0,0.0,0.0,0.0,0.0,0.0,0.0,0.0,0.0,0.0,0.0,0.0,0.0,0.0,0.0,0.0,0.0,0.0,0.0,0.0,0.0,0.0,0.0,0.0,0.0,0.0,0.0,0.0,0.0,0.0,0.0,0.0,0.0,0.0,0.0,0.0,0.0,0.0,0.0,0.0,0.0,0.0,0.0,0.0,0.0,0.0,0.0,0.0,0.0,0.0,0.0,1.9411,2.0868,2.2731,2.3699,2.364,2.1156,1.8629,0.0,0.0,0.0,0.0,0.0,0.0,0.0,0.0,0.0,0.0,0.0,0.0,0.0,0.0,0.0,0.0,0.0,0.0,0.0,0.0,0.0,0.0,0.0,0.0,0.0,0.0,0.0,0.0,0.0,0.0,0.0,0.0,0.0,0.0,0.0,0.0,0.0,0.0,0.0,0.0,0.0,0.0,0.0,0.0,0.0,0.0,0.0,0.0,0.0,0.0,0.0,0.0,0.0,0.0,0.0,0.0,0.0,0.0,0.0,0.0,0.0,0.0,0.0,0.0,0.0,0.0,0.0,0.0,0.0,0.0,0.0,0.0,0.0,0.0,0.0,0.0,0.0,0.0,0.0,0.0,0.0,0.0,0.0,0.0,0.0,0.0,0.0,0.0,0.0,0.0,0.0,0.0,0.0,0.0,0.0,0.0,0.0,0.0,0.0,0.0,0.0,0.0,0.0,0.0,0.0,0.0,0.0,0.0,1.9878,2.2213,2.3659,2.4384,2.4395,2.1864,1.974,0.0,0.0,0.0,0.0,0.0,0.0,0.0,0.0,0.0,0.0,0.0,0.0,0.0,0.0,0.0,0.0,0.0,0.0,0.0,0.0,0.0,0.0,0.0,0.0,0.0,0.0,0.0,0.0,0.0,0.0,0.0,0.0,0.0,0.0,0.0,0.0,0.0,0.0,0.0,0.0,0.0,0.0,0.0,0.0,0.0,0.0,0.0,0.0,1.1693,0.0,0.0,0.0,0.0,0.0,0.0,0.0,0.0,0.0,0.0,0.0,0.0,0.0,0.0,0.0,0.0,0.0,0.0,0.0,0.0,0.0,0.0,0.0,0.0,0.0,0.0,0.0,0.0,0.0,0.0,0.0,0.0,0.0,0.0,0.0,0.0,0.0,0.0,0.0,0.0,0.0,0.0,0.0,0.0,0.0,0.0,0.0,0.0,0.0,0.0,0.0,0.0,0.0,0.0,0.0,0.0,0.0,0.0,0.0,2.1096,2.3082,2.4406,2.4915,2.4545,2.2971,2.0997,0.0,0.0,0.0,0.0,0.0,0.0,0.0,0.0,0.0,0.0,0.0,0.0,0.0,0.0,0.0,0.0,0.0,0.0,0.0,0.0,0.0,0.0,0.0,0.0,0.0,0.0,0.0,0.0,0.0,0.0,0.0,0.0,0.0,0.0,0.0,0.0,0.0,0.0,0.0,0.0,0.0,0.0,0.0,0.0,0.0,0.0,0.0,0.0,0.0,0.0,0.0,0.0,0.0,0.0,0.0,0.0,0.0,0.0,0.0,0.0,0.0,0.0,0.0,0.0,0.0,0.0,0.0,0.0,0.0,0.0,0.0,0.0,0.0,0.0,0.0,0.0,0.0,0.0,0.0,0.0,0.0,0.0,0.0,0.0,0.0,0.0,0.0,0.0,0.0,0.0,0.0,0.0,0.0,0.0,0.0,0.0,0.0,0.0,0.0,0.0,0.0,0.0,0.0,0.0,0.0,0.0,0.0,1.9759,2.2263,2.401,2.5166,2.5453,2.4743,2.4107,2.2233,1.9001,0.0,0.0,0.0,0.0,0.0,0.0,0.0,0.0,0.0,0.0,0.0,0.0,0.0,0.0,0.0,0.0,0.0,0.0,0.0,0.0,0.0,0.0,0.0,0.0,0.0,0.0,0.0,0.0,0.0,0.0,0.0,0.0,0.0,0.0,0.0,0.0,0.0,0.0,1.0571,1.2279,0.0,0.0,0.0,0.0,0.0,0.0,0.0,0.0,1.2981,0.0,0.0,0.0,0.0,0.0,0.0,0.0,0.0,0.0,0.0,0.0,0.0,0.0,0.0,0.0,0.0,0.0,0.0,0.0,0.0,0.0,0.0,0.0,0.0,0.0,0.0,0.0,0.0,0.0,0.0,0.0,0.0,0.0,0.0,0.0,0.0,0.0,0.0,0.0,0.0,0.0,0.0,0.0,0.0,0.0,0.0,0.0,0.0,0.0,0.0,0.0,0.0,0.0,0.0,0.0,0.0,1.98,1.9998,2.2014,2.5986,2.6303,2.6123,2.5453,2.4784,2.2911,1.9699,0.0,0.0,0.0,0.0,0.0,0.0,0.0,0.0,0.0,0.0,0.0,0.0,0.0,0.0,0.0,0.0,0.0,0.0,0.0,0.0,0.0,0.0,0.0,0.0,0.0,0.0,0.0,0.0,0.0,0.0,0.0,0.0,0.0,0.0,0.0,0.0,0.0,0.0,0.0,1.439,1.5025,0.0,0.0,0.0,0.0,0.0,0.0,0.0,0.0,1.3582,0.0,0.0,0.0,0.0,0.0,0.0,0.0,0.0,0.0,0.0,0.0,0.0,0.0,0.0,0.0,0.0,0.0,0.0,0.0,0.0,0.0,0.0,0.0,0.0,0.0,0.0,0.0,0.0,0.0,0.0,0.0,0.0,0.0,0.0,0.0,0.0,0.0,0.0,0.0,0.0,0.0,0.0,0.0,0.0,0.0,0.0,0.0,0.0,0.0,0.0,0.0,0.0,0.0,0.0,0.0,1.9462,2.1365,2.364,2.6494,2.6944,2.6644,2.5603,2.4616,2.2702,0.0,0.0,0.0,0.0,0.0,0.0,0.0,0.0,0.0,0.0,0.0,0.0,0.0,0.0,0.0,0.0,0.0,0.0,0.0,0.0,0.0,0.0,0.0,0.0,0.0,0.0,0.0,0.0,0.0,0.0,0.0,0.0,0.0,0.0,0.0,0.0,0.0,0.0,0.0,0.0,1.5814,1.6392,1.6898,0.0,0.0,0.0,0.0,0.0,0.0,1.498,1.4362,0.0,0.0,0.0,0.0,0.0,0.0,0.0,0.0,0.0,0.0,0.0,0.0,0.0,0.0,0.0,0.0,0.0,0.0,0.0,0.0,0.0,0.0,0.0,0.0,0.0,0.0,0.0,0.0,0.0,0.0,0.0,0.0,0.0,0.0,0.0,0.0,0.0,0.0,0.0,0.0,0.0,0.0,0.0,0.0,0.0,0.0,0.0,0.0,0.0,0.0,0.0,0.0,0.0,0.0,0.0,1.8882,2.2402,2.5076,2.6734,2.7345,2.6944,2.5644,2.4298,2.2353,0.0,0.0,0.0,0.0,0.0,0.0,0.0,0.0,0.0,0.0,0.0,0.0,0.0,0.0,0.0,0.0,0.0,0.0,0.0,0.0,0.0,0.0,0.0,0.0,0.0,0.0,0.0,0.0,0.0,0.0,0.0,0.0,0.0,0.0,0.0,0.0,0.0,0.0,0.0,0.0,0.0,1.7839,1.7738,1.7236,0.0,0.0,0.0,0.0,1.6876,1.6557,0.0,0.0,0.0,0.0,0.0,0.0,0.0,0.0,0.0,0.0,0.0,0.0,0.0,0.0,0.0,0.0,0.0,0.0,0.0,0.0,0.0,0.0,0.0,0.0,0.0,0.0,0.0,0.0,0.0,0.0,0.0,0.0,0.0,0.0,0.0,0.0,0.0,0.0,0.0,0.0,0.0,0.0,0.0,0.0,0.0,0.0,0.0,0.0,0.0,0.0,0.0,0.0,0.0,0.0,0.0,0.0,1.9468,2.1764,2.4399,2.7315,2.7555,2.6973,2.5633,2.4298,2.2363,0.0,0.0,0.0,0.0,0.0,0.0,0.0,0.0,0.0,0.0,0.0,0.0,0.0,0.0,0.0,0.0,0.0,0.0,0.0,0.0,0.0,0.0,0.0,0.0,0.0,0.0,0.0,0.0,0.0,0.0,0.0,0.0,0.0,0.0,0.0,0.0,0.0,0.0,0.0,0.0,0.0,1.9359,1.8895,1.8368,1.7966,0.0,0.0,0.0,1.8695,1.9823,0.0,0.0,0.0,0.0,0.0,0.0,0.0,0.0,0.0,0.0,0.0,0.0,0.0,0.0,0.0,0.0,0.0,0.0,0.0,0.0,0.0,0.0,0.0,0.0,0.0,0.0,0.0,0.0,0.0,0.0,0.0,0.0,0.0,0.0,0.0,0.0,0.0,0.0,0.0,0.0,0.0,0.0,0.0,0.0,0.0,0.0,0.0,0.0,0.0,0.0,0.0,0.0,0.0,0.0,0.0,1.6211,1.9648,2.2752,2.5375,2.7495,2.7585,2.6956,2.5633,2.3969,2.1854,0.0,0.0,0.0,0.0,0.0,0.0,0.0,0.0,0.0,0.0,0.0,0.0,0.0,0.0,0.0,0.0,0.0,0.0,0.0,0.0,0.0,0.0,0.0,0.0,0.0,0.0,0.0,0.0,0.0,0.0,0.0,0.0,0.0,0.0,0.0,0.0,0.0,0.0,0.0,0.0,0.0,0.0,1.9535,1.9811,0.0,0.0,0.0,2.0067,2.043,0.0,0.0,0.0,0.0,0.0,0.0,0.0,0.0,0.0,0.0,0.0,0.0,0.0,0.0,0.0,0.0,0.0,0.0,0.0,0.0,0.0,0.0,0.0,0.0,0.0,0.0,0.0,0.0,0.0,0.0,0.0,0.0,0.0,0.0,0.0,0.0,0.0,0.0,0.0,0.0,0.0,0.0,0.0,0.0,0.0,0.0,0.0,0.0,0.0,0.0,0.0,0.0,0.0,0.0,0.0,0.0,0.0,1.9947,2.3659,2.6243,2.7555,2.7585,2.6973,2.5633,2.404,0.0,0.0,0.0,0.0,0.0,0.0,0.0,0.0,0.0,0.0,0.0,0.0,0.0,0.0,0.0,0.0,0.0,0.0,0.0,0.0,0.0,0.0,0.0,0.0,0.0,0.0,0.0,0.7364,0.0,0.0,0.0,0.0,0.0,0.0,0.0,0.0,0.0,0.0,0.0,0.0,0.0,0.0,2.1216,2.0746,2.1516,2.2117,0.0,0.0,2.1825,2.2598,2.267,2.1976,0.0,0.0,0.0,0.0,0.0,0.0,0.0,0.0,0.0,0.0,0.0,0.0,0.0,0.0,0.0,0.0,0.0,0.0,0.0,0.0,0.0,0.0,0.0,0.0,0.0,0.0,0.0,0.0,0.0,0.0,0.0,0.0,0.0,0.0,0.0,0.0,0.0,0.0,0.0,0.0,0.0,0.0,0.0,0.0,0.0,0.0,0.0,0.0,0.0,0.0,0.0,0.0,0.0,0.0,0.0,2.0608,2.3928,2.6243,2.7525,2.7585,2.6944,2.5633,2.4855,2.2631,0.0,0.0,0.0,0.0,0.0,0.0,0.0,0.0,0.0,0.0,0.0,0.0,0.0,0.0,0.0,0.0,0.0,0.0,0.0,0.0,0.0,0.0,0.0,0.0,0.0,0.0,0.0,0.0,0.0,0.0,0.0,0.0,0.0,0.0,0.0,0.0,0.0,0.0,0.0,0.0,0.0,2.3174,2.3081,2.3554,2.4326,0.0,0.0,2.4286,2.5514,2.6933,2.6358,2.158,0.0,0.0,0.0,0.0,0.0,0.0,0.0,0.0,0.0,0.0,0.0,0.0,0.0,0.0,0.0,0.0,0.0,0.0,0.0,0.0,0.0,0.0,0.0,0.0,0.0,0.0,0.0,0.0,0.0,0.0,0.0,0.0,0.0,0.0,0.0,0.0,0.0,0.0,0.0,0.0,0.0,0.0,0.0,0.0,0.0,0.0,0.0,0.0,0.0,0.0,0.0,0.0,0.0,1.7439,2.0658,2.3958,2.6243,2.7525,2.7585,2.7153,2.6255,2.5173,2.293,0.0,0.0,0.0,0.0,0.0,0.0,0.0,0.0,0.0,0.0,0.0,0.0,0.0,0.0,0.0,0.0,0.0,0.0,0.0,0.0,0.0,0.0,0.0,0.0,0.0,0.0,0.0,0.0,1.1661,1.1919,1.1487,0.0,0.0,0.0,0.0,0.0,0.0,0.0,0.0,0.0,0.0,2.4256,2.5406,2.6047,0.0,0.0,2.669,2.6402,2.6481,2.6422,2.5308,2.2257,2.0713,0.0,0.0,0.0,0.0,0.0,0.0,0.0,0.0,0.0,0.0,0.0,0.0,0.0,0.0,0.0,0.0,0.0,0.0,0.0,0.0,0.0,0.0,0.0,0.0,0.0,0.0,0.0,0.0,0.0,0.0,0.0,0.0,0.0,0.0,0.0,0.0,0.0,0.0,0.0,0.0,0.0,0.0,0.0,0.0,0.0,0.0,0.0,0.0,0.0,0.0,0.0,0.0,1.7765,2.1053,2.4124,2.6303,2.7648,2.761,2.7285,2.6614,2.5483,2.3449,0.0,0.0,0.0,0.0,0.0,0.0,0.0,0.0,0.0,0.0,0.0,0.0,0.0,0.0,0.0,0.0,0.0,0.0,0.0,0.0,0.0,0.0,0.0,0.0,0.0,0.0,0.0,0.0,1.3121,1.3056,1.2181,0.0,0.0,0.0,0.0,0.0,0.0,0.0,0.0,0.0,0.0,2.5716,2.7011,2.7694,2.8064,2.8067,2.7579,2.7158,2.708,2.6352,2.5117,2.3182,0.0,0.0,0.0,0.0,0.0,0.0,0.0,0.0,0.0,0.0,0.0,0.0,0.0,0.0,0.0,0.0,0.0,0.0,0.0,0.0,0.0,0.0,0.0,0.0,0.0,0.0,0.0,0.0,0.0,0.0,0.0,0.0,0.0,0.0,0.0,0.0,0.0,0.0,0.0,0.0,0.0,0.0,0.0,0.0,0.0,0.0,0.0,0.0,0.0,0.0,0.0,0.0,0.0,0.0,2.1948,2.4508,2.6452,2.773,2.7648,2.7285,2.6644,2.5944,2.4347,2.1704,0.0,0.0,0.0,0.0,0.0,0.0,0.0,0.0,0.0,0.0,0.0,0.0,0.0,0.0,0.0,0.0,0.0,0.0,0.0,0.0,0.0,0.0,0.0,0.0,0.0,0.0,1.263,1.2878,1.2776,0.0,0.0,0.0,0.0,0.0,0.0,0.0,0.0,0.0,0.0,2.52,2.784,2.7702,2.8248,2.8711,2.8725,2.7144,2.6319,2.7521,2.761,2.6839,0.0,0.0,0.0,0.0,0.0,0.0,0.0,0.0,0.0,0.0,0.0,0.0,0.0,0.0,0.0,0.0,0.0,0.0,0.0,0.0,0.0,0.0,0.0,0.0,0.0,0.0,0.0,0.0,1.4167,0.0,0.0,0.0,0.0,0.0,0.0,0.0,0.0,0.0,0.0,0.0,2.0571,2.1019,0.0,0.0,0.0,0.0,0.0,0.0,0.0,0.0,0.0,0.0,0.0,0.0,1.9064,2.1979,2.5042,2.7031,2.7915,2.7803,2.7608,2.7409,2.6651,2.4837,2.1784,0.0,0.0,0.0,0.0,0.0,0.0,0.0,0.0,0.0,0.0,0.0,0.0,0.0,0.0,0.0,0.0,0.0,0.0,0.0,0.0,0.0,0.0,0.0,0.0,0.0,1.3769,0.0,0.0,0.0,0.0,0.0,0.0,0.0,0.0,0.0,0.0,0.0,2.0759,2.3575,2.5462,2.6966,2.8173,2.8899,2.961,0.0,0.0,0.0,0.0,0.0,0.0,0.0,0.0,0.0,0.0,0.0,0.0,0.0,0.0,2.3528,1.9218,1.8323,1.8245,1.8184,0.0,0.0,0.0,0.0,0.0,0.0,0.0,0.0,0.0,0.0,0.0,0.0,0.0,0.0,0.0,0.0,1.6537,0.0,0.0,0.0,0.0,0.0,0.0,0.0,0.0,2.2273,2.3574,2.4224,2.4554,2.403,0.0,2.2501,2.0382,0.0,0.0,0.0,0.0,0.0,0.0,0.0,0.0,1.9998,2.2461,2.551,2.7406,2.8021,2.789,2.7803,2.7773,2.7005,2.5267,2.2443,1.9821,1.7818,0.0,0.0,0.0,0.0,0.0,0.0,0.0,0.0,0.0,0.0,0.0,0.0,0.0,0.0,0.0,0.0,0.0,0.0,0.0,0.0,0.0,0.0,0.0,1.5146,0.0,0.0,0.0,0.0,0.0,0.0,0.0,0.0,0.0,1.9324,2.0939,2.3102,2.5725,2.7055,2.7926,2.8303,0.0,0.0,0.0,0.0,0.0,0.0,0.0,2.6852,2.5997,2.5778,2.5805,2.6334,2.7453,2.824,2.7983,0.0,0.0,2.3263,2.2411,2.246,2.2431,2.2749,2.312,2.3334,2.3481,2.3832,0.0,0.0,0.0,0.0,0.0,0.0,0.0,0.0,2.1348,2.1552,0.0,2.0571,0.0,0.0,0.0,0.0,0.0,0.0,0.0,0.0,2.7081,2.8412,2.7884,2.762,2.7511,0.0,2.6676,2.5342,2.3292,1.9491,0.0,0.0,0.0,0.0,0.0,0.0,2.1326,2.3415,2.6022,2.7617,2.8247,2.8,2.7833,2.779,2.7035,2.5674,2.3759,2.2413,2.0557,1.7981,1.6002,0.0,0.0,0.0,0.0,0.0,0.0,0.0,0.0,0.0,0.0,0.0,0.0,0.0,0.0,0.0,0.0,0.0,0.0,0.0,0.0,1.5494,0.0,0.0,0.0,0.0,0.0,0.0,0.0,0.0,0.0,0.0,2.1845,2.4579,2.6968,2.755,0.0,0.0,0.0,0.0,2.9944,2.8217,2.7403,2.7272,2.7912,2.8913,2.9653,2.9639,0.0,0.0,3.0902,3.0728,3.0626,2.9958,3.0915,3.1075,2.9232,2.7924,2.7257,2.7244,2.6817,2.6635,2.7255,2.722,2.7399,2.7505,0.0,0.0,0.0,0.0,2.415,2.502,2.6544,2.6614,2.6102,2.5089,2.3738,0.0,0.0,0.0,0.0,0.0,0.0,2.5846,2.6978,2.8399,2.947,3.0203,2.9954,2.9819,2.9775,2.8928,2.8215,2.7599,2.5999,2.2205,1.6419,0.0,0.0,0.0,0.0,2.3446,2.5529,2.8129,2.9529,2.9623,2.8999,2.8336,2.7678,2.6968,2.6333,2.5734,2.3999,2.2503,2.1285,1.8912,0.0,0.0,0.0,0.0,0.0,0.0,0.0,0.0,0.0,0.0,0.0,0.0,0.0,0.0,0.0,0.0,0.0,0.0,0.0,1.5494,1.6422,1.6924,0.0,0.0,0.0,0.0,0.0,0.0,0.0,0.0,0.0,2.7008,2.6178,2.5849,0.0,0.0,2.7882,2.7142,2.9072,3.0728,3.1075,0.0,0.0,0.0,3.1626,3.1089,3.1582,3.2903,3.3715,3.3383,3.4051,3.4603,3.4382,3.4673,3.4661,3.3835,3.2201,3.1153,3.1279,3.1257,3.1221,3.1446,3.1667,3.1928,3.327,3.0325,2.8547,2.8187,2.8794,2.8759,2.967,3.1165,3.1042,3.0627,2.9966,2.8187,2.6509,2.4968,2.3389,0.0,0.0,0.0,2.8649,3.0409,3.0788,3.1699,3.2965,3.2887,3.2573,3.216,3.136,3.0739,3.032,2.9292,2.6368,0.0,0.0,0.0,2.108,2.3609,2.5683,2.7211,2.9292,3.036,3.0269,2.9446,2.8707,2.8093,2.737,2.6884,2.6614,2.5435,2.4249,2.3082,2.1285,1.9091,0.0,0.0,0.0,0.0,0.0,0.0,0.0,0.0,0.0,0.0,0.0,1.1361,0.0,0.0,0.0,0.0,1.4405,1.5982,1.7592,1.8105,0.0,0.0,0.0,0.0,0.0,0.0,0.0,2.3514,2.6052,2.8273,2.9755,2.8783,2.839,2.9639,2.9813,2.9653,2.9116,0.0,3.2296,3.2832,3.289,3.3267,3.4208,3.3831,3.3686,3.4615,3.5386,3.5909,3.5938,3.6577,3.7041,3.707,3.7041,3.6983,3.674,3.5619,3.469,3.4661,3.4519,3.4491,3.475,3.4835,3.4905,3.7288,3.6936,3.2884,3.1548,3.2001,3.1957,3.2998,3.4673,3.455,3.4771,3.5059,3.3141,3.1866,3.1001,2.852,0.0,0.0,2.9986,3.1663,3.3886,3.3906,3.4597,3.5796,3.581,3.5322,3.446,3.3808,3.3043,3.217,3.0695,2.9517,2.8642,2.7444,2.6368,2.5534,2.6733,2.7746,2.8521,2.9766,3.0417,3.0422,2.9533,2.8975,2.8781,2.8021,2.7285,2.6644,2.6554,2.5656,2.3789,2.3052,2.1525,1.8963,0.0,0.0,0.0,0.0,0.0,0.0,0.0,0.0,0.0,0.0,0.0,0.0,0.0,0.0,0.0,1.7351,0.0,2.0291,2.0407,0.0,0.0,0.0,2.2102,2.4065,2.5413,2.662,2.7782,0.0,0.0,0.0,0.0,3.3222,3.4528,3.447,3.3889,3.2729,3.3628,3.4324,3.3881,3.3852,3.4097,3.4893,3.5677,3.6635,3.7651,3.8202,3.8057,3.8057,3.8086,3.8173,3.8115,3.8202,3.8173,3.8173,3.7999,3.797,3.7128,3.6704,3.6599,3.7058,3.6673,3.6552,3.8772,3.8672,3.7645,3.6638,3.5786,3.5675,3.5897,3.6321,3.6193,3.5874,3.5457,3.4866,3.4136,3.3311,3.3206,3.3343,3.3617,3.4412,3.5111,3.5673,3.5692,3.584,3.6163,3.591,3.5868,3.5946,3.546,3.5254,3.5357,3.4903,3.397,3.2635,3.1775,2.9655,2.6521,2.705,2.8147,2.9597,3.0134,3.0593,3.0947,3.0084,2.935,2.8828,2.8021,2.7285,2.6602,2.6123,2.5393,2.4395,2.331,2.1954,2.0279,1.7274,0.0,0.0,0.0,0.0,0.0,0.0,0.0,0.0,0.0,1.4928,1.1745,0.0,1.7293,0.0,1.9817,2.2127,2.2915,2.3002,0.0,0.0,2.4517,2.4866,2.7272,2.8666,2.9581,2.9886,3.1599,3.3184,3.4143,3.452,3.5346,3.7012,3.5229,3.3603,3.3342,3.4748,3.5822,3.5735,3.6373,3.7128,3.7186,3.7535,3.7825,3.8144,3.8202,3.8202,3.8202,3.8202,3.8202,3.8202,3.8202,3.8202,3.8231,3.8202,3.8144,3.7941,3.7825,3.7796,3.7951,3.7802,3.7784,4.0298,4.023,4.023,3.9388,3.8096,3.7985,3.7919,3.7841,3.7761,3.7479,3.6987,3.6548,3.5851,3.5117,3.5681,3.598,3.598,3.6378,3.6842,3.7308,3.7111,3.7288,3.7755,3.7735,3.7623,3.743,3.7157,3.694,3.6748,3.6516,3.6065,3.5444,3.4763,3.2982,3.0222,2.8981,2.8766,2.9533,3.0104,3.0821,3.1644,3.0599,2.9633,2.8871,2.7796,2.6753,2.5764,2.5364,2.4735,2.3778,2.3092,2.2094,2.0757,1.8433,1.6675,0.0,0.0,0.0,0.0,0.0,0.0,0.0,0.0,0.0,0.0,0.0,1.9121,0.0,0.0,0.0,2.4745,2.5529,2.6575,2.7897,2.7883,2.8696,3.0974,3.2122,3.2864,3.3109,3.4341,3.5462,3.6159,3.6478,3.7001,3.8086,3.6693,3.5607,3.5665,3.6519,3.7139,3.7168,3.7767,3.8202,3.8202,3.8202,3.8202,3.8202,3.8202,3.8202,3.8202,3.8202,3.8202,3.8202,3.8202,3.8347,3.8667,3.8725,3.8783,3.9218,3.9189,3.8957,3.8696,3.8851,3.9044,4.1799,4.1641,4.1613,4.0927,3.9787,3.9787,3.9442,3.8851,3.8917,3.8963,3.8947,3.8378,3.7706,3.7069,3.7386,3.7535,3.7535,3.7535,3.8013,3.8853,3.8472,3.8751,3.959,3.9901,3.9602,3.8833,3.8799,3.8363,3.7553,3.7199,3.7125,3.736,3.6701,3.5737,3.444,3.1583,2.9764,2.9171,3.0055,3.1019,3.2074,3.0606,2.9436,2.8738,2.7279,2.587,2.4556,2.4485,2.3928,2.2793,2.2752,2.2273,2.1107,1.9791,1.8565,0.0,1.607,0.0,0.0,0.0,0.0,0.0,0.0,0.0,0.0,2.0378,2.1463,2.2614,2.5487,2.7068,2.6575,2.8201,2.9595,3.0291,3.1307,3.27,3.4412,3.5229,3.5839,3.6373,3.6994,3.7418,3.7418,3.7883,3.8202,3.8202,3.8086,3.7912,3.8115,3.8086,3.8115,3.8202,3.8202,3.8202,3.8202,3.8202,3.8202,3.8202,3.8202,3.8231,3.8376,3.8347,3.8376,3.8463,3.8522,3.8754,3.946,3.9421,3.9625,4.037,4.0321,3.9973,3.9509,3.9654,4.006,4.2972,4.2934,4.2833,4.2645,4.2383,4.2383,4.0715,3.8033,3.8338,3.9052,4.0011,4.1084,4.1305,4.0868,4.0902,4.0943,4.0943,4.0943,4.0735,4.0366,4.0274,3.9993,3.9644,3.9662,3.9808,3.9972,3.9897,3.9883,4.0027,3.9722,3.9026,3.796,3.7104,3.5969,0.0,0.0,0.0,0.0,3.0651,3.0954,3.072,2.8693,2.7534,2.7358,2.5857,0.0,2.3849,2.3778,2.346,2.2763,2.3171,0.0,0.0,0.0,0.0,0.0,0.0,0.0,0.0,0.0,0.0,0.0,2.3089,2.2741,2.1666,2.3961,2.5836,2.6593,2.8608,3.0016,3.0378,3.1744,3.3067,3.4172,3.452,3.4997,3.588,3.6519,3.6983,3.7099,3.7632,3.8028,3.8028,3.8144,3.8202,3.8202,3.8202,3.8202,3.8231,3.8231,3.8202,3.8202,3.8289,3.8231,3.8202,3.826,3.8318,3.8202,3.8202,3.8434,3.8899,3.8986,3.9218,3.9567,3.9721,3.9741,3.9973,3.9944,4.0002,4.0205,4.0612,4.0728,4.0089,4.0031,4.0089,4.4463,0.0,4.4249,4.3762,0.0,0.0,4.2031,3.9698,4.0434,4.1027,4.1582,4.2347,4.2482,4.2065,4.1527,4.1235,4.1092,4.0336,4.0303,4.0844,4.0641,4.0857,4.1367,4.1367,4.1298,4.1131,4.1081,4.0937,4.0798,4.0583,4.0085,3.9286,3.878,3.7926,3.675,3.5983,3.4586,3.2429,3.2295,3.2252,3.2253,3.0522,2.9215,2.8482,0.0,0.0,0.0,0.0,0.0,0.0,0.0,0.0,0.0,0.0,0.0,2.312,2.277,2.2903,2.3673,2.4252,2.495,2.5732,2.6678,2.6533,2.4953,2.7171,2.8927,2.9566,3.1336,3.26,3.2932,3.4109,3.5142,3.5781,3.6159,3.6595,3.7157,3.7516,3.7738,3.7748,3.7999,3.8202,3.8202,3.8202,3.8202,3.8231,3.8522,3.8696,3.8696,3.8696,3.8783,3.9073,3.9131,3.9131,3.9131,3.9131,3.9131,3.9131,3.9131,3.9276,3.9567,3.9654,3.977,4.0031,4.0089,4.0176,4.0525,4.0583,4.0699,4.1018,4.1366,4.1512,4.1134,4.1076,4.1076,4.5913,4.58,4.5648,4.4915,4.3819,4.4202,4.3673,4.258,0.0,0.0,0.0,4.3444,4.3322,4.2867,4.1996,4.1469,4.1115,3.9898,4.0126,4.1457,4.1175,4.1781,4.3172,4.3219,4.2861,4.224,4.2194,4.1826,4.1124,4.0958,4.0756,4.0497,4.0362,3.992,3.9186,3.8599,3.7449,3.5753,3.4212,3.3651,3.4058,3.2623,3.1192,2.985,2.85,2.7132,2.5824,2.5244,2.4706,2.4189,2.4249,2.4298,2.4339,2.4945,2.5364,2.5501,2.6004,2.6552,2.7056,2.7935,2.8535,2.8723,2.9581,2.9697,2.8783,3.0205,3.1396,3.2135,3.3744,3.4748,3.476,3.5775,3.6501,3.6617,3.7128,3.7651,3.8115,3.8202,3.8173,3.8202,3.8202,3.8202,3.8202,3.8347,3.8376,3.8463,3.8957,3.9421,3.9479,3.945,3.9509,3.9886,3.9915,4.0031,4.006,4.0031,4.0089,4.0002,4.0031,4.0118,4.0234,4.0263,4.0321,4.0554,4.0466,4.0728,4.1163,4.1279,4.1482,4.2005,4.2092,4.2092,4.2092,4.2092,4.2034,4.7051,4.7039,4.6859,4.6624,4.6469,4.6527,4.6443,4.6169,4.494,4.4287,4.4177,4.5505,4.5804,4.5281,4.5158,4.4961,4.4677,4.4457,4.4186,0.0,4.3764,4.3536,4.3219,4.3219,4.3138,4.3034,4.3034,4.262,4.1905,4.1714,4.1283,4.0566,4.0362,4.0192,3.9943,3.9829,3.9635,3.9277,3.5815,3.3815,3.3433,3.1398,2.9945,2.916,2.823,2.7268,2.6494,2.6405,2.6285,2.6183,2.6734,2.7046,2.7076,2.7662,2.8308,2.8859,2.8979,2.951,3.0461,3.0112,3.072,3.2605,3.2389,3.2235,3.2645,3.2922,3.359,3.4724,3.5532,3.6054,3.6065,3.6704,3.736,3.7777,3.7999,3.8115,3.8202,3.8202,3.8202,3.8202,3.8202,3.8202,3.8289,3.8696,3.9015,3.9131,3.9596,4.0147,4.0554,4.0321,4.0031,4.006,4.0089,4.0089,4.0234,4.0118,4.0205,4.0089,4.0147,4.037,4.0873,4.0902,4.1047,4.1657,4.1599,4.1715,4.186,4.1947,4.1947,4.2063,4.2092,4.2092,4.2092,4.2092,4.2092,4.7309,4.7287,4.7064,4.7009,4.7009,4.7009,4.7009,4.6938,4.6248,4.5824,4.5841,4.6516,4.6518,4.595,4.5133,4.4563,4.4195,4.3354,4.3229,4.369,4.369,4.3953,4.4354,4.4389,4.4195,4.3828,4.3793,4.3414,4.2677,4.258,4.2237,4.1681,4.1104,4.0557,4.0113,4.0113,4.0113,4.0066,3.7954,3.6405,3.5474,3.4056,3.2824,3.1832,3.0918,3.0104,2.9455,2.8959,2.8577,2.8244,2.8513,2.883,2.9159,2.9488,2.9924,3.0568,3.0971,3.1348,3.1797,3.2077,3.2793,3.41,3.3901,3.408,3.4939,3.4724,3.4927,3.5793,3.646,3.6983,3.7273,3.7603,3.7893,3.8154,3.8202,3.8202,3.8202,3.8202,3.8202,3.8202,3.8202,3.8347,3.8696,3.9015,3.9363,3.9654,4.0234,4.0873,4.1512,4.1366,4.1163,4.1163,4.1192,4.1192,4.1163,4.1163,4.1163,4.1192,4.0873,4.096,4.1453,4.1395,4.125,4.1482,4.157,4.1541,4.157,4.1541,4.1686,4.2063,4.2092,4.2092,4.2092,4.2092,4.1976,4.7309,4.7287,4.7075,4.7009,4.7009,4.7009,4.7009,4.7009,4.7009,4.7009,4.7009,4.7009,4.6731,4.6197,4.5023,4.4258,4.3655,4.2568,4.2635,4.3608,4.3677,4.432,4.5328,4.5397,4.51,4.4609,4.454,4.416,4.3517,4.3461,4.3193,4.2659,4.1889,4.1068,4.0337,4.0337,4.0282,4.0087,3.9644,3.8871,3.7761,3.6933,3.5929,3.4631,3.3814,3.3046,3.2221,3.1536,3.0971,3.0536,3.0476,3.0672,3.112,3.118,3.1465,3.2123,3.2512,3.2751,3.2808,3.3662,3.4538,3.52,3.5175,3.5617,3.6633,3.634,3.6217,3.6722,3.7215,3.768,3.8057,3.8173,3.8202,3.8202,3.8202,3.8202,3.8202,3.8202,3.8202,3.8202,3.8318,3.8638,3.9102,3.945,3.9915,4.0525,4.1018,4.1512,4.1976,4.2092,4.2092,4.2092,4.2092,4.2034,4.2092,4.2034,4.2005,4.2092,4.1657,4.1599,4.186,4.1628,4.1366,4.1424,4.1395,4.1453,4.1366,4.1366,4.1599,4.2005,4.2092,4.2092,4.2092,4.2266,4.1918,4.7309,4.7276,4.7064,4.7009,4.7009,4.7009,4.7009,4.7009,4.7009,4.7009,4.7009,4.7009,4.6824,4.659,4.6377,4.5996,4.5477,4.5408,4.522,4.5147,4.5203,4.5259,4.5397,4.5397,4.5363,4.5272,4.5272,4.4872,4.4242,4.4195,4.3709,4.2761,4.2364,4.1847,4.117,4.1102,4.0777,4.0113,4.0028,3.9688,3.9056,3.8247,3.7173,3.5768,3.5483,3.4696,3.3411,3.326,3.3185,3.3125,3.3066,3.3125,3.32,3.3185,3.35,3.4099,3.3709,3.3602,3.4042,3.4664,3.5674,3.6798,3.6616,3.6992,3.8304,3.8116,3.7941,3.797,3.8057,3.8115,3.8202,3.8202,3.8202,3.8202,3.8202,3.8202,3.826,3.8202,3.8202,3.8202,3.8783,3.9131,3.9392,4.0205,4.1105,4.1599,4.1773,4.1918,4.2063,4.2092,4.2092,4.2092,4.2092,4.2092,4.2092,4.2092,4.2092,4.2092,4.2034,4.1976,4.1976,4.2005,4.1976,4.1628,4.1831,4.1802,4.186,4.2005,4.1947,4.2034,4.2121,4.2121,4.2179,4.2557,4.2266,4.7276,4.7245,4.7077,4.7009,4.7009,4.7009,4.7009,4.7009,4.7009,4.7009,4.7009,4.7009,4.6836,4.6602,4.6602,4.6326,4.5794,4.5829,4.5662,4.5423,4.5397,4.5397,4.5397,4.5397,4.5397,4.5397,4.5397,4.5225,4.497,4.4783,4.4221,4.3373,4.3057,4.2591,4.1914,4.1847,4.1677,4.142,4.1433,4.1066,4.0353,3.928,3.8106,3.6933,3.6588,3.5827,3.4546,3.427,3.3982,3.356,3.3514,3.3664,3.4069,3.3739,3.3784,3.4428,3.4622,3.5098,3.6048,3.6705,3.725,3.7693,3.7967,3.8266,3.8572,3.8464,3.8333,3.8221,3.8202,3.8202,3.8202,3.8202,3.8202,3.8202,3.8202,3.8347,3.8754,3.8783,3.8899,3.9247,3.9567,3.9915,4.0321,4.1105,4.1744,4.2063,4.2092,4.2092,4.2092,4.2092,4.2092,4.2092,4.2092,4.2092,4.2092,4.2092,4.2092,4.2034,4.1744,4.157,4.1976,4.1735,4.1512,4.1541,4.1599,4.1599,4.1453,4.1541,4.157,4.1918,4.2469,4.2615,4.2665,4.3158,4.2955,4.7254,4.7178,4.7054,4.7009,4.7009,4.7009,4.7009,4.7009,4.7009,4.7009,4.7009,4.7009,4.6882,4.6719,4.6708,4.6435,4.5933,4.5895,4.5727,4.5437,4.5397,4.5397,4.5397,4.5397,4.5397,4.5397,4.5397,4.5397,4.5371,4.5184,4.4687,4.4095,4.3878,4.341,4.2706,4.2591,4.2503,4.2286,4.2286,4.2016,4.1422,4.0541,3.9441,3.8275,3.814,3.7581,3.6399,3.6122,3.5768,3.5202,3.5001,3.5087,3.551,3.4958,3.4801,3.525,3.5908,3.6686,3.7644,3.8302,3.859,3.8508,3.8834,3.8889,3.866,3.8493,3.8352,3.8221,3.8347,3.8463,3.8231,3.8376,3.8463,3.8463,3.8609,3.8928,3.9363,3.945,3.9596,4.0031,4.0234,4.0641,4.125,4.1773,4.2063,4.2092,4.2092,4.2092,4.2092,4.2092,4.2092,4.2092,4.2092,4.2092,4.2092,4.2092,4.2092,4.2034,4.1715,4.1657,4.2005,4.1599,4.1395,4.1744,4.1453,4.1424,4.1628,4.1541,4.1628,4.2237,4.2818,4.3253,4.3282,4.3805,4.3979,4.7254,4.7178,4.7054,4.7009,4.7009,4.7009,4.7009,4.7009,4.7009,4.7009,4.7009,4.7009,4.6998,4.6975,4.6952,4.6672,4.6228,4.6144,4.5892,4.5437,4.5397,4.5397,4.5397,4.5397,4.5397,4.5397,4.5397,4.5397,4.5371,4.5278,4.511,4.4927,4.4742,4.4217,4.3484,4.3355,4.2983,4.2523,4.2455,4.2333,4.2266,4.2158,4.1446,4.0235,4.0422,4.0186,3.9525,3.9311,3.914,3.9171,3.8335,3.8135,3.8147,3.7506,3.7075,3.7255,3.7823,3.8212,3.8392,3.896,3.9284,3.9247,3.8994,3.8833,3.8797,3.8559,3.8364,3.8231,3.8831,3.8928,3.8492,3.887,3.9131,3.9189,3.9654,3.9915,4.008,4.0089,4.006,4.0263,4.0728,4.1279,4.1918,4.2063,4.2092,4.2092,4.2092,4.2092,4.2092,4.2092,4.215,4.2179,4.2208,4.2121,4.2121,4.2092,4.2092,4.2063,4.2005,4.2063,4.2063,4.2063,4.2034,4.2092,4.2179,4.22,4.2113,4.2179,4.2411,4.2905,4.3536,4.3884,4.3921,4.4443,4.4676,4.7198,4.7077,4.7032,4.7009,4.7009,4.7009,4.7009,4.7009,4.7009,4.7009,4.7009,4.7009,4.7009,4.7009,4.6801,4.6554,4.624,4.6216,4.5917,4.545,4.5397,4.5397,4.5397,4.5397,4.5397,4.5397,4.5397,4.5357,4.5257,4.5251,4.5069,4.4899,4.4831,4.4584,4.4222,4.4147,4.4025,4.3789,4.3755,4.3552,4.3098,4.3518,4.3245,4.2244,4.1475,4.0743,3.9947,3.933,3.8965,3.8853,3.8166,3.7812,3.7795,3.7558,3.7597,3.8003,3.829,3.8571,3.902,3.9242,3.9421,3.9403,3.9283,3.9119,3.9069,3.9095,3.9153,3.9156,3.947,3.9615,3.9538,3.9654,3.977,3.9828,3.9973,4.0321,4.0612,4.0757,4.0902,4.1308,4.1648,4.186,4.2046,4.2092,4.2092,4.2092,4.2092,4.2121,4.2179,4.2411,4.2673,4.276,4.3021,4.3333,4.3311,4.2528,4.2092,4.2092,4.2121,4.2382,4.2498,4.2644,4.2673,4.3021,4.3129,4.31,4.305,4.3187,4.3369,4.3544,4.4175,4.4552,4.456,4.5024,4.5366,4.7176,4.7077,4.702,4.7009,4.7009,4.7009,4.7009,4.7009,4.7009,4.7009,4.7009,4.7009,4.7009,4.6986,4.6801,4.659,4.6326,4.6179,4.5829,4.5423,4.5397,4.5397,4.5397,4.5397,4.5397,4.5397,4.5397,4.5357,4.5257,4.5203,4.5056,4.4886,4.4817,4.472,4.4629,4.4567,4.4567,4.4567,4.4567,4.4296,4.3896,4.433,4.4364,4.3739,4.274,4.1956,4.1378,4.0712,4.034,4.0135,3.9491,3.8875,3.8464,3.8184,3.8225,3.8649,3.8938,3.9272,3.9695,3.9768,3.9785,3.975,3.9673,3.9526,3.9402,3.9815,3.994,3.9886,4.0227,4.0507,4.0486,4.0612,4.067,4.0525,4.0612,4.0902,4.1337,4.1424,4.1628,4.1918,4.2034,4.2166,4.2421,4.2236,4.2365,4.2676,4.259,4.2461,4.2731,4.3021,4.3333,4.334,4.3631,4.3834,4.3805,4.3253,4.2984,4.2934,4.2789,4.2963,4.3079,4.3224,4.3456,4.3863,4.4037,4.4008,4.4066,4.4153,4.424,4.4327,4.4756,4.522,4.5366,4.5569,4.5714,4.7272,4.7288,4.709,4.7187,4.7212,4.7152,4.7045,4.708,4.7009,4.7009,4.7009,4.7009,4.7009,4.6998,4.694,4.6801,4.6518,4.6045,4.5714,4.5463,4.541,4.5397,4.5397,4.5397,4.5397,4.5397,4.5397,4.5397,4.5384,4.5257,4.5123,4.5009,4.4872,4.4748,4.4581,4.4567,4.4567,4.4567,4.4567,4.4567,4.4567,4.4567,4.4581,4.4485,4.4201,4.4054,4.4059,4.3731,4.334,4.3358,4.2658,4.1836,4.043,3.9768,3.9439,3.9576,4.0082,4.043,4.0474,4.0501,4.048,4.0453,4.0275,4.007,4.0057,4.0465,4.0675,4.0422,4.0889,4.1317,4.1253,4.1642,4.1788,4.1279,4.1541,4.1889,4.1976,4.2063,4.2092,4.215,4.2208,4.2462,4.2879,4.2761,4.2798,4.3502,4.3433,4.3166,4.3602,4.3863,4.3979,4.403,4.4211,4.4472,4.4269,4.4008,4.4008,4.403,4.3805,4.3747,4.3855,4.4001,4.4124,4.4443,4.4589,4.4589,4.4647,4.4734,4.4879,4.5024,4.5488,4.5743,4.5772,4.5801,4.583,4.8967,4.8662,4.8615,4.8592,4.852,4.8044,4.7841,4.7759,4.7259,4.7009,4.7009,4.7009,4.7009,4.6963,4.6836,4.6684,4.6554,4.6045,4.5765,4.5649,4.5502,4.5397,4.5397,4.5397,4.5397,4.5397,4.5397,4.5397,4.5384,4.5357,4.5238,4.5049,4.4968,4.4817,4.4615,4.4567,4.4567,4.4567,4.4567,4.4567,4.4567,4.4567,4.4567,4.4567,4.4559,4.4497,4.4468,4.3621,4.3171,4.3171,4.2317,4.1624,4.1227,4.0976,4.084,4.0888,4.1026,4.1174,4.1133,4.1137,4.1158,4.1134,4.1078,4.098,4.0956,4.1415,4.1548,4.1322,4.175,4.1989,4.1945,4.248,4.2559,4.1892,4.1976,4.2192,4.2208,4.215,4.2295,4.2644,4.2731,4.3052,4.3562,4.3447,4.3624,4.4082,4.398,4.3963,4.4094,4.4567,4.4589,4.4618,4.4908,4.5133,4.4995,4.4908,4.493,4.4785,4.456,4.4472,4.4581,4.4669,4.4843,4.4959,4.5082,4.514,4.5198,4.5285,4.5372,4.5488,4.5743,4.5859,4.5888,4.5917,4.5917,5.0014,4.96,4.9542,4.9424,4.9234,4.8508,4.8199,4.8091,4.733,4.7009,4.7009,4.7009,4.7009,4.6975,4.6812,4.6684,4.6554,4.6119,4.5882,4.5778,4.5507,4.541,4.5397,4.5397,4.5397,4.5397,4.5397,4.5397,4.5397,4.5357,4.5224,4.5036,4.4954,4.4817,4.4595,4.4567,4.4567,4.4567,4.4567,4.4567,4.4567,4.4567,4.4567,4.4567,4.4567,4.4567,4.4559,4.3724,4.3292,4.3108,4.2411,4.1933,4.1884,4.1656,4.1604,4.1841,4.1903,4.1968,4.2167,4.2274,4.2218,4.2248,4.2481,4.2418,4.2413,4.2913,4.3505,4.2712,4.3368,4.3688,4.3598,4.3458,4.3487,4.3384,4.3075,4.2889,4.2827,4.2789,4.2934,4.3282,4.3369,4.3722,4.4211,4.4485,4.4773,4.5082,4.5319,4.5497,4.556,4.5752,4.5748,4.5654,4.5638,4.579,4.5853,4.583,4.583,4.5569,4.5249,4.5198,4.5227,4.5278,4.5395,4.5482,4.5598,4.5547,4.5627,4.5685,4.5772,4.5888,4.5917,4.5917,4.5917,4.5917,4.5917,5.0576,5.0231,5.0157,4.9968,4.9532,4.8757,4.8388,4.8163,4.7366,4.7009,4.7009,4.7009,4.7009,4.7009,4.6975,4.6812,4.659,4.6278,4.6008,4.579,4.5554,4.55,4.5742,4.5811,4.5811,4.5742,4.5604,4.5535,4.5569,4.5352,4.5136,4.5022,4.4899,4.4768,4.4609,4.4567,4.4567,4.4567,4.4567,4.4567,4.4567,4.4567,4.4567,4.4567,4.4567,4.4567,4.4483,4.4155,4.3996,4.3937,4.308,4.2648,4.2538,4.2013,4.2217,4.2777,4.2719,4.3132,4.3571,4.3694,4.3734,4.3749,4.4167,4.4427,4.3914,4.5092,4.564,4.4442,4.5276,4.5892,4.5409,4.4948,4.4749,4.5168,4.445,4.4006,4.4048,4.4035,4.4155,4.4315,4.4266,4.4539,4.5463,4.5648,4.622,4.6935,4.7324,4.7476,4.7647,4.7368,4.725,4.7038,4.6725,4.6733,4.685,4.685,4.6872,4.6695,4.6226,4.5865,4.5723,4.5685,4.5714,4.583,4.5917,4.5917,4.5917,4.5917,4.5917,4.5917,4.5917,4.5917,4.5917,4.5917,4.5917,5.2532,5.2109,5.2064,5.1803,5.1274,5.0038,4.9254,4.8829,4.758,4.7045,4.7009,4.7009,4.7009,4.7009,4.6998,4.6836,4.6578,4.6303,4.6067,4.5803,4.5541,4.61,4.6893,4.7065,4.6996,4.6879,4.6328,4.6272,4.6238,4.5612,4.5272,4.4988,4.5036,4.4851,4.4623,4.4635,4.4567,4.4567,4.4567,4.4567,4.4567,4.4567,4.4567,4.4567,4.4567,4.4544,4.4384,4.4083,4.385,4.3732,4.3491,4.3325,4.3379,4.3604,4.3872,4.4134,4.4591,4.4919,4.5055,4.513,4.5132,4.515,4.5415,4.5543,4.5863,4.6408,4.6655,4.6337,4.6795,4.6606,4.5797,4.5788,4.6224,4.6559,4.5403,4.4529,4.4929,4.4983,4.5341,4.6393,4.6546,4.6831,4.7209,4.7568,4.7732,4.8142,4.8347,4.844,4.8697,4.8512,4.8158,4.8158,4.7991,4.7927,4.7906,4.7906,4.7885,4.7843,4.7293,4.6476,4.6181,4.583,4.5859,4.5917,4.5917,4.5917,4.5917,4.5917,4.5917,4.5917,4.5917,4.5917,4.5917,4.5917,4.5917,5.3414,5.3023,5.3013,5.252,5.169,5.0764,4.9825,4.8805,4.7937,4.7294,4.708,4.7009,4.7009,4.7009,4.6998,4.6778,4.6411,4.6289,4.5993,4.5706,4.5856,4.6238,4.6652,4.6707,4.672,4.6707,4.6341,4.6307,4.6376,4.579,4.5595,4.5856,4.561,4.5321,4.5122,4.5074,4.4905,4.4682,4.4567,4.4567,4.4567,4.4567,4.4567,4.4567,4.4601,4.4598,4.4697,4.4566,4.4216,4.3838,4.3878,4.4092,4.4158,4.4754,4.5267,4.5549,4.576,4.5832,4.6119,4.6146,4.6151,4.6325,4.6635,4.7105,4.7465,4.7973,4.8689,4.8012,4.8143,4.7996,4.7782,4.7813,4.7909,4.7773,4.6713,4.6124,4.6607,4.6688,4.7067,4.7712,4.8009,4.8071,4.8502,4.882,4.9055,4.9186,4.9536,4.9615,4.9738,4.9358,4.9158,4.9251,4.8955,4.8707,4.8655,4.8655,4.8696,4.8696,4.859,4.7688,4.6786,4.6281,4.5978,4.5978,4.5933,4.5917,4.5917,4.5917,4.5917,4.5917,4.5917,4.5917,4.5946,4.6179,4.615,5.363,5.3322,5.3249,5.2453,5.1307,5.0941,4.982,4.8482,4.8032,4.758,4.7116,4.7009,4.7009,4.7009,4.6905,4.6672,4.6193,4.6167,4.5946,4.5948,4.6238,4.6583,4.6169,4.6224,4.619,4.6052,4.5673,4.61,4.6479,4.5996,4.6165,4.6657,4.645,4.6124,4.5862,4.5838,4.5432,4.5108,4.5074,4.5108,4.5041,4.4939,4.4838,4.4838,4.4795,4.5076,4.5336,4.5313,4.489,4.3956,4.4471,4.477,4.4902,4.5532,4.6113,4.6579,4.6389,4.6433,4.6835,4.7033,4.7112,4.7341,4.8408,4.8989,4.8835,4.9864,5.0394,4.9541,4.972,4.995,4.9917,4.9923,4.931,4.8737,4.8543,4.8625,4.8759,4.8697,4.8677,4.8779,4.881,4.8769,4.8983,4.9439,5.0038,5.0394,5.0721,5.0946,5.1062,5.0985,5.0763,5.064,5.0113,4.9356,4.9356,4.9356,4.944,4.946,4.9585,4.8979,4.7736,4.7052,4.6409,4.6135,4.6113,4.6001,4.5917,4.5917,4.5946,4.5982,4.604,4.604,4.6092,4.6498,4.6644,5.3746,5.3651,5.2984,5.2437,5.1694,5.0284,4.9274,4.8598,4.7717,4.7542,4.7092,4.7056,4.7092,4.7069,4.6943,4.6506,4.6356,4.618,4.6013,4.6498,4.71,4.7376,4.7169,4.71,4.7134,4.6996,4.6583,4.6755,4.71,4.6797,4.6605,4.7107,4.7153,4.6819,4.6573,4.6462,4.6515,4.6327,4.6259,4.6157,4.6007,4.5669,4.5466,4.5466,4.5346,4.563,4.6066,4.6042,4.5793,4.565,4.5576,4.568,4.5731,4.6245,4.6742,4.6975,4.739,4.7572,4.7787,4.8198,4.8611,4.8643,4.9355,5.0169,5.0594,5.0893,5.1389,5.1302,5.1521,5.1067,5.0377,4.9521,4.949,4.9633,4.9724,4.9943,5.0331,4.9986,4.9856,5.0363,5.0538,5.0602,5.0596,5.0724,5.1167,5.1585,5.1901,5.223,5.2314,5.2371,5.2157,5.1839,5.1662,5.1075,5.1075,5.1035,5.0977,5.0907,5.0877,5.09,4.9625,4.8312,4.7875,4.7073,4.6284,4.6305,4.6807,4.6121,4.6237,4.6214,4.6324,4.6505,4.6708,4.6998,4.7114,5.3794,5.3747,5.3339,5.2731,5.2039,5.1379,5.0728,5.0137,4.9878,4.9399,4.9,4.8905,4.8611,4.8104,4.7915,4.7687,4.7267,4.6869,4.6848,4.7162,4.7548,4.7686,4.7686,4.7686,4.7686,4.7651,4.7341,4.7548,4.7858,4.7603,4.7575,4.8254,4.7962,4.7408,4.6952,4.6864,4.6327,4.5853,4.6143,4.6278,4.621,4.6278,4.621,4.621,4.6138,4.6397,4.7042,4.6932,4.6995,4.7105,4.703,4.6722,4.6509,4.7023,4.7371,4.7537,4.81,4.8481,4.868,4.9143,4.959,4.964,5.032,5.0801,5.1331,5.1563,5.1925,5.2077,5.1817,5.1177,5.0435,5.0728,5.0694,5.09,5.1254,5.1713,5.1881,5.1205,5.0782,5.1428,5.159,5.1835,5.199,5.1944,5.2184,5.2553,5.2585,5.2864,5.2864,5.2908,5.2993,5.2869,5.3025,5.2946,5.2946,5.2899,5.2837,5.2685,5.2521,5.2652,5.2278,5.0871,4.9514,4.8711,4.7959,4.8199,4.8409,4.7576,4.6969,4.7505,4.7711,4.7432,4.7346,4.7491,4.7573,5.3794,5.3794,5.3673,5.3066,5.2333,5.2749,5.2401,5.1799,5.2492,5.1841,5.1386,5.1268,5.046,4.9793,4.9375,4.9045,4.8395,4.8091,4.7838,4.7907,4.8169,4.8307,4.8272,4.8272,4.8272,4.8031,4.772,4.8065,4.8376,4.8293,4.8414,4.9316,4.8929,4.8255,4.7515,4.7179,4.6887,4.6191,4.6481,4.665,4.6534,4.6853,4.6955,4.6955,4.6974,4.7297,4.7826,4.7891,4.797,4.8448,4.8308,4.7864,4.7586,4.7603,4.81,4.8133,4.873,4.9061,4.9342,4.9905,5.0386,5.0419,5.1066,5.143,5.1629,5.1961,5.2259,5.2212,5.197,5.1601,5.1044,5.1829,5.2377,5.252,5.2929,5.3233,5.3091,5.2203,5.2003,5.2184,5.2398,5.256,5.2832,5.2929,5.322,5.3447,5.3479,5.3511,5.3544,5.3609,5.3803,5.3932,5.4094,5.4126,5.4126,5.4062,5.4079,5.3994,5.3857,5.3999,5.4164,5.3282,5.1832,5.0667,5.0156,5.0096,4.9629,4.8716,4.8498,4.9029,4.8722,4.8086,4.7956,4.8038,4.8125,5.3794,5.3757,5.3088,5.2689,5.2502,5.24,5.2381,5.2142,5.2898,5.2621,5.2218,5.2135,5.197,5.121,5.033,4.9382,4.8848,4.8785,4.8824,4.8927,4.9306,4.9597,4.9582,4.9617,4.9617,4.9238,4.8686,4.8479,4.8706,4.8741,4.9028,4.9536,4.9423,4.8986,4.8685,4.8655,4.8173,4.7496,4.78,4.797,4.7954,4.7819,4.7733,4.7733,4.7733,4.8056,4.8548,4.8627,4.8572,4.8499,4.8308,4.843,4.8531,4.8332,4.8465,4.8862,4.9193,4.9558,5.0021,5.0684,5.1066,5.1298,5.1729,5.2126,5.2226,5.2292,5.2424,5.2587,5.281,5.2887,5.2791,5.3282,5.349,5.3467,5.3402,5.3447,5.3382,5.3188,5.2993,5.324,5.324,5.322,5.3576,5.3803,5.3932,5.4094,5.4191,5.4385,5.4547,5.4677,5.4871,5.5001,5.513,5.5162,5.5162,5.5065,5.5013,5.4883,5.4798,5.4798,5.4952,5.5049,5.4235,5.2713,5.1567,5.1058,5.0455,4.989,4.9637,4.987,4.9271,4.856,4.8624,4.8735,4.9054,5.3794,5.3747,5.3376,5.345,5.3765,5.3686,5.4108,5.4876,5.5175,5.4968,5.4573,5.4385,5.3833,5.295,5.2244,5.1346,5.0683,5.0472,5.0548,5.0686,5.0962,5.1134,5.1065,5.1099,5.1134,5.0962,5.0375,4.9651,4.9444,4.9444,4.9642,4.9693,4.9639,4.927,4.8794,4.8463,4.8255,4.8105,4.8259,4.8462,4.8529,4.836,4.8462,4.8462,4.8462,4.8665,4.8868,4.8956,4.8987,4.905,4.8972,4.921,4.941,4.9425,4.9276,4.964,4.9988,5.032,5.0834,5.143,5.1861,5.1894,5.2226,5.2557,5.2705,5.2672,5.2605,5.3003,5.3515,5.3904,5.37,5.4251,5.4402,5.4294,5.4365,5.444,5.4393,5.4373,5.4288,5.4191,5.4029,5.4094,5.445,5.4612,5.4612,5.4729,5.4859,5.5086,5.5357,5.5389,5.5389,5.5389,5.5357,5.5389,5.5389,5.5389,5.5389,5.5389,5.5389,5.5389,5.5389,5.5336,5.5093,5.4253,5.3269,5.2333,5.2274,5.2016,5.1364,5.06,4.9997,4.9525,4.9407,4.9461,4.98,5.3794,5.3794,5.3794,5.4193,5.4713,5.4936,5.5632,5.6867,5.7229,5.6914,5.6486,5.6453,5.5763,5.4606,5.3888,5.3317,5.2735,5.2235,5.1996,5.1961,5.203,5.2134,5.2168,5.2203,5.2065,5.1892,5.1858,5.1582,5.072,5.0513,5.0444,5.0395,5.005,4.9456,4.8976,4.8633,4.7763,4.7616,4.7752,4.809,4.8293,4.868,4.912,4.9221,4.9221,4.9273,4.9578,4.9645,4.9659,4.9786,4.9841,4.9992,5.0322,5.0402,5.0468,5.0684,5.1099,5.1298,5.1629,5.1927,5.2358,5.2539,5.2623,5.297,5.3334,5.3334,5.3135,5.3614,5.4276,5.4669,5.4604,5.5122,5.5311,5.5241,5.5455,5.5693,5.5402,5.5223,5.5118,5.4968,5.4806,5.4806,5.5001,5.5065,5.5001,5.5001,5.515,5.5183,5.5389,5.5389,5.5389,5.5389,5.5389,5.5389,5.5389,5.5389,5.5389,5.5389,5.5389,5.5389,5.5389,5.5389,5.5146,5.4967,5.4668,5.3882,5.4009,5.3783,5.2744,5.1809,5.0996,5.0639,5.0738,5.0644,5.0733,5.3794,5.3794,5.3794,5.3859,5.4091,5.4713,5.5085,5.5567,5.6915,5.7046,5.6258,5.6951,5.674,5.574,5.4578,5.3658,5.2944,5.2561,5.2479,5.2513,5.2444,5.2444,5.2306,5.2203,5.2479,5.2513,5.241,5.2119,5.1892,5.1858,5.1763,5.1504,5.0868,5.0363,5.0036,4.9428,4.8849,4.8781,4.8849,4.8951,4.8969,4.9086,4.9458,4.9796,4.9999,5.0186,5.0592,5.066,5.0702,5.0558,5.0593,5.0777,5.1102,5.1165,5.1563,5.1729,5.1762,5.1563,5.2093,5.2424,5.2705,5.3069,5.3268,5.368,5.4011,5.4343,5.4309,5.4343,5.5038,5.5416,5.5492,5.5925,5.6138,5.6047,5.5895,5.5866,5.5706,5.5584,5.5491,5.5357,5.5065,5.513,5.5292,5.5324,5.5357,5.5357,5.5389,5.5389,5.5389,5.5389,5.5389,5.5389,5.5389,5.5389,5.5389,5.5389,5.5571,5.5539,5.5571,5.5571,5.5636,5.5668,5.5421,5.5254,5.5102,5.5008,5.4789,5.4338,5.374,5.2945,5.2078,5.2063,5.2336,5.2109,5.1674,5.3794,5.3794,5.3794,5.4082,5.449,5.4862,5.5307,5.5827,5.6496,5.6382,5.5852,5.6039,5.5866,5.5156,5.4311,5.3943,5.3675,5.3437,5.3479,5.341,5.341,5.3444,5.3548,5.3513,5.3513,5.341,5.3529,5.3616,5.3306,5.2617,5.2157,5.2096,5.1684,5.129,5.1073,5.066,5.0399,5.0302,5.0254,5.027,5.0254,5.0254,5.0356,5.071,5.071,5.093,5.1167,5.1201,5.1358,5.1363,5.1397,5.1579,5.1871,5.198,5.2093,5.2292,5.2506,5.2473,5.2458,5.2771,5.3117,5.3448,5.378,5.4177,5.4607,5.5222,5.5435,5.517,5.5819,5.615,5.6183,5.6437,5.642,5.6382,5.6225,5.6026,5.5866,5.5726,5.5625,5.5491,5.5409,5.5409,5.5409,5.5409,5.5409,5.5389,5.5389,5.5389,5.5389,5.5389,5.5389,5.5389,5.5389,5.5389,5.5389,5.5389,5.5863,5.596,5.6154,5.6122,5.6089,5.6025,5.583,5.5551,5.5319,5.5287,5.5328,5.4768,5.3998,5.3545,5.313,5.3108,5.3095,5.2776,5.241,5.3943,5.4082,5.3859,5.4156,5.4676,5.4676,5.501,5.5614,5.5874,5.5571,5.5037,5.4893,5.4607,5.4056,5.378,5.3744,5.4131,5.403,5.4099,5.4149,5.4218,5.4099,5.403,5.4184,5.4425,5.4494,5.4287,5.4149,5.3789,5.3394,5.2896,5.2678,5.2389,5.2111,5.1886,5.1473,5.111,5.1014,5.1032,5.1066,5.11,5.11,5.1235,5.1404,5.1472,5.1539,5.1742,5.1844,5.2133,5.2202,5.2185,5.2231,5.2455,5.2595,5.2656,5.287,5.3184,5.3434,5.3301,5.3467,5.3713,5.4111,5.456,5.5189,5.5256,5.615,5.6567,5.5918,5.6249,5.66,5.6699,5.668,5.6622,5.6538,5.6421,5.6205,5.6006,5.5866,5.5786,5.5746,5.5612,5.547,5.545,5.543,5.5409,5.5409,5.5389,5.5421,5.5486,5.5571,5.5486,5.5518,5.5798,5.583,5.583,5.5895,5.6219,5.6478,5.6672,5.677,5.677,5.651,5.6187,5.5928,5.5616,5.5503,5.5523,5.4904,5.4317,5.4264,5.4136,5.3805,5.3611,5.3384,5.334,5.423,5.4862,5.4119,5.3943,5.4007,5.3905,5.4007,5.45,5.4946,5.4822,5.4305,5.4069,5.3842,5.343,5.3369,5.3376,5.3494,5.272,5.303,5.3375,5.3479,5.3529,5.3632,5.3942,5.4322,5.4306,5.4272,5.4011,5.3804,5.408,5.397,5.3999,5.3249,5.2821,5.244,5.2022,5.1638,5.1573,5.1539,5.1472,5.1472,5.1505,5.1674,5.2131,5.2266,5.2536,5.323,5.3129,5.3112,5.3112,5.2974,5.2918,5.3077,5.328,5.3389,5.35,5.4011,5.4276,5.4276,5.4343,5.474,5.5402,5.5918,5.6216,5.6183,5.6415,5.6633,5.6534,5.6633,5.6666,5.6699,5.668,5.6661,5.6603,5.6538,5.6402,5.6205,5.5986,5.5927,5.5947,5.5932,5.5954,5.6015,5.6092,5.5592,5.5507,5.5766,5.5798,5.5895,5.596,5.5745,5.581,5.6251,5.6413,5.6531,5.6726,5.7017,5.7255,5.745,5.7482,5.7482,5.7158,5.6878,5.6381,5.6142,5.5888,5.5665,5.5401,5.5205,5.5287,5.5143,5.4696,5.4622,5.4611,5.4569,5.4713,5.501,5.5243,5.5317,5.5354,5.5354,5.5354,5.5391,5.5642,5.5386,5.4644,5.411,5.3839,5.371,5.3391,5.334,5.3441,5.3651,5.3237,5.2961,5.3046,5.308,5.3065,5.2996,5.3065,5.3306,5.3548,5.377,5.3563,5.4149,5.4394,5.4198,5.3848,5.372,5.3286,5.2939,5.2688,5.2621,5.2604,5.2604,5.2588,5.2621,5.2757,5.2976,5.3044,5.3179,5.345,5.3467,5.3703,5.3905,5.3834,5.3844,5.3951,5.4171,5.4173,5.4181,5.4792,5.5104,5.517,5.5204,5.5535,5.6117,5.6514,5.6699,5.6699,5.6699,5.6699,5.6699,5.6699,5.6699,5.6699,5.6699,5.668,5.6661,5.6603,5.6505,5.6501,5.6349,5.6421,5.6572,5.6656,5.6718,5.6813,5.6927,5.6222,5.5689,5.5928,5.6187,5.6349,5.6478,5.6381,5.6446,5.6867,5.7093,5.7212,5.7471,5.7795,5.8,5.8227,5.8248,5.827,5.8173,5.7849,5.7255,5.6702,5.6493,5.6279,5.6115,5.5932,5.5738,5.5604,5.5409,5.5511,5.5706,5.5738,5.5307,5.579,5.6395,5.6506,5.632,5.632,5.632,5.632,5.6283,5.5966,5.527,5.4329,5.3899,5.3894,5.3465,5.331,5.3353,5.3444,5.3203,5.3065,5.308,5.2996,5.2789,5.2892,5.3341,5.303,5.3306,5.3736,5.346,5.4149,5.441,5.4415,5.4338,5.4211,5.4423,5.4312,5.4195,5.416,5.416,5.416,5.4143,5.416,5.4143,5.4194,5.4211,5.4228,5.4312,5.438,5.4515,5.47,5.4781,5.4842,5.5,5.5135,5.5048,5.5202,5.5473,5.5866,5.5899,5.5998,5.6183,5.6567,5.6666,5.6699,5.6699,5.6699,5.6699,5.6699,5.6699,5.6699,5.6699,5.6699,5.6699,5.668,5.668,5.6636,5.6921,5.6929,5.7087,5.7231,5.7341,5.7495,5.7613,5.7687,5.7276,5.6667,5.6693,5.692,5.705,5.7179,5.7244,5.7352,5.7644,5.7773,5.7924,5.8292,5.8648,5.8777,5.8972,5.9058,5.9026,5.8896,5.8659,5.8149,5.7607,5.7173,5.7016,5.7005,5.6535,5.5972,5.6042,5.621,5.6311,5.655,5.6784,5.5939,5.7387,5.7435,5.7063,5.6496,5.632,5.6395,5.658,5.6533,5.625,5.5742,5.4808,5.4157,5.3814,5.3457,5.3305,5.3284,5.2927,5.272,5.3065,5.3218,5.3322,5.3391,5.3513,5.3479,5.4272,5.4168,5.3789,5.3425,5.4149,5.446,5.4516,5.4473,5.4603,5.5323,5.5706,5.579,5.5632,5.5496,5.5395,5.5361,5.5327,5.5293,5.5293,5.5259,5.5192,5.5192,5.5192,5.5361,5.558,5.5508,5.5552,5.5629,5.584,5.5854,5.5861,5.6293,5.6567,5.6633,5.6666,5.6666,5.6666,5.6699,5.6699,5.6699,5.6699,5.6699,5.6699,5.6699,5.6699,5.6699,5.6766,5.6832,5.6898,5.6964,5.721,5.7509,5.7635,5.7826,5.8005,5.8165,5.8351,5.8446,5.847,5.8192,5.7886,5.7652,5.7686,5.7891,5.7989,5.8151,5.8227,5.8453,5.8518,5.8713,5.9198,5.95,5.963,5.9587,5.9545,5.9437,5.922,5.9026,5.8829,5.8364,5.7759,5.7851,5.8026,5.7454,5.6998,5.7023,5.7167,5.7268,5.7336,5.7575,5.6506,5.7536,5.8056,5.8141,5.7918,5.787,5.7881,5.7907,5.785,5.7624,5.7149,5.6442,5.5734,5.5141,5.4358,5.389,5.3437,5.3873,5.3789,5.272,5.3218,5.2977,5.2996,5.3134,5.3168,5.3168,5.3375,5.3789,5.3425,5.4149,5.446,5.4532,5.4867,5.5014,5.516,5.5468,5.5718,5.5683,5.5665,5.5665,5.5699,5.5767,5.5767,5.58,5.58,5.5834,5.5868,5.5902,5.6071,5.6393,5.632,5.6399,5.6539,5.6746,5.6648,5.6492,5.6666,5.6699,5.6699,5.6699,5.6699,5.6699,5.6699,5.6699,5.6699,5.6699,5.6699,5.6732,5.6799,5.6766,5.6699,5.7229,5.7461,5.7627,5.7793,5.8171,5.8462,5.8475,5.8554,5.8753,5.8982,5.9466,5.9708,5.9564,5.9282,5.906,5.8847,5.8916,5.9089,5.9091,5.9166,5.9198,5.9295,5.9328,5.949,5.9619,5.9706,5.9728,5.975,5.9707,5.9599,5.9534,5.9545,5.9479,5.8895,5.8366,5.8652,5.8781,5.8421,5.814,5.8231,5.8097,5.8011,5.8153,5.8375,5.6915,5.7945,5.8465,5.8687,5.8687,5.8687,5.8687,5.8687,5.8677,5.8486,5.7958,5.7254,5.6504,5.583,5.5159,5.4606,5.3839,5.4184,5.4272,5.3099,5.3513,5.3513,5.3237,5.2961,5.3375,5.3134,5.341,5.3789,5.3873,5.4287,5.4494,5.4704,5.5331,5.5343,5.54,5.5689,5.6297,5.6328,5.6393,5.663,5.6596,5.6596,5.6562,5.6562,5.6562,5.6528,5.6494,5.6528,5.6664,5.7036,5.7203,5.7265,5.7435,5.7402,5.7233,5.7006,5.6757,5.6738,5.6699,5.6699,5.6699,5.6699,5.6699,5.6699,5.6699,5.6699,5.6699,5.6766,5.6931,5.7064,5.7229,5.7773,5.8171,5.8336,5.8502,5.8899,5.9264,5.9244,5.9442,5.9661,5.9873,6.0411,6.0712,6.0712,6.0496,6.0262,6.0048,6.0117,6.0086,5.9935,5.9826,5.9816,5.9783,5.9762,5.9718,5.9696,5.9782,5.9826,5.9892,5.9935,5.9968,5.9924,6.0044,6.0087,5.9513,5.9209,5.9528,5.9571,5.954,5.9503,5.9548,5.928,5.884,5.9004,5.9315,5.7276,5.8576,5.8687,5.8687,5.8687,5.8687,5.8687,5.8687,5.8677,5.8395,5.7914,5.7031,5.6367,5.5794,5.4942,5.4523,5.4425,5.4478,5.4375,5.4306,5.4253,5.4237,5.4287,5.4218,5.4046,5.4253,5.4391,5.4237,5.446,5.446,5.4494,5.4725,5.5459,5.5448,5.5621,5.6184,5.664,5.6599,5.69,5.7103,5.7137,5.7561,5.7476,5.7494,5.7494,5.7527,5.7527,5.7595,5.7663,5.7764,5.7814,5.7848,5.7808,5.768,5.7495,5.7233,5.6891,5.6776,5.6699,5.6699,5.6699,5.6732,5.6832,5.6766,5.6766,5.6832,5.6998,5.7196,5.7442,5.7674,5.7939,5.8436,5.8933,5.9032,5.9098,5.9463,5.9926,6.0138,6.039,6.0589,6.0734,6.099,6.099,6.1002,6.094,6.0811,6.0511,6.0459,6.0409,6.0206,6.0109,6.0087,6.0055,6.0109,6.0044,5.9925,5.9979,6.0087,6.0109,6.0152,6.0206,6.0239,6.0174,6.0087,6.0,6.0033,6.0409,6.0783,6.1072,6.1027,6.0994,6.0592,6.016,6.0183,6.0403,5.7759,5.865,5.8687,5.8687,5.8687,5.8687,5.8687,5.8677,5.8604,5.8275,5.7749,5.7092,5.6362,5.5644,5.5109,5.4745,5.4592,5.4494,5.4494,5.4494,5.4494,5.4494,5.4494,5.4494,5.4494,5.4494,5.4494,5.4494,5.4494,5.4494,5.4494,5.4654,5.5235,5.5258,5.5672,5.6439,5.6385,5.6498,5.6918,5.7239,5.7442,5.7679,5.7798,5.79,5.79,5.79,5.79,5.79,5.79,5.79,5.79,5.7863,5.768,5.7606,5.7476,5.712,5.6949,5.6853,5.6738,5.6699,5.6732,5.6898,5.7144,5.7097,5.7031,5.7163,5.7461,5.7707,5.8005,5.827,5.8469,5.8899,5.933,5.9496,5.9694,6.0092,6.049,6.0634,6.0887,6.092,6.1098,6.1098,6.1098,6.1098,6.1002,6.1002,6.094,6.0856,6.0729,6.0496,6.0346,6.0325,6.0325,6.0325,6.0325,6.0227,6.0249,6.0325,6.0412,6.051,6.0608,6.0586,6.0282,6.0348,6.0685,6.099,6.1358,6.1725,6.2082,6.2489,6.2468,6.1997,6.1603,6.1499,6.1628,5.7945,5.865,5.8687,5.8687,5.8687,5.8687,5.8687,5.8667,5.8572,5.8127,5.7449,5.6915,5.6199,5.5387,5.4942,5.4667,5.451,5.4494,5.4494,5.4494,5.4494,5.4494,5.4494,5.4494,5.4494,5.4494,5.4494,5.4494,5.4494,5.4494,5.4494,5.4497,5.4853,5.5049,5.5345,5.5741,5.5978,5.6263,5.6701,5.7088,5.7374,5.7611,5.7798,5.79,5.79,5.79,5.79,5.79,5.79,5.79,5.79,5.7845,5.7698,5.7643,5.7495,5.7176,5.7025,5.6891,5.6738,5.6699,5.6865,5.7144,5.7541,5.7674,5.7859,5.8058,5.819,5.8336,5.8634,5.8899,5.9065,5.9297,5.9628,5.996,6.0324,6.0721,6.092,6.1032,6.1065,6.1065,6.1098,6.1098,6.1098,6.1098,6.1098,6.1077,6.1023,6.0981,6.0877,6.0708,6.0569,6.0506,6.0506,6.0506,6.0571,6.0735,6.0812,6.0944,6.1064,6.1162,6.1141,6.1327,6.1426,6.1557,6.1688,6.1961,6.2266,6.2658,6.3062,6.336,6.3526,6.3108,6.2734,6.2633,6.2865,5.8019,5.8687,5.8687,5.8687,5.8687,5.8687,5.8687,5.8667,5.8561,5.798,5.7179,5.6632,5.5936,5.5169,5.473,5.4573,5.4494,5.4494,5.4494,5.4494,5.4494,5.4494,5.4494,5.4494,5.4494,5.4494,5.4494,5.4494,5.4494,5.4529,5.4513,5.4532,5.4716,5.5134,5.5873,5.5911,5.6267,5.6742,5.7211,5.7663,5.7663,5.7798,5.79,5.79,5.79,5.79,5.79,5.79,5.79,5.79,5.79,5.7881,5.7827,5.7735,5.7551,5.7383,5.7214,5.7172,5.7052,5.7075,5.7382,5.766,5.7906,5.8204,5.8436,5.8535,5.8601,5.8634,5.8866,5.8899,5.9032,5.9065,5.933,5.9661,6.0026,6.039,6.0622,6.0833,6.1098,6.1098,6.1098,6.1098,6.1185,6.1218,6.1516,6.1351,6.1495,6.1529,6.1432,6.1306,6.1143,6.108,6.1299,6.1431,6.1398,6.1541,6.151,6.163,6.1838,6.1959,6.2059,6.2388,6.2749,6.2607,6.2454,6.2826,6.3144,6.3583,6.389,6.3868,6.4001,6.399,6.3857,6.3703,6.3913,5.8539,5.8687,5.8687,5.8687,5.8687,5.8687,5.8687,5.8667,5.8486,5.7925,5.7105,5.6567,5.5844,5.4987,5.4636,5.4494,5.4494,5.4494,5.4494,5.4494,5.4494,5.4494,5.4494,5.4494,5.4494,5.4494,5.4494,5.4529,5.4529,5.4547,5.4823,5.5324,5.5523,5.611,5.6815,5.6832,5.7152,5.7407,5.7602,5.7663,5.734,5.7697,5.79,5.79,5.79,5.79,5.79,5.79,5.79,5.79,5.79,5.79,5.7881,5.7845,5.7717,5.7569,5.7521,5.7563,5.7686,5.775,5.7991,5.8343,5.8601,5.8701,5.8833,5.8866,5.8899,5.8899,5.8866,5.8833,5.8833,5.8833,5.8933,5.9264,5.9661,5.996,6.0324,6.0701,6.1065,6.1098,6.1098,6.1218,6.1285,6.1516,6.1836,6.22,6.2631,6.2775,6.2709,6.2579,6.2293,6.225,6.2557,6.2656,6.247,6.2361,6.2329,6.2549,6.2823,6.2924,6.3013,6.3199,6.3375,6.3232,6.3166,6.3606,6.409,6.4597,6.4796,6.4597,6.4597,6.463,6.4763,6.4697,6.4895,5.8687,5.8687,5.8687,5.8687,5.8687,5.8687,5.8687,5.8625,5.829,5.7713,5.7091,5.6536,5.5766,5.4915,5.4573,5.4494,5.4494,5.4494,5.4494,5.4494,5.4494,5.4494,5.4494,5.4494,5.4494,5.4494,5.4494,5.4529,5.4582,5.4927,5.5324,5.5738,5.6329,5.6984,5.7587,5.7807,5.8022,5.8103,5.7991,5.7663,5.7239,5.7663,5.79,5.79,5.79,5.79,5.79,5.79,5.79,5.79,5.79,5.79,5.79,5.7881,5.7993,5.8062,5.8096,5.8165,5.8416,5.856,5.8647,5.886,5.8866,5.8833,5.8734,5.8767,5.8634,5.8601,5.8336,5.8303,5.8104,5.8058,5.8138,5.8369,5.9065,5.9628,6.0291,6.092,6.1065,6.1098,6.1318,6.1736,6.1935,6.2333,6.2598,6.2697,6.3227,6.336,6.3426,6.3691,6.3459,6.3327,6.3526,6.336,6.2986,6.303,6.3196,6.3471,6.3758,6.3969,6.4057,6.4002,6.399,6.4002,6.4167,6.4531,6.5017,6.5238,6.5293,6.5094,6.516,6.5293,6.5403,6.5403,6.5337,5.8687,5.8687,5.8687,5.8687,5.8687,5.8687,5.8687,5.8614,5.8082,5.7522,5.6978,5.651,5.5615,5.4896,5.4494,5.4494,5.4494,5.4494,5.4494,5.4494,5.4494,5.4494,5.4494,5.4494,5.4494,5.4598,5.4701,5.4736,5.4805,5.534,5.5858,5.5996,5.6549,5.7239,5.7552,5.7689,5.7874,5.8124,5.8081,5.7936,5.7866,5.79,5.79,5.79,5.79,5.79,5.79,5.79,5.79,5.8001,5.8103,5.834,5.8441,5.8524,5.8653,5.8792,5.8814,5.9026,5.9243,5.9165,5.9146,5.9112,5.894,5.8701,5.8568,5.8389,5.8257,5.8071,5.7806,5.7674,5.7495,5.7594,5.7641,5.8038,5.8833,5.986,6.0688,6.1384,6.1417,6.145,6.1815,6.23,6.2598,6.3029,6.3294,6.3426,6.3526,6.3559,6.3758,6.42,6.4365,6.42,6.42,6.399,6.3725,6.3791,6.4056,6.4233,6.4531,6.4895,6.5072,6.4795,6.4773,6.5038,6.5215,6.5182,6.5215,6.5337,6.537,6.5403,6.5403,6.5403,6.5403,6.5403,6.5403,5.8687,5.8687,5.8687,5.8687,5.8687,5.8687,5.8687,5.8667,5.8428,5.7746,5.6904,5.6474,5.5823,5.4884,5.4589,5.4494,5.4494,5.4494,5.4494,5.4494,5.4494,5.4494,5.4563,5.4651,5.4529,5.4805,5.5184,5.5375,5.5529,5.6184,5.6874,5.7322,5.746,5.8013,5.8548,5.853,5.8321,5.8384,5.8171,5.8009,5.7918,5.79,5.79,5.79,5.79,5.79,5.79,5.79,5.79,5.8069,5.849,5.8998,5.9268,5.9404,5.9569,5.9614,5.9635,5.9823,5.9946,5.9543,5.9425,5.9352,5.8973,5.8104,5.7859,5.7461,5.7362,5.7243,5.7111,5.7196,5.7196,5.7693,5.7939,5.8734,5.9529,6.102,6.2212,6.2498,6.2631,6.2697,6.283,6.3062,6.3161,6.3625,6.4122,6.4288,6.4564,6.4597,6.4597,6.4929,6.516,6.4995,6.4862,6.5061,6.5028,6.4763,6.4895,6.5094,6.516,6.5227,6.5293,6.5337,6.5403,6.5403,6.5403,6.5337,6.537,6.5403,6.5403,6.5403,6.5403,6.5403,6.5403,6.5403,6.5403]}]]